Time,TemperatureF,DewpointF,PressureIn,WindDirection,WindDirectionDegrees,WindSpeedMPH,WindSpeedGustMPH,Humidity,HourlyPrecipIn,Conditions,Clouds,dailyrainin,SolarRadiationWatts/m^2,SoftwareType,DateUTC
2013-01-22 00:00:00,54.8,42.5,30.10,WNW,300,3.0,5.0,63,0.00,,---,0.00,0.00,VWS V14.00,2013-01-22 05:00:00,
2013-01-22 00:01:00,54.7,42.8,30.10,WNW,300,3.0,3.0,64,0.00,,---,0.00,0.00,VWS V14.00,2013-01-22 05:01:00,
2013-01-22 00:02:00,54.7,42.4,30.10,WNW,300,3.0,4.0,63,0.00,,---,0.00,0.00,VWS V14.00,2013-01-22 05:02:00,
2013-01-22 00:03:00,54.7,42.4,30.10,WNW,300,0.0,4.0,63,0.00,,---,0.00,0.00,VWS V14.00,2013-01-22 05:03:00,
2013-01-22 00:04:00,54.6,42.7,30.10,WNW,300,0.0,4.0,64,0.00,,---,0.00,0.00,VWS V14.00,2013-01-22 05:04:00,
2013-01-22 00:05:00,54.6,42.7,30.09,WNW,300,0.0,4.0,64,0.00,,---,0.00,0.00,VWS V14.00,2013-01-22 05:05:00,
2013-01-22 00:06:00,54.6,42.3,30.10,WNW,301,1.0,4.0,63,0.00,,---,0.00,0.00,VWS V14.00,2013-01-22 05:06:00,
2013-01-22 00:07:00,54.6,42.3,30.10,WNW,300,2.0,4.0,63,0.00,,---,0.00,0.00,VWS V14.00,2013-01-22 05:07:00,
2013-01-22 00:08:00,54.5,42.6,30.10,WNW,300,0.0,4.0,64,0.00,,---,0.00,0.00,VWS V14.00,2013-01-22 05:08:00,
2013-01-22 00:09:00,54.6,42.7,30.10,WNW,301,4.0,4.0,64,0.00,,---,0.00,0.00,VWS V14.00,2013-01-22 05:09:00,
2013-01-22 00:10:00,54.5,42.6,30.09,WNW,301,2.0,5.0,64,0.00,,---,0.00,0.00,VWS V14.00,2013-01-22 05:10:00,
2013-01-22 00:11:00,54.5,42.6,30.09,WNW,301,2.0,5.0,64,0.00,,---,0.00,0.00,VWS V14.00,2013-01-22 05:11:00,
2013-01-22 00:12:00,54.5,42.6,30.10,WNW,301,2.0,5.0,64,0.00,,---,0.00,0.00,VWS V14.00,2013-01-22 05:12:00,
2013-01-22 00:13:00,54.5,42.6,30.09,WNW,301,0.0,5.0,64,0.00,,---,0.00,0.00,VWS V14.00,2013-01-22 05:13:00,
2013-01-22 00:14:00,54.5,42.6,30.09,WNW,301,0.0,5.0,64,0.00,,---,0.00,0.00,VWS V14.00,2013-01-22 05:14:00,
2013-01-22 00:15:00,54.5,43.0,30.09,WNW,301,0.0,5.0,65,0.00,,---,0.00,0.00,VWS V14.00,2013-01-22 05:15:00,
2013-01-22 00:16:00,54.5,43.0,30.09,WNW,301,2.0,5.0,65,0.00,,---,0.00,0.00,VWS V14.00,2013-01-22 05:16:00,
2013-01-22 00:17:00,54.5,43.0,30.10,WNW,301,0.0,5.0,65,0.00,,---,0.00,0.00,VWS V14.00,2013-01-22 05:17:00,
2013-01-22 00:18:00,54.4,42.9,30.10,WNW,301,0.0,5.0,65,0.00,,---,0.00,0.00,VWS V14.00,2013-01-22 05:18:00,
2013-01-22 00:19:00,54.4,42.9,30.09,WNW,301,2.0,5.0,65,0.00,,---,0.00,0.00,VWS V14.00,2013-01-22 05:19:00,
2013-01-22 00:20:00,54.4,43.3,30.09,WNW,301,4.0,5.0,66,0.00,,---,0.00,0.00,VWS V14.00,2013-01-22 05:20:00,
2013-01-22 00:21:00,54.4,42.9,30.09,WNW,301,2.0,5.0,65,0.00,,---,0.00,0.00,VWS V14.00,2013-01-22 05:21:00,
2013-01-22 00:22:00,54.4,42.9,30.09,WNW,301,3.0,5.0,65,0.00,,---,0.00,0.00,VWS V14.00,2013-01-22 05:22:00,
2013-01-22 00:23:00,54.4,43.3,30.09,WNW,301,0.0,5.0,66,0.00,,---,0.00,0.00,VWS V14.00,2013-01-22 05:23:00,
2013-01-22 00:24:00,54.4,43.3,30.09,WNW,301,0.0,5.0,66,0.00,,---,0.00,0.00,VWS V14.00,2013-01-22 05:24:00,
2013-01-22 00:25:00,54.3,43.2,30.10,WNW,301,3.0,5.0,66,0.00,,---,0.00,0.00,VWS V14.00,2013-01-22 05:25:00,
2013-01-22 00:26:00,54.3,43.2,30.10,WNW,301,0.0,5.0,66,0.00,,---,0.00,0.00,VWS V14.00,2013-01-22 05:26:00,
2013-01-22 00:27:00,54.3,43.2,30.09,WNW,301,2.0,5.0,66,0.00,,---,0.00,0.00,VWS V14.00,2013-01-22 05:27:00,
2013-01-22 00:28:00,54.3,43.2,30.10,WNW,301,2.0,5.0,66,0.00,,---,0.00,0.00,VWS V14.00,2013-01-22 05:28:00,
2013-01-22 00:29:00,54.3,43.2,30.10,WNW,301,3.0,5.0,66,0.00,,---,0.00,0.00,VWS V14.00,2013-01-22 05:29:00,
2013-01-22 00:30:00,54.2,42.7,30.09,WNW,301,2.0,5.0,65,0.00,,---,0.00,0.00,VWS V14.00,2013-01-22 05:30:00,
2013-01-22 00:31:00,54.2,42.7,30.09,WNW,301,4.0,5.0,65,0.00,,---,0.00,0.00,VWS V14.00,2013-01-22 05:31:00,
2013-01-22 00:32:00,54.2,42.7,30.09,WNW,301,3.0,5.0,65,0.00,,---,0.00,0.00,VWS V14.00,2013-01-22 05:32:00,
2013-01-22 00:33:00,54.2,42.7,30.09,WNW,301,3.0,5.0,65,0.00,,---,0.00,0.00,VWS V14.00,2013-01-22 05:33:00,
2013-01-22 00:34:00,54.1,43.0,30.09,WNW,301,4.0,5.0,66,0.00,,---,0.00,0.00,VWS V14.00,2013-01-22 05:34:00,
2013-01-22 00:35:00,54.1,42.6,30.09,WNW,301,3.0,5.0,65,0.00,,---,0.00,0.00,VWS V14.00,2013-01-22 05:35:00,
2013-01-22 00:36:00,54.1,42.6,30.10,WNW,301,5.0,5.0,65,0.00,,---,0.00,0.00,VWS V14.00,2013-01-22 05:36:00,
2013-01-22 00:37:00,54.1,42.2,30.10,NW,312,2.0,7.0,64,0.00,,---,0.00,0.00,VWS V14.00,2013-01-22 05:37:00,
2013-01-22 00:38:00,54.1,42.6,30.10,NW,312,4.0,7.0,65,0.00,,---,0.00,0.00,VWS V14.00,2013-01-22 05:38:00,
2013-01-22 00:39:00,54.1,42.6,30.09,NW,312,4.0,7.0,65,0.00,,---,0.00,0.00,VWS V14.00,2013-01-22 05:39:00,
2013-01-22 00:40:00,54.0,42.5,30.10,NW,312,4.0,7.0,65,0.00,,---,0.00,0.00,VWS V14.00,2013-01-22 05:40:00,
2013-01-22 00:41:00,54.0,42.5,30.09,NW,312,0.0,7.0,65,0.00,,---,0.00,0.00,VWS V14.00,2013-01-22 05:41:00,
2013-01-22 00:42:00,54.0,42.5,30.09,NW,310,4.0,7.0,65,0.00,,---,0.00,0.00,VWS V14.00,2013-01-22 05:42:00,
2013-01-22 00:43:00,54.0,42.1,30.09,NW,310,4.0,7.0,64,0.00,,---,0.00,0.00,VWS V14.00,2013-01-22 05:43:00,
2013-01-22 00:44:00,54.0,42.5,30.09,NW,309,3.0,7.0,65,0.00,,---,0.00,0.00,VWS V14.00,2013-01-22 05:44:00,
2013-01-22 00:45:00,54.0,42.1,30.09,NW,309,3.0,7.0,64,0.00,,---,0.00,0.00,VWS V14.00,2013-01-22 05:45:00,
2013-01-22 00:46:00,54.0,42.1,30.10,NW,309,3.0,7.0,64,0.00,,---,0.00,0.00,VWS V14.00,2013-01-22 05:46:00,
2013-01-22 00:47:00,54.0,42.1,30.09,NW,317,5.0,7.0,64,0.00,,---,0.00,0.00,VWS V14.00,2013-01-22 05:47:00,
2013-01-22 00:48:00,54.0,42.1,30.09,NW,313,4.0,7.0,64,0.00,,---,0.00,0.00,VWS V14.00,2013-01-22 05:48:00,
2013-01-22 00:49:00,54.0,42.1,30.09,NW,313,3.0,7.0,64,0.00,,---,0.00,0.00,VWS V14.00,2013-01-22 05:49:00,
2013-01-22 00:50:00,54.0,42.5,30.09,NW,313,3.0,7.0,65,0.00,,---,0.00,0.00,VWS V14.00,2013-01-22 05:50:00,
2013-01-22 00:51:00,54.0,42.1,30.09,NW,313,4.0,7.0,64,0.00,,---,0.00,0.00,VWS V14.00,2013-01-22 05:51:00,
2013-01-22 00:52:00,54.0,42.1,30.09,NW,313,5.0,7.0,64,0.00,,---,0.00,0.00,VWS V14.00,2013-01-22 05:52:00,
2013-01-22 00:53:00,54.0,42.1,30.09,NW,313,6.0,7.0,64,0.00,,---,0.00,0.00,VWS V14.00,2013-01-22 05:53:00,
2013-01-22 00:54:00,54.1,42.2,30.09,NW,313,5.0,7.0,64,0.00,,---,0.00,0.00,VWS V14.00,2013-01-22 05:54:00,
2013-01-22 00:55:00,54.1,42.2,30.09,NW,313,5.0,7.0,64,0.00,,---,0.00,0.00,VWS V14.00,2013-01-22 05:55:00,
2013-01-22 00:56:00,54.1,42.2,30.09,NW,313,5.0,7.0,64,0.00,,---,0.00,0.00,VWS V14.00,2013-01-22 05:56:00,
2013-01-22 00:57:00,54.1,42.2,30.09,NW,313,4.0,7.0,64,0.00,,---,0.00,0.00,VWS V14.00,2013-01-22 05:57:00,
2013-01-22 00:58:00,54.1,42.2,30.09,NW,313,3.0,7.0,64,0.00,,---,0.00,0.00,VWS V14.00,2013-01-22 05:58:00,
2013-01-22 00:59:00,54.1,42.6,30.09,NW,313,3.0,7.0,65,0.00,,---,0.00,0.00,VWS V14.00,2013-01-22 05:59:00,
2013-01-22 01:00:00,54.2,42.7,30.09,NW,313,2.0,7.0,65,0.00,,---,0.00,0.00,VWS V14.00,2013-01-22 06:00:00,
2013-01-22 01:01:00,54.2,42.7,30.09,NW,313,1.0,3.0,65,0.00,,---,0.00,0.00,VWS V14.00,2013-01-22 06:01:00,
2013-01-22 01:02:00,54.2,43.1,30.09,NW,313,2.0,4.0,66,0.00,,---,0.00,0.00,VWS V14.00,2013-01-22 06:02:00,
2013-01-22 01:03:00,54.2,43.1,30.09,NW,313,2.0,4.0,66,0.00,,---,0.00,0.00,VWS V14.00,2013-01-22 06:03:00,
2013-01-22 01:04:00,54.2,43.1,30.09,NW,313,4.0,4.0,66,0.00,,---,0.00,0.00,VWS V14.00,2013-01-22 06:04:00,
2013-01-22 01:05:00,54.2,43.1,30.09,NW,313,3.0,5.0,66,0.00,,---,0.00,0.00,VWS V14.00,2013-01-22 06:05:00,
2013-01-22 01:06:00,54.2,43.1,30.09,NW,313,0.0,5.0,66,0.00,,---,0.00,0.00,VWS V14.00,2013-01-22 06:06:00,
2013-01-22 01:07:00,54.2,43.1,30.09,NW,313,0.0,5.0,66,0.00,,---,0.00,0.00,VWS V14.00,2013-01-22 06:07:00,
2013-01-22 01:08:00,54.2,43.5,30.09,NW,313,2.0,5.0,67,0.00,,---,0.00,0.00,VWS V14.00,2013-01-22 06:08:00,
2013-01-22 01:09:00,54.2,43.1,30.09,NW,313,5.0,5.0,66,0.00,,---,0.00,0.00,VWS V14.00,2013-01-22 06:09:00,
2013-01-22 01:10:00,54.2,43.1,30.09,NW,317,6.0,6.0,66,0.00,,---,0.00,0.00,VWS V14.00,2013-01-22 06:10:00,
2013-01-22 01:11:00,54.3,43.2,30.09,NW,318,1.0,6.0,66,0.00,,---,0.00,0.00,VWS V14.00,2013-01-22 06:11:00,
2013-01-22 01:12:00,54.3,43.2,30.09,NW,318,2.0,6.0,66,0.00,,---,0.00,0.00,VWS V14.00,2013-01-22 06:12:00,
2013-01-22 01:13:00,54.3,43.6,30.09,NW,322,1.0,7.0,67,0.00,,---,0.00,0.00,VWS V14.00,2013-01-22 06:13:00,
2013-01-22 01:14:00,54.3,43.6,30.09,NW,322,5.0,7.0,67,0.00,,---,0.00,0.00,VWS V14.00,2013-01-22 06:14:00,
2013-01-22 01:15:00,54.3,43.6,30.09,NW,322,5.0,7.0,67,0.00,,---,0.00,0.00,VWS V14.00,2013-01-22 06:15:00,
2013-01-22 01:16:00,54.3,43.6,30.09,NW,322,5.0,7.0,67,0.00,,---,0.00,0.00,VWS V14.00,2013-01-22 06:16:00,
2013-01-22 01:17:00,54.4,43.3,30.09,NNW,342,3.0,7.0,66,0.00,,---,0.00,0.00,VWS V14.00,2013-01-22 06:17:00,
2013-01-22 01:18:00,54.4,43.3,30.09,NNW,341,5.0,7.0,66,0.00,,---,0.00,0.00,VWS V14.00,2013-01-22 06:18:00,
2013-01-22 01:19:00,54.4,43.3,30.09,NNW,341,4.0,7.0,66,0.00,,---,0.00,0.00,VWS V14.00,2013-01-22 06:19:00,
2013-01-22 01:20:00,54.5,43.8,30.09,NNW,340,3.0,7.0,67,0.00,,---,0.00,0.00,VWS V14.00,2013-01-22 06:20:00,
2013-01-22 01:21:00,54.5,43.8,30.09,NNW,333,6.0,7.0,67,0.00,,---,0.00,0.00,VWS V14.00,2013-01-22 06:21:00,
2013-01-22 01:22:00,54.5,43.8,30.09,NNW,333,6.0,7.0,67,0.00,,---,0.00,0.00,VWS V14.00,2013-01-22 06:22:00,
2013-01-22 01:23:00,54.6,43.9,30.09,NNW,331,7.0,7.0,67,0.00,,---,0.00,0.00,VWS V14.00,2013-01-22 06:23:00,
2013-01-22 01:24:00,54.6,43.9,30.09,NNW,335,8.0,8.0,67,0.00,,---,0.00,0.00,VWS V14.00,2013-01-22 06:24:00,
2013-01-22 01:25:00,54.7,43.2,30.09,NNW,333,7.0,9.0,65,0.00,,---,0.00,0.00,VWS V14.00,2013-01-22 06:25:00,
2013-01-22 01:26:00,54.7,43.2,30.09,NNW,333,5.0,9.0,65,0.00,,---,0.00,0.00,VWS V14.00,2013-01-22 06:26:00,
2013-01-22 01:27:00,54.8,43.3,30.09,NNW,340,7.0,9.0,65,0.00,,---,0.00,0.00,VWS V14.00,2013-01-22 06:27:00,
2013-01-22 01:28:00,54.8,43.3,30.10,NNW,343,6.0,9.0,65,0.00,,---,0.00,0.00,VWS V14.00,2013-01-22 06:28:00,
2013-01-22 01:29:00,54.8,43.7,30.10,NNW,335,7.0,9.0,66,0.00,,---,0.00,0.00,VWS V14.00,2013-01-22 06:29:00,
2013-01-22 01:30:00,54.8,43.3,30.10,NNW,333,8.0,9.0,65,0.00,,---,0.00,0.00,VWS V14.00,2013-01-22 06:30:00,
2013-01-22 01:31:00,54.9,43.0,30.10,NNW,338,6.0,8.0,64,0.00,,---,0.00,0.00,VWS V14.00,2013-01-22 06:31:00,
2013-01-22 01:32:00,54.9,43.0,30.10,NNW,332,7.0,8.0,64,0.00,,---,0.00,0.00,VWS V14.00,2013-01-22 06:32:00,
2013-01-22 01:33:00,54.9,43.0,30.10,NNW,332,6.0,8.0,64,0.00,,---,0.00,0.00,VWS V14.00,2013-01-22 06:33:00,
2013-01-22 01:34:00,54.9,43.0,30.10,NNW,330,5.0,8.0,64,0.00,,---,0.00,0.00,VWS V14.00,2013-01-22 06:34:00,
2013-01-22 01:35:00,54.8,42.5,30.10,North,351,5.0,8.0,63,0.00,,---,0.00,0.00,VWS V14.00,2013-01-22 06:35:00,
2013-01-22 01:36:00,54.8,43.3,30.10,North,350,6.0,8.0,65,0.00,,---,0.00,0.00,VWS V14.00,2013-01-22 06:36:00,
2013-01-22 01:37:00,54.8,43.3,30.10,North,349,7.0,8.0,65,0.00,,---,0.00,0.00,VWS V14.00,2013-01-22 06:37:00,
2013-01-22 01:38:00,54.8,43.3,30.10,North,349,4.0,8.0,65,0.00,,---,0.00,0.00,VWS V14.00,2013-01-22 06:38:00,
2013-01-22 01:39:00,54.8,43.7,30.10,North,349,3.0,8.0,66,0.00,,---,0.00,0.00,VWS V14.00,2013-01-22 06:39:00,
2013-01-22 01:40:00,54.8,43.3,30.10,North,349,6.0,8.0,65,0.00,,---,0.00,0.00,VWS V14.00,2013-01-22 06:40:00,
2013-01-22 01:41:00,54.8,42.5,30.10,North,355,6.0,8.0,63,0.00,,---,0.00,0.00,VWS V14.00,2013-01-22 06:41:00,
2013-01-22 01:42:00,54.7,42.4,30.10,North,355,4.0,8.0,63,0.00,,---,0.00,0.00,VWS V14.00,2013-01-22 06:42:00,
2013-01-22 01:43:00,54.7,42.4,30.10,North,355,5.0,8.0,63,0.00,,---,0.00,0.00,VWS V14.00,2013-01-22 06:43:00,
2013-01-22 01:44:00,54.6,42.7,30.10,North,355,4.0,8.0,64,0.00,,---,0.00,0.00,VWS V14.00,2013-01-22 06:44:00,
2013-01-22 01:45:00,54.6,42.3,30.10,North,355,5.0,8.0,63,0.00,,---,0.00,0.00,VWS V14.00,2013-01-22 06:45:00,
2013-01-22 01:46:00,54.6,42.7,30.10,North,355,5.0,8.0,64,0.00,,---,0.00,0.00,VWS V14.00,2013-01-22 06:46:00,
2013-01-22 01:47:00,54.6,42.7,30.10,North,355,5.0,8.0,64,0.00,,---,0.00,0.00,VWS V14.00,2013-01-22 06:47:00,
2013-01-22 01:48:00,54.6,42.3,30.10,North,1,3.0,8.0,63,0.00,,---,0.00,0.00,VWS V14.00,2013-01-22 06:48:00,
2013-01-22 01:49:00,54.6,42.3,30.10,NNW,333,7.0,9.0,63,0.00,,---,0.00,0.00,VWS V14.00,2013-01-22 06:49:00,
2013-01-22 01:50:00,54.5,42.2,30.10,NNW,342,6.0,9.0,63,0.00,,---,0.00,0.00,VWS V14.00,2013-01-22 06:50:00,
2013-01-22 01:51:00,54.5,42.2,30.10,North,353,4.0,9.0,63,0.00,,---,0.00,0.00,VWS V14.00,2013-01-22 06:51:00,
2013-01-22 01:52:00,54.5,42.2,30.10,North,353,4.0,9.0,63,0.00,,---,0.00,0.00,VWS V14.00,2013-01-22 06:52:00,
2013-01-22 01:53:00,54.5,42.6,30.11,NNW,339,7.0,9.0,64,0.00,,---,0.00,0.00,VWS V14.00,2013-01-22 06:53:00,
2013-01-22 01:54:00,54.5,42.6,30.10,North,4,6.0,9.0,64,0.00,,---,0.00,0.00,VWS V14.00,2013-01-22 06:54:00,
2013-01-22 01:55:00,54.5,42.6,30.10,North,353,6.0,9.0,64,0.00,,---,0.00,0.00,VWS V14.00,2013-01-22 06:55:00,
2013-01-22 01:56:00,54.4,41.7,30.10,North,350,5.0,9.0,62,0.00,,---,0.00,0.00,VWS V14.00,2013-01-22 06:56:00,
2013-01-22 01:57:00,54.4,41.7,30.10,North,350,5.0,9.0,62,0.00,,---,0.00,0.00,VWS V14.00,2013-01-22 06:57:00,
2013-01-22 01:58:00,54.4,42.5,30.10,North,351,7.0,9.0,64,0.00,,---,0.00,0.00,VWS V14.00,2013-01-22 06:58:00,
2013-01-22 01:59:00,54.4,42.5,30.10,North,351,6.0,9.0,64,0.00,,---,0.00,0.00,VWS V14.00,2013-01-22 06:59:00,
2013-01-22 02:00:00,54.4,42.1,30.10,North,352,5.0,9.0,63,0.00,,---,0.00,0.00,VWS V14.00,2013-01-22 07:00:00,
2013-01-22 02:01:00,54.3,42.0,30.10,NNW,339,8.0,9.0,63,0.00,,---,0.00,0.00,VWS V14.00,2013-01-22 07:01:00,
2013-01-22 02:02:00,54.4,42.1,30.10,NNW,341,7.0,9.0,63,0.00,,---,0.00,0.00,VWS V14.00,2013-01-22 07:02:00,
2013-01-22 02:03:00,54.3,42.0,30.11,North,349,6.0,9.0,63,0.00,,---,0.00,0.00,VWS V14.00,2013-01-22 07:03:00,
2013-01-22 02:04:00,54.3,42.4,30.11,North,360,7.0,9.0,64,0.00,,---,0.00,0.00,VWS V14.00,2013-01-22 07:04:00,
2013-01-22 02:05:00,54.3,42.0,30.11,North,353,7.0,9.0,63,0.00,,---,0.00,0.00,VWS V14.00,2013-01-22 07:05:00,
2013-01-22 02:06:00,54.3,42.0,30.11,North,349,7.0,9.0,63,0.00,,---,0.00,0.00,VWS V14.00,2013-01-22 07:06:00,
2013-01-22 02:07:00,54.2,41.9,30.10,NNW,336,5.0,9.0,63,0.00,,---,0.00,0.00,VWS V14.00,2013-01-22 07:07:00,
2013-01-22 02:08:00,54.2,41.9,30.11,North,350,7.0,9.0,63,0.00,,---,0.00,0.00,VWS V14.00,2013-01-22 07:08:00,
2013-01-22 02:09:00,54.2,42.3,30.11,NNW,347,6.0,9.0,64,0.00,,---,0.00,0.00,VWS V14.00,2013-01-22 07:09:00,
2013-01-22 02:10:00,54.1,41.8,30.11,NNW,347,7.0,9.0,63,0.00,,---,0.00,0.00,VWS V14.00,2013-01-22 07:10:00,
2013-01-22 02:11:00,54.1,42.2,30.11,NNW,347,5.0,9.0,64,0.00,,---,0.00,0.00,VWS V14.00,2013-01-22 07:11:00,
2013-01-22 02:12:00,54.1,41.8,30.11,NNW,346,5.0,9.0,63,0.00,,---,0.00,0.00,VWS V14.00,2013-01-22 07:12:00,
2013-01-22 02:13:00,54.1,42.6,30.11,NNW,342,6.0,9.0,65,0.00,,---,0.00,0.00,VWS V14.00,2013-01-22 07:13:00,
2013-01-22 02:14:00,54.0,42.1,30.11,NNW,344,7.0,9.0,64,0.00,,---,0.00,0.00,VWS V14.00,2013-01-22 07:14:00,
2013-01-22 02:15:00,54.1,43.0,30.11,NNW,343,7.0,9.0,66,0.00,,---,0.00,0.00,VWS V14.00,2013-01-22 07:15:00,
2013-01-22 02:16:00,54.1,42.6,30.11,NNW,340,6.0,9.0,65,0.00,,---,0.00,0.00,VWS V14.00,2013-01-22 07:16:00,
2013-01-22 02:17:00,54.0,42.1,30.11,NNW,339,6.0,9.0,64,0.00,,---,0.00,0.00,VWS V14.00,2013-01-22 07:17:00,
2013-01-22 02:18:00,54.0,42.5,30.11,NNW,337,7.0,9.0,65,0.00,,---,0.00,0.00,VWS V14.00,2013-01-22 07:18:00,
2013-01-22 02:19:00,54.0,42.9,30.11,NNW,329,8.0,9.0,66,0.00,,---,0.00,0.00,VWS V14.00,2013-01-22 07:19:00,
2013-01-22 02:20:00,54.0,42.5,30.11,NNW,334,9.0,9.0,65,0.00,,---,0.00,0.00,VWS V14.00,2013-01-22 07:20:00,
2013-01-22 02:21:00,54.0,42.5,30.11,NNW,330,10.0,10.0,65,0.00,,---,0.00,0.00,VWS V14.00,2013-01-22 07:21:00,
2013-01-22 02:22:00,54.0,42.5,30.11,NNW,345,7.0,10.0,65,0.00,,---,0.00,0.00,VWS V14.00,2013-01-22 07:22:00,
2013-01-22 02:23:00,54.0,42.5,30.11,NNW,336,8.0,10.0,65,0.00,,---,0.00,0.00,VWS V14.00,2013-01-22 07:23:00,
2013-01-22 02:24:00,54.1,43.0,30.11,NW,326,8.0,10.0,66,0.00,,---,0.00,0.00,VWS V14.00,2013-01-22 07:24:00,
2013-01-22 02:25:00,54.1,42.6,30.11,NNW,340,8.0,11.0,65,0.00,,---,0.00,0.00,VWS V14.00,2013-01-22 07:25:00,
2013-01-22 02:26:00,54.1,42.6,30.11,NNW,342,9.0,11.0,65,0.00,,---,0.00,0.00,VWS V14.00,2013-01-22 07:26:00,
2013-01-22 02:27:00,54.1,43.0,30.11,NW,322,7.0,11.0,66,0.00,,---,0.00,0.00,VWS V14.00,2013-01-22 07:27:00,
2013-01-22 02:28:00,54.1,43.0,30.11,NNW,338,9.0,11.0,66,0.00,,---,0.00,0.00,VWS V14.00,2013-01-22 07:28:00,
2013-01-22 02:29:00,54.1,42.6,30.11,NW,310,7.0,11.0,65,0.00,,---,0.00,0.00,VWS V14.00,2013-01-22 07:29:00,
2013-01-22 02:30:00,54.1,43.0,30.11,NNW,333,10.0,11.0,66,0.00,,---,0.00,0.00,VWS V14.00,2013-01-22 07:30:00,
2013-01-22 02:31:00,54.1,42.6,30.11,NNW,338,7.0,11.0,65,0.00,,---,0.00,0.00,VWS V14.00,2013-01-22 07:31:00,
2013-01-22 02:32:00,54.1,43.0,30.11,NW,326,8.0,11.0,66,0.00,,---,0.00,0.00,VWS V14.00,2013-01-22 07:32:00,
2013-01-22 02:33:00,54.1,43.8,30.11,NNW,332,10.0,11.0,68,0.00,,---,0.00,0.00,VWS V14.00,2013-01-22 07:33:00,
2013-01-22 02:34:00,54.1,43.0,30.11,NNW,327,12.0,12.0,66,0.00,,---,0.00,0.00,VWS V14.00,2013-01-22 07:34:00,
2013-01-22 02:35:00,54.1,43.0,30.11,NW,323,9.0,12.0,66,0.00,,---,0.00,0.00,VWS V14.00,2013-01-22 07:35:00,
2013-01-22 02:36:00,54.1,43.4,30.11,NNW,335,10.0,12.0,67,0.00,,---,0.00,0.00,VWS V14.00,2013-01-22 07:36:00,
2013-01-22 02:37:00,54.1,42.6,30.11,NNW,339,8.0,12.0,65,0.00,,---,0.00,0.00,VWS V14.00,2013-01-22 07:37:00,
2013-01-22 02:38:00,54.1,42.6,30.11,NNW,329,9.0,12.0,65,0.00,,---,0.00,0.00,VWS V14.00,2013-01-22 07:38:00,
2013-01-22 02:39:00,54.1,42.6,30.11,NNW,336,10.0,12.0,65,0.00,,---,0.00,0.00,VWS V14.00,2013-01-22 07:39:00,
2013-01-22 02:40:00,54.0,42.1,30.11,NNW,335,9.0,12.0,64,0.00,,---,0.00,0.00,VWS V14.00,2013-01-22 07:40:00,
2013-01-22 02:41:00,54.0,42.9,30.11,NNW,334,9.0,12.0,66,0.00,,---,0.00,0.00,VWS V14.00,2013-01-22 07:41:00,
2013-01-22 02:42:00,54.0,42.1,30.11,NNW,330,11.0,12.0,64,0.00,,---,0.00,0.00,VWS V14.00,2013-01-22 07:42:00,
2013-01-22 02:43:00,54.0,41.7,30.11,NNW,336,13.0,15.0,63,0.00,,---,0.00,0.00,VWS V14.00,2013-01-22 07:43:00,
2013-01-22 02:44:00,54.0,42.5,30.11,NNW,347,9.0,15.0,65,0.00,,---,0.00,0.00,VWS V14.00,2013-01-22 07:44:00,
2013-01-22 02:45:00,53.9,41.6,30.11,NNW,341,9.0,15.0,63,0.00,,---,0.00,0.00,VWS V14.00,2013-01-22 07:45:00,
2013-01-22 02:46:00,53.9,41.6,30.11,NNW,330,11.0,15.0,63,0.00,,---,0.00,0.00,VWS V14.00,2013-01-22 07:46:00,
2013-01-22 02:47:00,53.9,42.0,30.11,North,351,9.0,15.0,64,0.00,,---,0.00,0.00,VWS V14.00,2013-01-22 07:47:00,
2013-01-22 02:48:00,53.9,41.2,30.11,NNW,347,9.0,15.0,62,0.00,,---,0.00,0.00,VWS V14.00,2013-01-22 07:48:00,
2013-01-22 02:49:00,53.9,41.6,30.11,NNW,343,12.0,15.0,63,0.00,,---,0.00,0.00,VWS V14.00,2013-01-22 07:49:00,
2013-01-22 02:50:00,53.9,41.6,30.11,NNW,340,10.0,15.0,63,0.00,,---,0.00,0.00,VWS V14.00,2013-01-22 07:50:00,
2013-01-22 02:51:00,53.9,41.6,30.11,NNW,334,15.0,15.0,63,0.00,,---,0.00,0.00,VWS V14.00,2013-01-22 07:51:00,
2013-01-22 02:52:00,53.8,41.1,30.11,North,350,9.0,15.0,62,0.00,,---,0.00,0.00,VWS V14.00,2013-01-22 07:52:00,
2013-01-22 02:53:00,53.8,40.7,30.11,NNW,339,9.0,15.0,61,0.00,,---,0.00,0.00,VWS V14.00,2013-01-22 07:53:00,
2013-01-22 02:54:00,53.8,41.1,30.11,NNW,345,8.0,15.0,62,0.00,,---,0.00,0.00,VWS V14.00,2013-01-22 07:54:00,
2013-01-22 02:55:00,53.8,41.9,30.11,NNW,345,9.0,15.0,64,0.00,,---,0.00,0.00,VWS V14.00,2013-01-22 07:55:00,
2013-01-22 02:56:00,53.7,41.4,30.11,NNW,341,10.0,15.0,63,0.00,,---,0.00,0.00,VWS V14.00,2013-01-22 07:56:00,
2013-01-22 02:57:00,53.7,41.4,30.11,NNW,337,12.0,15.0,63,0.00,,---,0.00,0.00,VWS V14.00,2013-01-22 07:57:00,
2013-01-22 02:58:00,53.7,41.0,30.11,NNW,345,8.0,15.0,62,0.00,,---,0.00,0.00,VWS V14.00,2013-01-22 07:58:00,
2013-01-22 02:59:00,53.7,40.2,30.11,NNW,347,12.0,15.0,60,0.00,,---,0.00,0.00,VWS V14.00,2013-01-22 07:59:00,
2013-01-22 03:00:00,53.6,39.6,30.11,NNW,332,10.0,15.0,59,0.00,,---,0.00,0.00,VWS V14.00,2013-01-22 08:00:00,
2013-01-22 03:01:00,53.6,40.1,30.11,NNW,345,10.0,12.0,60,0.00,,---,0.00,0.00,VWS V14.00,2013-01-22 08:01:00,
2013-01-22 03:02:00,53.5,40.8,30.11,NNW,333,10.0,14.0,62,0.00,,---,0.00,0.00,VWS V14.00,2013-01-22 08:02:00,
2013-01-22 03:03:00,53.5,40.4,30.11,NW,326,11.0,14.0,61,0.00,,---,0.00,0.00,VWS V14.00,2013-01-22 08:03:00,
2013-01-22 03:04:00,53.4,40.3,30.11,North,360,12.0,14.0,61,0.00,,---,0.00,0.00,VWS V14.00,2013-01-22 08:04:00,
2013-01-22 03:05:00,53.4,40.3,30.11,North,350,9.0,14.0,61,0.00,,---,0.00,0.00,VWS V14.00,2013-01-22 08:05:00,
2013-01-22 03:06:00,53.4,40.7,30.10,NNW,345,8.0,14.0,62,0.00,,---,0.00,0.00,VWS V14.00,2013-01-22 08:06:00,
2013-01-22 03:07:00,53.3,40.6,30.11,North,349,8.0,14.0,62,0.00,,---,0.00,0.00,VWS V14.00,2013-01-22 08:07:00,
2013-01-22 03:08:00,53.3,40.2,30.10,NNW,347,7.0,14.0,61,0.00,,---,0.00,0.00,VWS V14.00,2013-01-22 08:08:00,
2013-01-22 03:09:00,53.3,41.5,30.10,NNW,346,11.0,14.0,64,0.00,,---,0.00,0.00,VWS V14.00,2013-01-22 08:09:00,
2013-01-22 03:10:00,53.3,40.2,30.10,North,353,8.0,14.0,61,0.00,,---,0.00,0.00,VWS V14.00,2013-01-22 08:10:00,
2013-01-22 03:11:00,53.3,40.2,30.10,NNW,348,8.0,14.0,61,0.00,,---,0.00,0.00,VWS V14.00,2013-01-22 08:11:00,
2013-01-22 03:12:00,53.3,41.5,30.10,North,357,6.0,14.0,64,0.00,,---,0.00,0.00,VWS V14.00,2013-01-22 08:12:00,
2013-01-22 03:13:00,53.2,40.5,30.10,North,2,9.0,14.0,62,0.00,,---,0.00,0.00,VWS V14.00,2013-01-22 08:13:00,
2013-01-22 03:14:00,53.2,40.1,30.10,NNW,345,8.0,14.0,61,0.00,,---,0.00,0.00,VWS V14.00,2013-01-22 08:14:00,
2013-01-22 03:15:00,53.1,40.4,30.10,NNW,345,8.0,14.0,62,0.00,,---,0.00,0.00,VWS V14.00,2013-01-22 08:15:00,
2013-01-22 03:16:00,53.1,40.4,30.10,North,357,9.0,14.0,62,0.00,,---,0.00,0.00,VWS V14.00,2013-01-22 08:16:00,
2013-01-22 03:17:00,53.0,39.9,30.10,North,353,9.0,14.0,61,0.00,,---,0.00,0.00,VWS V14.00,2013-01-22 08:17:00,
2013-01-22 03:18:00,52.9,40.2,30.10,North,352,7.0,14.0,62,0.00,,---,0.00,0.00,VWS V14.00,2013-01-22 08:18:00,
2013-01-22 03:19:00,52.9,39.8,30.10,NNW,347,9.0,14.0,61,0.00,,---,0.00,0.00,VWS V14.00,2013-01-22 08:19:00,
2013-01-22 03:20:00,52.8,39.7,30.11,North,353,7.0,14.0,61,0.00,,---,0.00,0.00,VWS V14.00,2013-01-22 08:20:00,
2013-01-22 03:21:00,52.8,39.7,30.11,NNW,345,10.0,14.0,61,0.00,,---,0.00,0.00,VWS V14.00,2013-01-22 08:21:00,
2013-01-22 03:22:00,52.7,39.6,30.11,NNW,343,6.0,14.0,61,0.00,,---,0.00,0.00,VWS V14.00,2013-01-22 08:22:00,
2013-01-22 03:23:00,52.7,40.1,30.11,North,355,7.0,14.0,62,0.00,,---,0.00,0.00,VWS V14.00,2013-01-22 08:23:00,
2013-01-22 03:24:00,52.6,40.0,30.11,NNW,345,7.0,14.0,62,0.00,,---,0.00,0.00,VWS V14.00,2013-01-22 08:24:00,
2013-01-22 03:25:00,52.6,40.4,30.11,North,4,8.0,14.0,63,0.00,,---,0.00,0.00,VWS V14.00,2013-01-22 08:25:00,
2013-01-22 03:26:00,52.6,40.8,30.10,North,351,8.0,14.0,64,0.00,,---,0.00,0.00,VWS V14.00,2013-01-22 08:26:00,
2013-01-22 03:27:00,52.6,40.0,30.10,North,358,9.0,14.0,62,0.00,,---,0.00,0.00,VWS V14.00,2013-01-22 08:27:00,
2013-01-22 03:28:00,52.5,40.3,30.11,North,350,6.0,14.0,63,0.00,,---,0.00,0.00,VWS V14.00,2013-01-22 08:28:00,
2013-01-22 03:29:00,52.5,40.7,30.10,NNW,346,8.0,14.0,64,0.00,,---,0.00,0.00,VWS V14.00,2013-01-22 08:29:00,
2013-01-22 03:30:00,52.5,40.3,30.11,NNW,345,8.0,14.0,63,0.00,,---,0.00,0.00,VWS V14.00,2013-01-22 08:30:00,
2013-01-22 03:31:00,52.5,39.9,30.11,NNW,347,7.0,9.0,62,0.00,,---,0.00,0.00,VWS V14.00,2013-01-22 08:31:00,
2013-01-22 03:32:00,52.4,39.8,30.11,North,6,8.0,9.0,62,0.00,,---,0.00,0.00,VWS V14.00,2013-01-22 08:32:00,
2013-01-22 03:33:00,52.4,40.2,30.11,NNW,346,6.0,11.0,63,0.00,,---,0.00,0.00,VWS V14.00,2013-01-22 08:33:00,
2013-01-22 03:34:00,52.3,39.7,30.11,NNW,348,7.0,11.0,62,0.00,,---,0.00,0.00,VWS V14.00,2013-01-22 08:34:00,
2013-01-22 03:35:00,52.3,39.7,30.11,NNW,347,7.0,11.0,62,0.00,,---,0.00,0.00,VWS V14.00,2013-01-22 08:35:00,
2013-01-22 03:36:00,52.2,39.6,30.11,NNW,347,10.0,11.0,62,0.00,,---,0.00,0.00,VWS V14.00,2013-01-22 08:36:00,
2013-01-22 03:37:00,52.2,39.2,30.11,North,349,6.0,11.0,61,0.00,,---,0.00,0.00,VWS V14.00,2013-01-22 08:37:00,
2013-01-22 03:38:00,52.1,39.9,30.11,North,354,7.0,11.0,63,0.00,,---,0.00,0.00,VWS V14.00,2013-01-22 08:38:00,
2013-01-22 03:39:00,52.1,39.5,30.11,NNW,335,9.0,11.0,62,0.00,,---,0.00,0.00,VWS V14.00,2013-01-22 08:39:00,
2013-01-22 03:40:00,52.1,39.9,30.11,NNW,340,8.0,11.0,63,0.00,,---,0.00,0.00,VWS V14.00,2013-01-22 08:40:00,
2013-01-22 03:41:00,52.1,39.5,30.11,NNW,345,8.0,11.0,62,0.00,,---,0.00,0.00,VWS V14.00,2013-01-22 08:41:00,
2013-01-22 03:42:00,52.1,39.9,30.11,North,358,9.0,11.0,63,0.00,,---,0.00,0.00,VWS V14.00,2013-01-22 08:42:00,
2013-01-22 03:43:00,52.1,40.3,30.11,NNW,346,6.0,11.0,64,0.00,,---,0.00,0.00,VWS V14.00,2013-01-22 08:43:00,
2013-01-22 03:44:00,52.0,39.8,30.11,NNW,345,6.0,11.0,63,0.00,,---,0.00,0.00,VWS V14.00,2013-01-22 08:44:00,
2013-01-22 03:45:00,52.0,39.8,30.11,NNW,331,11.0,11.0,63,0.00,,---,0.00,0.00,VWS V14.00,2013-01-22 08:45:00,
2013-01-22 03:46:00,52.0,40.2,30.11,NW,324,9.0,11.0,64,0.00,,---,0.00,0.00,VWS V14.00,2013-01-22 08:46:00,
2013-01-22 03:47:00,52.0,40.6,30.11,North,2,8.0,11.0,65,0.00,,---,0.00,0.00,VWS V14.00,2013-01-22 08:47:00,
2013-01-22 03:48:00,52.0,39.8,30.11,North,355,8.0,11.0,63,0.00,,---,0.00,0.00,VWS V14.00,2013-01-22 08:48:00,
2013-01-22 03:49:00,51.9,39.7,30.11,NNW,345,7.0,11.0,63,0.00,,---,0.00,0.00,VWS V14.00,2013-01-22 08:49:00,
2013-01-22 03:50:00,51.9,40.1,30.11,North,4,6.0,11.0,64,0.00,,---,0.00,0.00,VWS V14.00,2013-01-22 08:50:00,
2013-01-22 03:51:00,51.9,40.1,30.11,NNW,343,6.0,11.0,64,0.00,,---,0.00,0.00,VWS V14.00,2013-01-22 08:51:00,
2013-01-22 03:52:00,51.9,40.5,30.11,North,359,6.0,11.0,65,0.00,,---,0.00,0.00,VWS V14.00,2013-01-22 08:52:00,
2013-01-22 03:53:00,51.8,39.6,30.11,NNW,333,7.0,11.0,63,0.00,,---,0.00,0.00,VWS V14.00,2013-01-22 08:53:00,
2013-01-22 03:54:00,51.8,40.4,30.11,North,355,6.0,11.0,65,0.00,,---,0.00,0.00,VWS V14.00,2013-01-22 08:54:00,
2013-01-22 03:55:00,51.8,40.0,30.11,NNW,336,10.0,11.0,64,0.00,,---,0.00,0.00,VWS V14.00,2013-01-22 08:55:00,
2013-01-22 03:56:00,51.7,39.5,30.11,North,354,7.0,12.0,63,0.00,,---,0.00,0.00,VWS V14.00,2013-01-22 08:56:00,
2013-01-22 03:57:00,51.7,40.3,30.11,NNW,337,6.0,12.0,65,0.00,,---,0.00,0.00,VWS V14.00,2013-01-22 08:57:00,
2013-01-22 03:58:00,51.7,39.9,30.11,North,358,7.0,12.0,64,0.00,,---,0.00,0.00,VWS V14.00,2013-01-22 08:58:00,
2013-01-22 03:59:00,51.7,40.3,30.11,NNW,337,8.0,12.0,65,0.00,,---,0.00,0.00,VWS V14.00,2013-01-22 08:59:00,
2013-01-22 04:00:00,51.6,39.8,30.11,NNW,340,6.0,12.0,64,0.00,,---,0.00,0.00,VWS V14.00,2013-01-22 09:00:00,
2013-01-22 04:01:00,51.6,39.8,30.11,North,359,9.0,9.0,64,0.00,,---,0.00,0.00,VWS V14.00,2013-01-22 09:01:00,
2013-01-22 04:02:00,51.6,39.8,30.11,North,351,8.0,10.0,64,0.00,,---,0.00,0.00,VWS V14.00,2013-01-22 09:02:00,
2013-01-22 04:03:00,51.5,39.3,30.11,North,357,7.0,10.0,63,0.00,,---,0.00,0.00,VWS V14.00,2013-01-22 09:03:00,
2013-01-22 04:04:00,51.5,39.7,30.11,NNW,343,7.0,10.0,64,0.00,,---,0.00,0.00,VWS V14.00,2013-01-22 09:04:00,
2013-01-22 04:05:00,51.4,39.7,30.11,North,351,6.0,10.0,64,0.00,,---,0.00,0.00,VWS V14.00,2013-01-22 09:05:00,
2013-01-22 04:06:00,51.4,40.4,30.11,North,2,9.0,10.0,66,0.00,,---,0.00,0.00,VWS V14.00,2013-01-22 09:06:00,
2013-01-22 04:07:00,51.4,39.7,30.11,NNW,341,8.0,10.0,64,0.00,,---,0.00,0.00,VWS V14.00,2013-01-22 09:07:00,
2013-01-22 04:08:00,51.4,39.7,30.11,North,350,7.0,11.0,64,0.00,,---,0.00,0.00,VWS V14.00,2013-01-22 09:08:00,
2013-01-22 04:09:00,51.3,39.2,30.11,NNW,341,9.0,11.0,63,0.00,,---,0.00,0.00,VWS V14.00,2013-01-22 09:09:00,
2013-01-22 04:10:00,51.3,39.5,30.11,NNW,342,7.0,11.0,64,0.00,,---,0.00,0.00,VWS V14.00,2013-01-22 09:10:00,
2013-01-22 04:11:00,51.3,39.5,30.11,NNW,341,8.0,11.0,64,0.00,,---,0.00,0.00,VWS V14.00,2013-01-22 09:11:00,
2013-01-22 04:12:00,51.3,39.2,30.11,North,355,9.0,12.0,63,0.00,,---,0.00,0.00,VWS V14.00,2013-01-22 09:12:00,
2013-01-22 04:13:00,51.3,39.5,30.11,NNW,332,10.0,12.0,64,0.00,,---,0.00,0.00,VWS V14.00,2013-01-22 09:13:00,
2013-01-22 04:14:00,51.3,40.0,30.11,NNW,347,8.0,12.0,65,0.00,,---,0.00,0.00,VWS V14.00,2013-01-22 09:14:00,
2013-01-22 04:15:00,51.3,39.5,30.11,North,349,8.0,12.0,64,0.00,,---,0.00,0.00,VWS V14.00,2013-01-22 09:15:00,
2013-01-22 04:16:00,51.2,39.5,30.11,NNW,346,11.0,12.0,64,0.00,,---,0.00,0.00,VWS V14.00,2013-01-22 09:16:00,
2013-01-22 04:17:00,51.2,39.5,30.11,NNW,347,7.0,12.0,64,0.00,,---,0.00,0.00,VWS V14.00,2013-01-22 09:17:00,
2013-01-22 04:18:00,51.2,39.8,30.11,NNW,338,8.0,12.0,65,0.00,,---,0.00,0.00,VWS V14.00,2013-01-22 09:18:00,
2013-01-22 04:19:00,51.1,39.4,30.11,North,353,7.0,12.0,64,0.00,,---,0.00,0.00,VWS V14.00,2013-01-22 09:19:00,
2013-01-22 04:20:00,51.1,39.0,30.11,North,353,8.0,12.0,63,0.00,,---,0.00,0.00,VWS V14.00,2013-01-22 09:20:00,
2013-01-22 04:21:00,51.1,39.4,30.11,NNW,334,9.0,12.0,64,0.00,,---,0.00,0.00,VWS V14.00,2013-01-22 09:21:00,
2013-01-22 04:22:00,51.0,39.7,30.11,NNW,343,7.0,12.0,65,0.00,,---,0.00,0.00,VWS V14.00,2013-01-22 09:22:00,
2013-01-22 04:23:00,51.0,39.3,30.11,North,358,8.0,12.0,64,0.00,,---,0.00,0.00,VWS V14.00,2013-01-22 09:23:00,
2013-01-22 04:24:00,51.0,39.7,30.11,North,353,7.0,12.0,65,0.00,,---,0.00,0.00,VWS V14.00,2013-01-22 09:24:00,
2013-01-22 04:25:00,51.0,39.3,30.11,North,350,5.0,12.0,64,0.00,,---,0.00,0.00,VWS V14.00,2013-01-22 09:25:00,
2013-01-22 04:26:00,51.0,39.7,30.11,NNW,337,7.0,12.0,65,0.00,,---,0.00,0.00,VWS V14.00,2013-01-22 09:26:00,
2013-01-22 04:27:00,50.9,39.6,30.11,NNW,341,6.0,12.0,65,0.00,,---,0.00,0.00,VWS V14.00,2013-01-22 09:27:00,
2013-01-22 04:28:00,50.9,39.2,30.12,NNW,339,8.0,12.0,64,0.00,,---,0.00,0.00,VWS V14.00,2013-01-22 09:28:00,
2013-01-22 04:29:00,50.9,39.6,30.12,NNW,340,8.0,12.0,65,0.00,,---,0.00,0.00,VWS V14.00,2013-01-22 09:29:00,
2013-01-22 04:30:00,50.8,39.5,30.12,North,352,9.0,12.0,65,0.00,,---,0.00,0.00,VWS V14.00,2013-01-22 09:30:00,
2013-01-22 04:31:00,50.8,39.5,30.12,NNW,339,8.0,9.0,65,0.00,,---,0.00,0.00,VWS V14.00,2013-01-22 09:31:00,
2013-01-22 04:32:00,50.7,39.4,30.12,NNW,342,7.0,9.0,65,0.00,,---,0.00,0.00,VWS V14.00,2013-01-22 09:32:00,
2013-01-22 04:33:00,50.7,39.4,30.12,NNW,342,7.0,9.0,65,0.00,,---,0.00,0.00,VWS V14.00,2013-01-22 09:33:00,
2013-01-22 04:34:00,50.7,40.5,30.12,NNW,334,6.0,9.0,68,0.00,,---,0.00,0.00,VWS V14.00,2013-01-22 09:34:00,
2013-01-22 04:35:00,50.8,40.2,30.12,NNW,335,7.0,9.0,67,0.00,,---,0.00,0.00,VWS V14.00,2013-01-22 09:35:00,
2013-01-22 04:36:00,50.8,40.6,30.12,North,1,8.0,9.0,68,0.00,,---,0.00,0.00,VWS V14.00,2013-01-22 09:36:00,
2013-01-22 04:37:00,50.7,40.2,30.12,North,355,8.0,9.0,67,0.00,,---,0.00,0.00,VWS V14.00,2013-01-22 09:37:00,
2013-01-22 04:38:00,50.6,39.7,30.12,NNW,345,5.0,9.0,66,0.00,,---,0.00,0.00,VWS V14.00,2013-01-22 09:38:00,
2013-01-22 04:39:00,50.6,40.1,30.12,North,349,8.0,9.0,67,0.00,,---,0.00,0.00,VWS V14.00,2013-01-22 09:39:00,
2013-01-22 04:40:00,50.6,39.7,30.12,North,354,6.0,9.0,66,0.00,,---,0.00,0.00,VWS V14.00,2013-01-22 09:40:00,
2013-01-22 04:41:00,50.5,40.0,30.12,NNW,336,9.0,9.0,67,0.00,,---,0.00,0.00,VWS V14.00,2013-01-22 09:41:00,
2013-01-22 04:42:00,50.5,40.3,30.12,North,353,8.0,10.0,68,0.00,,---,0.00,0.00,VWS V14.00,2013-01-22 09:42:00,
2013-01-22 04:43:00,50.5,39.6,30.12,NNW,334,12.0,12.0,66,0.00,,---,0.00,0.00,VWS V14.00,2013-01-22 09:43:00,
2013-01-22 04:44:00,50.4,39.9,30.13,North,349,8.0,13.0,67,0.00,,---,0.00,0.00,VWS V14.00,2013-01-22 09:44:00,
2013-01-22 04:45:00,50.4,39.5,30.13,North,353,10.0,13.0,66,0.00,,---,0.00,0.00,VWS V14.00,2013-01-22 09:45:00,
2013-01-22 04:46:00,50.3,39.4,30.13,NNW,343,9.0,13.0,66,0.00,,---,0.00,0.00,VWS V14.00,2013-01-22 09:46:00,
2013-01-22 04:47:00,50.3,39.8,30.13,NNW,335,9.0,13.0,67,0.00,,---,0.00,0.00,VWS V14.00,2013-01-22 09:47:00,
2013-01-22 04:48:00,50.3,40.2,30.13,NNW,336,9.0,13.0,68,0.00,,---,0.00,0.00,VWS V14.00,2013-01-22 09:48:00,
2013-01-22 04:49:00,50.3,40.2,30.13,NNW,341,7.0,13.0,68,0.00,,---,0.00,0.00,VWS V14.00,2013-01-22 09:49:00,
2013-01-22 04:50:00,50.2,39.3,30.13,North,351,7.0,13.0,66,0.00,,---,0.00,0.00,VWS V14.00,2013-01-22 09:50:00,
2013-01-22 04:51:00,50.2,40.1,30.13,NNW,337,7.0,13.0,68,0.00,,---,0.00,0.00,VWS V14.00,2013-01-22 09:51:00,
2013-01-22 04:52:00,50.2,40.1,30.13,NNW,335,6.0,13.0,68,0.00,,---,0.00,0.00,VWS V14.00,2013-01-22 09:52:00,
2013-01-22 04:53:00,50.2,40.1,30.13,NNW,343,8.0,13.0,68,0.00,,---,0.00,0.00,VWS V14.00,2013-01-22 09:53:00,
2013-01-22 04:54:00,50.2,40.1,30.13,NNW,342,6.0,13.0,68,0.00,,---,0.00,0.00,VWS V14.00,2013-01-22 09:54:00,
2013-01-22 04:55:00,50.1,40.0,30.13,North,351,6.0,13.0,68,0.00,,---,0.00,0.00,VWS V14.00,2013-01-22 09:55:00,
2013-01-22 04:56:00,50.1,40.3,30.13,NNW,346,6.0,13.0,69,0.00,,---,0.00,0.00,VWS V14.00,2013-01-22 09:56:00,
2013-01-22 04:57:00,50.1,40.0,30.13,NNW,337,9.0,13.0,68,0.00,,---,0.00,0.00,VWS V14.00,2013-01-22 09:57:00,
2013-01-22 04:58:00,50.1,40.3,30.13,NNW,340,6.0,13.0,69,0.00,,---,0.00,0.00,VWS V14.00,2013-01-22 09:58:00,
2013-01-22 04:59:00,50.1,40.3,30.13,NNW,335,9.0,13.0,69,0.00,,---,0.00,0.00,VWS V14.00,2013-01-22 09:59:00,
2013-01-22 05:00:00,50.0,40.6,30.13,NNW,340,7.0,13.0,70,0.00,,---,0.00,0.00,VWS V14.00,2013-01-22 10:00:00,
2013-01-22 05:01:00,50.0,39.9,30.13,NNW,341,9.0,9.0,68,0.00,,---,0.00,0.00,VWS V14.00,2013-01-22 10:01:00,
2013-01-22 05:02:00,49.9,39.8,30.13,NNW,336,8.0,9.0,68,0.00,,---,0.00,0.00,VWS V14.00,2013-01-22 10:02:00,
2013-01-22 05:03:00,49.9,40.2,30.13,NNW,343,7.0,10.0,69,0.00,,---,0.00,0.00,VWS V14.00,2013-01-22 10:03:00,
2013-01-22 05:04:00,49.8,40.4,30.13,NNW,347,8.0,10.0,70,0.00,,---,0.00,0.00,VWS V14.00,2013-01-22 10:04:00,
2013-01-22 05:05:00,49.8,39.7,30.13,NNW,334,8.0,10.0,68,0.00,,---,0.00,0.00,VWS V14.00,2013-01-22 10:05:00,
2013-01-22 05:06:00,49.7,40.0,30.13,NNW,333,9.0,11.0,69,0.00,,---,0.00,0.00,VWS V14.00,2013-01-22 10:06:00,
2013-01-22 05:07:00,49.7,40.0,30.14,North,353,8.0,11.0,69,0.00,,---,0.00,0.00,VWS V14.00,2013-01-22 10:07:00,
2013-01-22 05:08:00,49.7,39.6,30.13,NNW,347,9.0,11.0,68,0.00,,---,0.00,0.00,VWS V14.00,2013-01-22 10:08:00,
2013-01-22 05:09:00,49.6,39.5,30.13,North,360,8.0,11.0,68,0.00,,---,0.00,0.00,VWS V14.00,2013-01-22 10:09:00,
2013-01-22 05:10:00,49.6,39.9,30.14,NNW,343,6.0,11.0,69,0.00,,---,0.00,0.00,VWS V14.00,2013-01-22 10:10:00,
2013-01-22 05:11:00,49.6,40.2,30.14,North,352,8.0,11.0,70,0.00,,---,0.00,0.00,VWS V14.00,2013-01-22 10:11:00,
2013-01-22 05:12:00,49.6,39.9,30.14,North,358,10.0,11.0,69,0.00,,---,0.00,0.00,VWS V14.00,2013-01-22 10:12:00,
2013-01-22 05:13:00,49.6,39.5,30.14,NNW,335,11.0,11.0,68,0.00,,---,0.00,0.00,VWS V14.00,2013-01-22 10:13:00,
2013-01-22 05:14:00,49.5,39.4,30.14,North,349,9.0,14.0,68,0.00,,---,0.00,0.00,VWS V14.00,2013-01-22 10:14:00,
2013-01-22 05:15:00,49.4,38.9,30.14,North,351,9.0,14.0,67,0.00,,---,0.00,0.00,VWS V14.00,2013-01-22 10:15:00,
2013-01-22 05:16:00,49.4,40.0,30.14,North,350,7.0,14.0,70,0.00,,---,0.00,0.00,VWS V14.00,2013-01-22 10:16:00,
2013-01-22 05:17:00,49.4,39.3,30.14,North,354,8.0,14.0,68,0.00,,---,0.00,0.00,VWS V14.00,2013-01-22 10:17:00,
2013-01-22 05:18:00,49.4,39.3,30.14,NNW,328,10.0,14.0,68,0.00,,---,0.00,0.00,VWS V14.00,2013-01-22 10:18:00,
2013-01-22 05:19:00,49.4,39.3,30.14,North,351,8.0,14.0,68,0.00,,---,0.00,0.00,VWS V14.00,2013-01-22 10:19:00,
2013-01-22 05:20:00,49.4,39.7,30.15,North,358,9.0,14.0,69,0.00,,---,0.00,0.00,VWS V14.00,2013-01-22 10:20:00,
2013-01-22 05:21:00,49.3,39.6,30.15,NNW,347,8.0,14.0,69,0.00,,---,0.00,0.00,VWS V14.00,2013-01-22 10:21:00,
2013-01-22 05:22:00,49.3,39.2,30.15,NNW,343,9.0,14.0,68,0.00,,---,0.00,0.00,VWS V14.00,2013-01-22 10:22:00,
2013-01-22 05:23:00,49.2,38.7,30.15,North,353,8.0,14.0,67,0.00,,---,0.00,0.00,VWS V14.00,2013-01-22 10:23:00,
2013-01-22 05:24:00,49.2,38.7,30.15,North,352,7.0,14.0,67,0.00,,---,0.00,0.00,VWS V14.00,2013-01-22 10:24:00,
2013-01-22 05:25:00,49.2,38.7,30.15,North,352,7.0,14.0,67,0.00,,---,0.00,0.00,VWS V14.00,2013-01-22 10:25:00,
2013-01-22 05:26:00,49.1,39.0,30.15,NNW,346,7.0,14.0,68,0.00,,---,0.00,0.00,VWS V14.00,2013-01-22 10:26:00,
2013-01-22 05:27:00,49.0,38.5,30.15,NNW,339,9.0,14.0,67,0.00,,---,0.00,0.00,VWS V14.00,2013-01-22 10:27:00,
2013-01-22 05:28:00,49.0,38.5,30.15,NNE,13,8.0,14.0,67,0.00,,---,0.00,0.00,VWS V14.00,2013-01-22 10:28:00,
2013-01-22 05:29:00,48.9,38.8,30.15,North,355,9.0,14.0,68,0.00,,---,0.00,0.00,VWS V14.00,2013-01-22 10:29:00,
2013-01-22 05:30:00,48.9,38.8,30.15,NNW,347,8.0,14.0,68,0.00,,---,0.00,0.00,VWS V14.00,2013-01-22 10:30:00,
2013-01-22 05:31:00,48.9,39.2,30.14,North,353,7.0,9.0,69,0.00,,---,0.00,0.00,VWS V14.00,2013-01-22 10:31:00,
2013-01-22 05:32:00,48.8,38.7,30.15,North,2,10.0,11.0,68,0.00,,---,0.00,0.00,VWS V14.00,2013-01-22 10:32:00,
2013-01-22 05:33:00,48.8,38.3,30.15,North,353,8.0,11.0,67,0.00,,---,0.00,0.00,VWS V14.00,2013-01-22 10:33:00,
2013-01-22 05:34:00,48.7,37.9,30.15,NNW,341,10.0,13.0,66,0.00,,---,0.00,0.00,VWS V14.00,2013-01-22 10:34:00,
2013-01-22 05:35:00,48.7,38.2,30.15,North,349,9.0,13.0,67,0.00,,---,0.00,0.00,VWS V14.00,2013-01-22 10:35:00,
2013-01-22 05:36:00,48.6,38.2,30.15,North,349,7.0,13.0,67,0.00,,---,0.00,0.00,VWS V14.00,2013-01-22 10:36:00,
2013-01-22 05:37:00,48.6,38.5,30.15,NNW,346,9.0,13.0,68,0.00,,---,0.00,0.00,VWS V14.00,2013-01-22 10:37:00,
2013-01-22 05:38:00,48.5,37.7,30.15,North,349,9.0,13.0,66,0.00,,---,0.00,0.00,VWS V14.00,2013-01-22 10:38:00,
2013-01-22 05:39:00,48.5,37.7,30.15,NNW,342,8.0,13.0,66,0.00,,---,0.00,0.00,VWS V14.00,2013-01-22 10:39:00,
2013-01-22 05:40:00,48.4,38.0,30.15,NNW,343,10.0,13.0,67,0.00,,---,0.00,0.00,VWS V14.00,2013-01-22 10:40:00,
2013-01-22 05:41:00,48.4,38.0,30.15,NNW,344,6.0,13.0,67,0.00,,---,0.00,0.00,VWS V14.00,2013-01-22 10:41:00,
2013-01-22 05:42:00,48.4,38.0,30.15,NNW,343,9.0,13.0,67,0.00,,---,0.00,0.00,VWS V14.00,2013-01-22 10:42:00,
2013-01-22 05:43:00,48.3,37.9,30.15,NNW,333,11.0,13.0,67,0.00,,---,0.00,0.00,VWS V14.00,2013-01-22 10:43:00,
2013-01-22 05:44:00,48.3,37.9,30.15,NNW,341,10.0,13.0,67,0.00,,---,0.00,0.00,VWS V14.00,2013-01-22 10:44:00,
2013-01-22 05:45:00,48.2,37.4,30.15,North,353,8.0,13.0,66,0.00,,---,0.00,0.00,VWS V14.00,2013-01-22 10:45:00,
2013-01-22 05:46:00,48.2,37.8,30.16,NNW,348,7.0,13.0,67,0.00,,---,0.00,0.00,VWS V14.00,2013-01-22 10:46:00,
2013-01-22 05:47:00,48.2,37.4,30.16,NNW,346,9.0,13.0,66,0.00,,---,0.00,0.00,VWS V14.00,2013-01-22 10:47:00,
2013-01-22 05:48:00,48.1,37.7,30.16,North,353,10.0,13.0,67,0.00,,---,0.00,0.00,VWS V14.00,2013-01-22 10:48:00,
2013-01-22 05:49:00,48.2,37.8,30.16,North,352,6.0,13.0,67,0.00,,---,0.00,0.00,VWS V14.00,2013-01-22 10:49:00,
2013-01-22 05:50:00,48.2,38.2,30.16,NNW,340,7.0,13.0,68,0.00,,---,0.00,0.00,VWS V14.00,2013-01-22 10:50:00,
2013-01-22 05:51:00,48.2,38.2,30.16,NNW,339,13.0,13.0,68,0.00,,---,0.00,0.00,VWS V14.00,2013-01-22 10:51:00,
2013-01-22 05:52:00,48.2,37.8,30.16,North,351,8.0,13.0,67,0.00,,---,0.00,0.00,VWS V14.00,2013-01-22 10:52:00,
2013-01-22 05:53:00,48.2,38.2,30.16,North,349,9.0,13.0,68,0.00,,---,0.00,0.00,VWS V14.00,2013-01-22 10:53:00,
2013-01-22 05:54:00,48.1,37.7,30.16,North,360,7.0,13.0,67,0.00,,---,0.00,0.00,VWS V14.00,2013-01-22 10:54:00,
2013-01-22 05:55:00,48.1,38.0,30.16,NNW,344,8.0,13.0,68,0.00,,---,0.00,0.00,VWS V14.00,2013-01-22 10:55:00,
2013-01-22 05:56:00,48.1,38.0,30.16,NNW,341,9.0,13.0,68,0.00,,---,0.00,0.00,VWS V14.00,2013-01-22 10:56:00,
2013-01-22 05:57:00,48.1,38.0,30.16,NNW,336,8.0,13.0,68,0.00,,---,0.00,0.00,VWS V14.00,2013-01-22 10:57:00,
2013-01-22 05:58:00,48.0,38.0,30.16,NNW,345,8.0,13.0,68,0.00,,---,0.00,0.00,VWS V14.00,2013-01-22 10:58:00,
2013-01-22 05:59:00,48.0,38.0,30.16,NNW,341,11.0,14.0,68,0.00,,---,0.00,0.00,VWS V14.00,2013-01-22 10:59:00,
2013-01-22 06:00:00,47.9,37.5,30.16,North,7,8.0,14.0,67,0.00,,---,0.00,0.00,VWS V14.00,2013-01-22 11:00:00,
2013-01-22 06:01:00,47.9,37.5,30.16,North,357,6.0,9.0,67,0.00,,---,0.00,0.00,VWS V14.00,2013-01-22 11:01:00,
2013-01-22 06:02:00,47.8,37.4,30.16,NNW,346,12.0,12.0,67,0.00,,---,0.00,0.00,VWS V14.00,2013-01-22 11:02:00,
2013-01-22 06:03:00,47.7,36.9,30.17,NNW,343,8.0,12.0,66,0.00,,---,0.00,0.00,VWS V14.00,2013-01-22 11:03:00,
2013-01-22 06:04:00,47.7,37.3,30.17,NNW,345,7.0,12.0,67,0.00,,---,0.00,0.00,VWS V14.00,2013-01-22 11:04:00,
2013-01-22 06:05:00,47.7,37.7,30.17,NNW,335,12.0,12.0,68,0.00,,---,0.00,0.00,VWS V14.00,2013-01-22 11:05:00,
2013-01-22 06:06:00,47.7,38.4,30.17,NNW,338,8.0,12.0,70,0.00,,---,0.00,0.00,VWS V14.00,2013-01-22 11:06:00,
2013-01-22 06:07:00,47.7,38.0,30.17,North,351,8.0,12.0,69,0.00,,---,0.00,0.00,VWS V14.00,2013-01-22 11:07:00,
2013-01-22 06:08:00,47.7,37.7,30.17,NNW,328,11.0,12.0,68,0.00,,---,0.00,0.00,VWS V14.00,2013-01-22 11:08:00,
2013-01-22 06:09:00,47.7,37.3,30.17,NNW,343,8.0,12.0,67,0.00,,---,0.00,0.00,VWS V14.00,2013-01-22 11:09:00,
2013-01-22 06:10:00,47.6,37.6,30.17,North,1,6.0,13.0,68,0.00,,---,0.00,0.00,VWS V14.00,2013-01-22 11:10:00,
2013-01-22 06:11:00,47.6,37.2,30.17,NNW,341,11.0,13.0,67,0.00,,---,0.00,0.00,VWS V14.00,2013-01-22 11:11:00,
2013-01-22 06:12:00,47.6,37.2,30.17,North,351,9.0,13.0,67,0.00,,---,0.00,0.00,VWS V14.00,2013-01-22 11:12:00,
2013-01-22 06:13:00,47.6,37.6,30.17,NNW,342,8.0,13.0,68,0.00,,---,0.00,0.00,VWS V14.00,2013-01-22 11:13:00,
2013-01-22 06:14:00,47.5,37.1,30.17,NNW,343,7.0,13.0,67,0.00,,---,0.00,0.00,VWS V14.00,2013-01-22 11:14:00,
2013-01-22 06:15:00,47.5,37.1,30.17,NNW,345,8.0,13.0,67,0.00,,---,0.00,0.00,VWS V14.00,2013-01-22 11:15:00,
2013-01-22 06:16:00,47.5,36.7,30.17,NNW,332,10.0,13.0,66,0.00,,---,0.00,0.00,VWS V14.00,2013-01-22 11:16:00,
2013-01-22 06:17:00,47.4,37.0,30.17,NNW,338,7.0,13.0,67,0.00,,---,0.00,0.00,VWS V14.00,2013-01-22 11:17:00,
2013-01-22 06:18:00,47.4,37.0,30.17,NNW,343,9.0,13.0,67,0.00,,---,0.00,0.00,VWS V14.00,2013-01-22 11:18:00,
2013-01-22 06:19:00,47.4,36.6,30.17,North,350,10.0,13.0,66,0.00,,---,0.00,0.00,VWS V14.00,2013-01-22 11:19:00,
2013-01-22 06:20:00,47.4,37.4,30.18,NNW,345,8.0,13.0,68,0.00,,---,0.00,0.00,VWS V14.00,2013-01-22 11:20:00,
2013-01-22 06:21:00,47.4,37.0,30.18,NNW,340,7.0,13.0,67,0.00,,---,0.00,0.00,VWS V14.00,2013-01-22 11:21:00,
2013-01-22 06:22:00,47.4,37.4,30.17,North,353,8.0,13.0,68,0.00,,---,0.00,0.00,VWS V14.00,2013-01-22 11:22:00,
2013-01-22 06:23:00,47.4,37.8,30.17,NNW,343,8.0,13.0,69,0.00,,---,0.00,0.00,VWS V14.00,2013-01-22 11:23:00,
2013-01-22 06:24:00,47.3,36.9,30.18,North,355,10.0,13.0,67,0.00,,---,0.00,0.00,VWS V14.00,2013-01-22 11:24:00,
2013-01-22 06:25:00,47.3,37.3,30.17,North,354,8.0,13.0,68,0.00,,---,0.00,0.00,VWS V14.00,2013-01-22 11:25:00,
2013-01-22 06:26:00,47.3,36.9,30.18,North,349,6.0,13.0,67,0.00,,---,0.00,0.00,VWS V14.00,2013-01-22 11:26:00,
2013-01-22 06:27:00,47.3,37.7,30.18,NNW,339,6.0,13.0,69,0.00,,---,0.00,0.00,VWS V14.00,2013-01-22 11:27:00,
2013-01-22 06:28:00,47.4,38.1,30.18,North,349,7.0,13.0,70,0.00,,---,0.00,0.00,VWS V14.00,2013-01-22 11:28:00,
2013-01-22 06:29:00,47.4,37.4,30.18,NNW,336,7.0,13.0,68,0.00,,---,0.00,0.00,VWS V14.00,2013-01-22 11:29:00,
2013-01-22 06:30:00,47.4,37.4,30.18,North,351,9.0,13.0,68,0.00,,---,0.00,0.00,VWS V14.00,2013-01-22 11:30:00,
2013-01-22 06:31:00,47.3,37.3,30.18,NNW,338,8.0,9.0,68,0.00,,---,0.00,0.00,VWS V14.00,2013-01-22 11:31:00,
2013-01-22 06:32:00,47.3,36.9,30.18,North,349,7.0,9.0,67,0.00,,---,0.00,0.00,VWS V14.00,2013-01-22 11:32:00,
2013-01-22 06:33:00,47.3,37.3,30.18,NNW,348,6.0,9.0,68,0.00,,---,0.00,0.00,VWS V14.00,2013-01-22 11:33:00,
2013-01-22 06:34:00,47.3,37.7,30.18,North,355,6.0,9.0,69,0.00,,---,0.00,0.00,VWS V14.00,2013-01-22 11:34:00,
2013-01-22 06:35:00,47.3,36.9,30.18,NNW,336,8.0,9.0,67,0.00,,---,0.00,0.00,VWS V14.00,2013-01-22 11:35:00,
2013-01-22 06:36:00,47.2,36.8,30.18,NNW,333,8.0,10.0,67,0.00,,---,0.00,0.00,VWS V14.00,2013-01-22 11:36:00,
2013-01-22 06:37:00,47.2,36.8,30.18,NNW,339,9.0,10.0,67,0.00,,---,0.00,0.00,VWS V14.00,2013-01-22 11:37:00,
2013-01-22 06:38:00,47.2,37.2,30.18,North,349,6.0,10.0,68,0.00,,---,0.00,0.00,VWS V14.00,2013-01-22 11:38:00,
2013-01-22 06:39:00,47.2,36.4,30.18,North,355,7.0,10.0,66,0.00,,---,0.00,0.00,VWS V14.00,2013-01-22 11:39:00,
2013-01-22 06:40:00,47.2,36.4,30.19,NNW,331,8.0,10.0,66,0.00,,---,0.00,0.00,VWS V14.00,2013-01-22 11:40:00,
2013-01-22 06:41:00,47.1,36.3,30.19,NNW,333,7.0,11.0,66,0.00,,---,0.00,0.00,VWS V14.00,2013-01-22 11:41:00,
2013-01-22 06:42:00,47.1,37.1,30.19,NNW,340,7.0,11.0,68,0.00,,---,0.00,0.00,VWS V14.00,2013-01-22 11:42:00,
2013-01-22 06:43:00,47.2,36.8,30.19,NNW,332,7.0,11.0,67,0.00,,---,0.00,0.00,VWS V14.00,2013-01-22 11:43:00,
2013-01-22 06:44:00,47.2,37.6,30.19,NNW,335,6.0,11.0,69,0.00,,---,0.00,0.00,VWS V14.00,2013-01-22 11:44:00,
2013-01-22 06:45:00,47.2,37.2,30.19,NNW,339,8.0,11.0,68,0.00,,---,0.00,0.00,VWS V14.00,2013-01-22 11:45:00,
2013-01-22 06:46:00,47.2,37.2,30.19,NW,323,11.0,11.0,68,0.00,,---,0.00,0.00,VWS V14.00,2013-01-22 11:46:00,
2013-01-22 06:47:00,47.2,36.8,30.19,NNW,342,8.0,11.0,67,0.00,,---,0.00,0.00,VWS V14.00,2013-01-22 11:47:00,
2013-01-22 06:48:00,47.2,36.8,30.19,NNW,328,9.0,11.0,67,0.00,,---,0.00,0.00,VWS V14.00,2013-01-22 11:48:00,
2013-01-22 06:49:00,47.1,36.0,30.19,NNW,327,8.0,11.0,65,0.00,,---,0.00,0.00,VWS V14.00,2013-01-22 11:49:00,
2013-01-22 06:50:00,47.1,36.3,30.19,NNW,337,10.0,11.0,66,0.00,,---,0.00,0.00,VWS V14.00,2013-01-22 11:50:00,
2013-01-22 06:51:00,47.1,36.7,30.19,NNW,338,8.0,11.0,67,0.00,,---,0.00,0.00,VWS V14.00,2013-01-22 11:51:00,
2013-01-22 06:52:00,47.0,36.6,30.19,NNW,337,7.0,11.0,67,0.00,,---,0.00,0.00,VWS V14.00,2013-01-22 11:52:00,
2013-01-22 06:53:00,47.0,36.2,30.19,NNW,331,9.0,11.0,66,0.00,,---,0.00,0.00,VWS V14.00,2013-01-22 11:53:00,
2013-01-22 06:54:00,47.0,36.6,30.19,NNW,347,8.0,12.0,67,0.00,,---,0.00,0.00,VWS V14.00,2013-01-22 11:54:00,
2013-01-22 06:55:00,46.9,35.8,30.19,NNW,340,7.0,12.0,65,0.00,,---,0.00,0.00,VWS V14.00,2013-01-22 11:55:00,
2013-01-22 06:56:00,46.9,36.2,30.19,North,349,8.0,12.0,66,0.00,,---,0.00,0.00,VWS V14.00,2013-01-22 11:56:00,
2013-01-22 06:57:00,46.9,36.5,30.20,North,350,5.0,12.0,67,0.00,,---,0.00,0.00,VWS V14.00,2013-01-22 11:57:00,
2013-01-22 06:58:00,46.9,36.9,30.19,NNW,333,8.0,12.0,68,0.00,,---,0.00,0.00,VWS V14.00,2013-01-22 11:58:00,
2013-01-22 06:59:00,46.9,36.2,30.20,NNW,329,8.0,12.0,66,0.00,,---,0.00,0.00,VWS V14.00,2013-01-22 11:59:00,
2013-01-22 07:00:00,46.9,36.2,30.20,NNW,339,8.0,12.0,66,0.00,,---,0.00,0.00,VWS V14.00,2013-01-22 12:00:00,
2013-01-22 07:01:00,46.9,36.9,30.20,NNW,327,10.0,11.0,68,0.00,,---,0.00,0.00,VWS V14.00,2013-01-22 12:01:00,
2013-01-22 07:02:00,46.9,36.9,30.20,NNW,334,9.0,11.0,68,0.00,,---,0.00,0.00,VWS V14.00,2013-01-22 12:02:00,
2013-01-22 07:03:00,47.0,37.4,30.20,NNW,341,8.0,11.0,69,0.00,,---,0.00,0.00,VWS V14.00,2013-01-22 12:03:00,
2013-01-22 07:04:00,46.9,36.2,30.20,NNW,341,10.0,11.0,66,0.00,,---,0.00,0.00,VWS V14.00,2013-01-22 12:04:00,
2013-01-22 07:05:00,46.9,36.5,30.20,NW,326,8.0,11.0,67,0.00,,---,0.00,0.00,VWS V14.00,2013-01-22 12:05:00,
2013-01-22 07:06:00,46.8,36.0,30.20,NNW,348,8.0,11.0,66,0.00,,---,0.00,0.00,VWS V14.00,2013-01-22 12:06:00,
2013-01-22 07:07:00,46.8,35.7,30.20,NW,323,9.0,11.0,65,0.00,,---,0.00,0.00,VWS V14.00,2013-01-22 12:07:00,
2013-01-22 07:08:00,46.8,36.4,30.20,NNW,338,10.0,11.0,67,0.00,,---,0.00,0.00,VWS V14.00,2013-01-22 12:08:00,
2013-01-22 07:09:00,46.8,36.4,30.20,NNW,335,9.0,11.0,67,0.00,,---,0.00,0.00,VWS V14.00,2013-01-22 12:09:00,
2013-01-22 07:10:00,46.8,36.8,30.21,NNW,330,9.0,11.0,68,0.00,,---,0.00,0.00,VWS V14.00,2013-01-22 12:10:00,
2013-01-22 07:11:00,46.8,36.8,30.20,NNW,330,9.0,11.0,68,0.00,,---,0.00,0.00,VWS V14.00,2013-01-22 12:11:00,
2013-01-22 07:12:00,46.8,36.4,30.21,NNW,331,11.0,13.0,67,0.00,,---,0.00,0.00,VWS V14.00,2013-01-22 12:12:00,
2013-01-22 07:13:00,46.8,36.8,30.21,NNW,337,10.0,13.0,68,0.00,,---,0.00,5.00,VWS V14.00,2013-01-22 12:13:00,
2013-01-22 07:14:00,46.8,36.8,30.21,NNW,333,9.0,13.0,68,0.00,,---,0.00,5.00,VWS V14.00,2013-01-22 12:14:00,
2013-01-22 07:15:00,46.8,36.8,30.21,NNW,333,10.0,13.0,68,0.00,,---,0.00,7.00,VWS V14.00,2013-01-22 12:15:00,
2013-01-22 07:16:00,46.8,36.8,30.21,NNW,330,8.0,13.0,68,0.00,,---,0.00,7.00,VWS V14.00,2013-01-22 12:16:00,
2013-01-22 07:17:00,46.9,37.3,30.21,NNW,340,7.0,13.0,69,0.00,,---,0.00,9.00,VWS V14.00,2013-01-22 12:17:00,
2013-01-22 07:18:00,46.9,36.9,30.21,NNW,328,9.0,13.0,68,0.00,,---,0.00,9.00,VWS V14.00,2013-01-22 12:18:00,
2013-01-22 07:19:00,46.8,36.0,30.21,NNW,340,8.0,13.0,66,0.00,,---,0.00,9.00,VWS V14.00,2013-01-22 12:19:00,
2013-01-22 07:20:00,46.8,36.4,30.21,North,353,9.0,13.0,67,0.00,,---,0.00,11.00,VWS V14.00,2013-01-22 12:20:00,
2013-01-22 07:21:00,46.8,35.7,30.21,NW,325,11.0,13.0,65,0.00,,---,0.00,12.00,VWS V14.00,2013-01-22 12:21:00,
2013-01-22 07:22:00,46.7,36.7,30.21,North,351,7.0,13.0,68,0.00,,---,0.00,12.00,VWS V14.00,2013-01-22 12:22:00,
2013-01-22 07:23:00,46.7,36.0,30.21,NNW,339,10.0,13.0,66,0.00,,---,0.00,14.00,VWS V14.00,2013-01-22 12:23:00,
2013-01-22 07:24:00,46.7,35.6,30.21,NNW,331,9.0,13.0,65,0.00,,---,0.00,14.00,VWS V14.00,2013-01-22 12:24:00,
2013-01-22 07:25:00,46.7,36.0,30.21,NNW,333,9.0,13.0,66,0.00,,---,0.00,16.00,VWS V14.00,2013-01-22 12:25:00,
2013-01-22 07:26:00,46.7,36.3,30.21,NNW,339,10.0,13.0,67,0.00,,---,0.00,18.00,VWS V14.00,2013-01-22 12:26:00,
2013-01-22 07:27:00,46.7,36.0,30.21,NNW,336,9.0,13.0,66,0.00,,---,0.00,18.00,VWS V14.00,2013-01-22 12:27:00,
2013-01-22 07:28:00,46.7,36.0,30.21,NNW,345,9.0,13.0,66,0.00,,---,0.00,18.00,VWS V14.00,2013-01-22 12:28:00,
2013-01-22 07:29:00,46.7,36.3,30.21,North,359,7.0,13.0,67,0.00,,---,0.00,19.00,VWS V14.00,2013-01-22 12:29:00,
2013-01-22 07:30:00,46.7,36.3,30.21,NNW,339,9.0,13.0,67,0.00,,---,0.00,19.00,VWS V14.00,2013-01-22 12:30:00,
2013-01-22 07:31:00,46.7,36.7,30.21,NNW,341,9.0,11.0,68,0.00,,---,0.00,21.00,VWS V14.00,2013-01-22 12:31:00,
2013-01-22 07:32:00,46.7,35.6,30.21,NNW,337,11.0,12.0,65,0.00,,---,0.00,23.00,VWS V14.00,2013-01-22 12:32:00,
2013-01-22 07:33:00,46.7,36.0,30.21,NNW,333,10.0,12.0,66,0.00,,---,0.00,25.00,VWS V14.00,2013-01-22 12:33:00,
2013-01-22 07:34:00,46.6,35.9,30.21,NNW,327,10.0,14.0,66,0.00,,---,0.00,25.00,VWS V14.00,2013-01-22 12:34:00,
2013-01-22 07:35:00,46.6,35.5,30.22,NNW,347,7.0,14.0,65,0.00,,---,0.00,26.00,VWS V14.00,2013-01-22 12:35:00,
2013-01-22 07:36:00,46.5,35.8,30.22,NNW,339,7.0,14.0,66,0.00,,---,0.00,28.00,VWS V14.00,2013-01-22 12:36:00,
2013-01-22 07:37:00,46.5,35.4,30.22,NNW,335,8.0,14.0,65,0.00,,---,0.00,30.00,VWS V14.00,2013-01-22 12:37:00,
2013-01-22 07:38:00,46.5,35.8,30.22,North,355,6.0,14.0,66,0.00,,---,0.00,33.00,VWS V14.00,2013-01-22 12:38:00,
2013-01-22 07:39:00,46.5,35.8,30.22,NNW,333,12.0,14.0,66,0.00,,---,0.00,33.00,VWS V14.00,2013-01-22 12:39:00,
2013-01-22 07:40:00,46.4,35.7,30.22,NNW,332,9.0,14.0,66,0.00,,---,0.00,35.00,VWS V14.00,2013-01-22 12:40:00,
2013-01-22 07:41:00,46.4,35.3,30.22,NNW,339,8.0,14.0,65,0.00,,---,0.00,35.00,VWS V14.00,2013-01-22 12:41:00,
2013-01-22 07:42:00,46.4,35.7,30.22,NNW,330,9.0,14.0,66,0.00,,---,0.00,37.00,VWS V14.00,2013-01-22 12:42:00,
2013-01-22 07:43:00,46.3,36.0,30.22,NNW,339,8.0,14.0,67,0.00,,---,0.00,39.00,VWS V14.00,2013-01-22 12:43:00,
2013-01-22 07:44:00,46.3,36.0,30.22,North,351,7.0,14.0,67,0.00,,---,0.00,42.00,VWS V14.00,2013-01-22 12:44:00,
2013-01-22 07:45:00,46.3,35.6,30.22,North,349,9.0,14.0,66,0.00,,---,0.00,44.00,VWS V14.00,2013-01-22 12:45:00,
2013-01-22 07:46:00,46.3,35.6,30.22,NNW,330,8.0,14.0,66,0.00,,---,0.00,46.00,VWS V14.00,2013-01-22 12:46:00,
2013-01-22 07:47:00,46.2,35.5,30.22,NNW,333,7.0,14.0,66,0.00,,---,0.00,49.00,VWS V14.00,2013-01-22 12:47:00,
2013-01-22 07:48:00,46.2,35.9,30.22,NNW,339,7.0,14.0,67,0.00,,---,0.00,47.00,VWS V14.00,2013-01-22 12:48:00,
2013-01-22 07:49:00,46.1,35.8,30.22,NNW,339,7.0,14.0,67,0.00,,---,0.00,49.00,VWS V14.00,2013-01-22 12:49:00,
2013-01-22 07:50:00,46.2,37.0,30.22,NNW,330,12.0,14.0,70,0.00,,---,0.00,51.00,VWS V14.00,2013-01-22 12:50:00,
2013-01-22 07:51:00,46.2,36.2,30.22,NNW,330,9.0,14.0,68,0.00,,---,0.00,53.00,VWS V14.00,2013-01-22 12:51:00,
2013-01-22 07:52:00,46.2,36.6,30.22,NNW,335,10.0,14.0,69,0.00,,---,0.00,54.00,VWS V14.00,2013-01-22 12:52:00,
2013-01-22 07:53:00,46.1,35.8,30.22,NNW,330,10.0,14.0,67,0.00,,---,0.00,60.00,VWS V14.00,2013-01-22 12:53:00,
2013-01-22 07:54:00,46.1,35.8,30.22,NW,326,10.0,14.0,67,0.00,,---,0.00,62.00,VWS V14.00,2013-01-22 12:54:00,
2013-01-22 07:55:00,46.1,36.1,30.22,NNW,343,8.0,14.0,68,0.00,,---,0.00,65.00,VWS V14.00,2013-01-22 12:55:00,
2013-01-22 07:56:00,46.1,35.8,30.22,NW,326,10.0,14.0,67,0.00,,---,0.00,67.00,VWS V14.00,2013-01-22 12:56:00,
2013-01-22 07:57:00,46.0,36.0,30.22,NNW,328,11.0,14.0,68,0.00,,---,0.00,69.00,VWS V14.00,2013-01-22 12:57:00,
2013-01-22 07:58:00,46.0,35.7,30.22,NNW,340,10.0,14.0,67,0.00,,---,0.00,79.00,VWS V14.00,2013-01-22 12:58:00,
2013-01-22 07:59:00,45.9,35.2,30.22,NW,325,11.0,14.0,66,0.00,,---,0.00,77.00,VWS V14.00,2013-01-22 12:59:00,
2013-01-22 08:00:00,45.9,35.6,30.22,NNW,333,8.0,14.0,67,0.00,,---,0.00,74.00,VWS V14.00,2013-01-22 13:00:00,
2013-01-22 08:01:00,45.9,36.0,30.22,NW,320,8.0,10.0,68,0.00,,---,0.00,69.00,VWS V14.00,2013-01-22 13:01:00,
2013-01-22 08:02:00,45.9,35.6,30.22,NNW,331,11.0,13.0,67,0.00,,---,0.00,69.00,VWS V14.00,2013-01-22 13:02:00,
2013-01-22 08:03:00,45.9,35.6,30.22,NNW,347,8.0,13.0,67,0.00,,---,0.00,70.00,VWS V14.00,2013-01-22 13:03:00,
2013-01-22 08:04:00,45.9,35.2,30.22,NNW,332,9.0,13.0,66,0.00,,---,0.00,70.00,VWS V14.00,2013-01-22 13:04:00,
2013-01-22 08:05:00,45.9,35.2,30.22,NNW,341,9.0,13.0,66,0.00,,---,0.00,74.00,VWS V14.00,2013-01-22 13:05:00,
2013-01-22 08:06:00,45.9,36.0,30.23,NNW,330,7.0,13.0,68,0.00,,---,0.00,77.00,VWS V14.00,2013-01-22 13:06:00,
2013-01-22 08:07:00,45.9,36.0,30.23,NNW,343,7.0,13.0,68,0.00,,---,0.00,83.00,VWS V14.00,2013-01-22 13:07:00,
2013-01-22 08:08:00,45.9,35.6,30.23,NNW,337,13.0,14.0,67,0.00,,---,0.00,83.00,VWS V14.00,2013-01-22 13:08:00,
2013-01-22 08:09:00,45.9,34.8,30.23,NNW,339,8.0,14.0,65,0.00,,---,0.00,84.00,VWS V14.00,2013-01-22 13:09:00,
2013-01-22 08:10:00,45.8,34.3,30.23,NNW,333,10.0,14.0,64,0.00,,---,0.00,84.00,VWS V14.00,2013-01-22 13:10:00,
2013-01-22 08:11:00,45.8,35.1,30.23,NNW,329,8.0,14.0,66,0.00,,---,0.00,86.00,VWS V14.00,2013-01-22 13:11:00,
2013-01-22 08:12:00,45.8,35.1,30.23,NNW,337,8.0,14.0,66,0.00,,---,0.00,88.00,VWS V14.00,2013-01-22 13:12:00,
2013-01-22 08:13:00,45.9,35.6,30.23,NNW,343,8.0,14.0,67,0.00,,---,0.00,93.00,VWS V14.00,2013-01-22 13:13:00,
2013-01-22 08:14:00,45.8,34.3,30.23,NNW,343,8.0,14.0,64,0.00,,---,0.00,98.00,VWS V14.00,2013-01-22 13:14:00,
2013-01-22 08:15:00,45.8,34.3,30.23,NNW,336,9.0,14.0,64,0.00,,---,0.00,107.00,VWS V14.00,2013-01-22 13:15:00,
2013-01-22 08:16:00,45.8,34.3,30.23,NNW,343,9.0,14.0,64,0.00,,---,0.00,125.00,VWS V14.00,2013-01-22 13:16:00,
2013-01-22 08:17:00,45.8,35.1,30.23,NNW,343,9.0,14.0,66,0.00,,---,0.00,125.00,VWS V14.00,2013-01-22 13:17:00,
2013-01-22 08:18:00,45.8,35.1,30.23,NNW,343,9.0,14.0,66,0.00,,---,0.00,125.00,VWS V14.00,2013-01-22 13:18:00,
2013-01-22 08:19:00,45.8,35.1,30.23,NNW,343,9.0,14.0,66,0.00,,---,0.00,125.00,VWS V14.00,2013-01-22 13:19:00,
2013-01-22 08:20:00,45.9,34.0,30.23,NNW,345,9.0,14.0,63,0.00,,---,0.00,125.00,VWS V14.00,2013-01-22 13:20:00,
2013-01-22 08:21:00,45.9,34.0,30.23,North,355,10.0,14.0,63,0.00,,---,0.00,116.00,VWS V14.00,2013-01-22 13:21:00,
2013-01-22 08:22:00,45.9,34.0,30.23,North,351,9.0,14.0,63,0.00,,---,0.00,109.00,VWS V14.00,2013-01-22 13:22:00,
2013-01-22 08:23:00,45.9,34.4,30.23,NNW,331,11.0,14.0,64,0.00,,---,0.00,107.00,VWS V14.00,2013-01-22 13:23:00,
2013-01-22 08:24:00,46.0,34.5,30.23,NNW,334,9.0,14.0,64,0.00,,---,0.00,113.00,VWS V14.00,2013-01-22 13:24:00,
2013-01-22 08:25:00,46.0,34.9,30.24,NNW,333,10.0,14.0,65,0.00,,---,0.00,116.00,VWS V14.00,2013-01-22 13:25:00,
2013-01-22 08:26:00,46.1,34.6,30.24,North,351,9.0,14.0,64,0.00,,---,0.00,121.00,VWS V14.00,2013-01-22 13:26:00,
2013-01-22 08:27:00,46.1,33.8,30.24,North,4,5.0,14.0,62,0.00,,---,0.00,125.00,VWS V14.00,2013-01-22 13:27:00,
2013-01-22 08:28:00,46.1,33.8,30.24,NNW,335,14.0,14.0,62,0.00,,---,0.00,118.00,VWS V14.00,2013-01-22 13:28:00,
2013-01-22 08:29:00,46.1,33.4,30.24,North,352,8.0,15.0,61,0.00,,---,0.00,118.00,VWS V14.00,2013-01-22 13:29:00,
2013-01-22 08:30:00,46.1,33.0,30.24,North,353,10.0,15.0,60,0.00,,---,0.00,116.00,VWS V14.00,2013-01-22 13:30:00,
2013-01-22 08:31:00,46.1,33.4,30.24,NNW,334,9.0,11.0,61,0.00,,---,0.00,123.00,VWS V14.00,2013-01-22 13:31:00,
2013-01-22 08:32:00,46.1,33.8,30.24,NNW,333,8.0,11.0,62,0.00,,---,0.00,123.00,VWS V14.00,2013-01-22 13:32:00,
2013-01-22 08:33:00,46.1,34.2,30.24,NNW,341,9.0,11.0,63,0.00,,---,0.00,130.00,VWS V14.00,2013-01-22 13:33:00,
2013-01-22 08:34:00,46.2,34.3,30.24,NNW,348,10.0,11.0,63,0.00,,---,0.00,141.00,VWS V14.00,2013-01-22 13:34:00,
2013-01-22 08:35:00,46.2,33.5,30.24,NNW,348,11.0,14.0,61,0.00,,---,0.00,142.00,VWS V14.00,2013-01-22 13:35:00,
2013-01-22 08:36:00,46.2,33.5,30.24,North,355,10.0,16.0,61,0.00,,---,0.00,144.00,VWS V14.00,2013-01-22 13:36:00,
2013-01-22 08:37:00,46.2,33.1,30.24,NNW,347,10.0,16.0,60,0.00,,---,0.00,144.00,VWS V14.00,2013-01-22 13:37:00,
2013-01-22 08:38:00,46.2,33.1,30.24,North,355,11.0,16.0,60,0.00,,---,0.00,141.00,VWS V14.00,2013-01-22 13:38:00,
2013-01-22 08:39:00,46.2,32.2,30.24,North,354,11.0,16.0,58,0.00,,---,0.00,146.00,VWS V14.00,2013-01-22 13:39:00,
2013-01-22 08:40:00,46.2,32.2,30.24,NNW,347,10.0,16.0,58,0.00,,---,0.00,137.00,VWS V14.00,2013-01-22 13:40:00,
2013-01-22 08:41:00,46.1,31.7,30.25,NNW,339,6.0,16.0,57,0.00,,---,0.00,132.00,VWS V14.00,2013-01-22 13:41:00,
2013-01-22 08:42:00,46.1,32.6,30.25,NW,326,9.0,16.0,59,0.00,,---,0.00,132.00,VWS V14.00,2013-01-22 13:42:00,
2013-01-22 08:43:00,46.2,33.9,30.25,NNW,341,7.0,16.0,62,0.00,,---,0.00,135.00,VWS V14.00,2013-01-22 13:43:00,
2013-01-22 08:44:00,46.3,33.2,30.25,NNW,327,11.0,16.0,60,0.00,,---,0.00,135.00,VWS V14.00,2013-01-22 13:44:00,
2013-01-22 08:45:00,46.3,33.2,30.25,NNW,333,13.0,16.0,60,0.00,,---,0.00,135.00,VWS V14.00,2013-01-22 13:45:00,
2013-01-22 08:46:00,46.3,32.8,30.25,NNW,333,15.0,16.0,59,0.00,,---,0.00,142.00,VWS V14.00,2013-01-22 13:46:00,
2013-01-22 08:47:00,46.4,34.1,30.25,NNW,334,7.0,16.0,62,0.00,,---,0.00,139.00,VWS V14.00,2013-01-22 13:47:00,
2013-01-22 08:48:00,46.4,33.3,30.25,NNW,340,10.0,16.0,60,0.00,,---,0.00,141.00,VWS V14.00,2013-01-22 13:48:00,
2013-01-22 08:49:00,46.5,33.4,30.25,North,4,12.0,16.0,60,0.00,,---,0.00,142.00,VWS V14.00,2013-01-22 13:49:00,
2013-01-22 08:50:00,46.5,32.5,30.25,North,2,10.0,16.0,58,0.00,,---,0.00,148.00,VWS V14.00,2013-01-22 13:50:00,
2013-01-22 08:51:00,46.5,32.1,30.25,NNW,333,8.0,16.0,57,0.00,,---,0.00,148.00,VWS V14.00,2013-01-22 13:51:00,
2013-01-22 08:52:00,46.5,33.4,30.25,NNW,345,6.0,16.0,60,0.00,,---,0.00,146.00,VWS V14.00,2013-01-22 13:52:00,
2013-01-22 08:53:00,46.6,33.9,30.25,NNW,331,8.0,16.0,61,0.00,,---,0.00,146.00,VWS V14.00,2013-01-22 13:53:00,
2013-01-22 08:54:00,46.7,34.0,30.25,NNW,343,9.0,16.0,61,0.00,,---,0.00,146.00,VWS V14.00,2013-01-22 13:54:00,
2013-01-22 08:55:00,46.7,32.7,30.25,NNW,337,11.0,16.0,58,0.00,,---,0.00,144.00,VWS V14.00,2013-01-22 13:55:00,
2013-01-22 08:56:00,46.6,31.8,30.25,North,352,7.0,16.0,56,0.00,,---,0.00,148.00,VWS V14.00,2013-01-22 13:56:00,
2013-01-22 08:57:00,46.6,33.0,30.25,NNW,337,8.0,16.0,59,0.00,,---,0.00,155.00,VWS V14.00,2013-01-22 13:57:00,
2013-01-22 08:58:00,46.7,34.0,30.25,North,355,7.0,16.0,61,0.00,,---,0.00,160.00,VWS V14.00,2013-01-22 13:58:00,
2013-01-22 08:59:00,46.7,33.6,30.25,NNW,345,7.0,16.0,60,0.00,,---,0.00,160.00,VWS V14.00,2013-01-22 13:59:00,
2013-01-22 09:00:00,46.7,32.7,30.25,North,1,10.0,16.0,58,0.00,,---,0.00,160.00,VWS V14.00,2013-01-22 14:00:00,
2013-01-22 09:01:00,46.8,32.0,30.25,North,350,7.0,10.0,56,0.00,,---,0.00,167.00,VWS V14.00,2013-01-22 14:01:00,
2013-01-22 09:02:00,46.8,32.8,30.25,NNW,343,6.0,10.0,58,0.00,,---,0.00,162.00,VWS V14.00,2013-01-22 14:02:00,
2013-01-22 09:03:00,46.8,33.2,30.25,North,351,7.0,10.0,59,0.00,,---,0.00,165.00,VWS V14.00,2013-01-22 14:03:00,
2013-01-22 09:04:00,46.9,33.3,30.26,NNW,339,5.0,10.0,59,0.00,,---,0.00,174.00,VWS V14.00,2013-01-22 14:04:00,
2013-01-22 09:05:00,46.9,32.9,30.26,NNW,336,6.0,10.0,58,0.00,,---,0.00,179.00,VWS V14.00,2013-01-22 14:05:00,
2013-01-22 09:06:00,46.9,32.5,30.26,North,350,6.0,10.0,57,0.00,,---,0.00,178.00,VWS V14.00,2013-01-22 14:06:00,
2013-01-22 09:07:00,46.9,32.9,30.26,NNW,327,8.0,10.0,58,0.00,,---,0.00,178.00,VWS V14.00,2013-01-22 14:07:00,
2013-01-22 09:08:00,46.9,33.8,30.26,NNW,327,10.0,10.0,60,0.00,,---,0.00,199.00,VWS V14.00,2013-01-22 14:08:00,
2013-01-22 09:09:00,46.9,32.5,30.26,NNW,337,8.0,10.0,57,0.00,,---,0.00,202.00,VWS V14.00,2013-01-22 14:09:00,
2013-01-22 09:10:00,47.0,33.0,30.26,NW,324,8.0,10.0,58,0.00,,---,0.00,202.00,VWS V14.00,2013-01-22 14:10:00,
2013-01-22 09:11:00,47.0,33.8,30.26,NW,323,7.0,11.0,60,0.00,,---,0.00,186.00,VWS V14.00,2013-01-22 14:11:00,
2013-01-22 09:12:00,47.0,32.6,30.26,NW,320,8.0,11.0,57,0.00,,---,0.00,183.00,VWS V14.00,2013-01-22 14:12:00,
2013-01-22 09:13:00,47.0,32.6,30.26,NNW,328,8.0,11.0,57,0.00,,---,0.00,183.00,VWS V14.00,2013-01-22 14:13:00,
2013-01-22 09:14:00,47.0,32.6,30.26,NNW,336,8.0,11.0,57,0.00,,---,0.00,195.00,VWS V14.00,2013-01-22 14:14:00,
2013-01-22 09:15:00,47.0,33.4,30.26,NW,316,9.0,11.0,59,0.00,,---,0.00,199.00,VWS V14.00,2013-01-22 14:15:00,
2013-01-22 09:16:00,47.0,33.4,30.26,NW,318,7.0,11.0,59,0.00,,---,0.00,188.00,VWS V14.00,2013-01-22 14:16:00,
2013-01-22 09:17:00,47.1,33.5,30.26,NNW,332,11.0,11.0,59,0.00,,---,0.00,186.00,VWS V14.00,2013-01-22 14:17:00,
2013-01-22 09:18:00,47.1,33.1,30.26,NNW,331,9.0,12.0,58,0.00,,---,0.00,174.00,VWS V14.00,2013-01-22 14:18:00,
2013-01-22 09:19:00,47.2,32.3,30.26,NNW,336,9.0,13.0,56,0.00,,---,0.00,172.00,VWS V14.00,2013-01-22 14:19:00,
2013-01-22 09:20:00,47.1,32.2,30.26,NNW,343,8.0,13.0,56,0.00,,---,0.00,169.00,VWS V14.00,2013-01-22 14:20:00,
2013-01-22 09:21:00,47.1,32.2,30.26,North,350,7.0,13.0,56,0.00,,---,0.00,167.00,VWS V14.00,2013-01-22 14:21:00,
2013-01-22 09:22:00,47.1,32.2,30.26,North,351,6.0,13.0,56,0.00,,---,0.00,171.00,VWS V14.00,2013-01-22 14:22:00,
2013-01-22 09:23:00,47.1,32.7,30.26,NNW,328,8.0,13.0,57,0.00,,---,0.00,172.00,VWS V14.00,2013-01-22 14:23:00,
2013-01-22 09:24:00,47.1,32.7,30.26,NNW,327,9.0,13.0,57,0.00,,---,0.00,174.00,VWS V14.00,2013-01-22 14:24:00,
2013-01-22 09:25:00,47.1,32.7,30.26,NNW,328,8.0,13.0,57,0.00,,---,0.00,174.00,VWS V14.00,2013-01-22 14:25:00,
2013-01-22 09:26:00,47.1,33.1,30.26,NNW,340,10.0,13.0,58,0.00,,---,0.00,183.00,VWS V14.00,2013-01-22 14:26:00,
2013-01-22 09:27:00,47.2,32.8,30.27,NW,326,8.0,13.0,57,0.00,,---,0.00,183.00,VWS V14.00,2013-01-22 14:27:00,
2013-01-22 09:28:00,47.2,32.8,30.26,NW,324,8.0,13.0,57,0.00,,---,0.00,186.00,VWS V14.00,2013-01-22 14:28:00,
2013-01-22 09:29:00,47.3,33.3,30.27,North,351,8.0,13.0,58,0.00,,---,0.00,197.00,VWS V14.00,2013-01-22 14:29:00,
2013-01-22 09:30:00,47.3,32.8,30.27,NW,326,8.0,13.0,57,0.00,,---,0.00,209.00,VWS V14.00,2013-01-22 14:30:00,
2013-01-22 09:31:00,47.4,32.5,30.27,NNW,334,8.0,10.0,56,0.00,,---,0.00,220.00,VWS V14.00,2013-01-22 14:31:00,
2013-01-22 09:32:00,47.5,33.9,30.27,NW,323,10.0,10.0,59,0.00,,---,0.00,227.00,VWS V14.00,2013-01-22 14:32:00,
2013-01-22 09:33:00,47.4,32.5,30.27,NNW,348,10.0,12.0,56,0.00,,---,0.00,220.00,VWS V14.00,2013-01-22 14:33:00,
2013-01-22 09:34:00,47.5,32.2,30.27,NNW,327,9.0,12.0,55,0.00,,---,0.00,221.00,VWS V14.00,2013-01-22 14:34:00,
2013-01-22 09:35:00,47.5,33.5,30.27,NNW,327,5.0,12.0,58,0.00,,---,0.00,227.00,VWS V14.00,2013-01-22 14:35:00,
2013-01-22 09:36:00,47.6,33.6,30.27,NNW,336,9.0,12.0,58,0.00,,---,0.00,207.00,VWS V14.00,2013-01-22 14:36:00,
2013-01-22 09:37:00,47.6,33.1,30.27,NNW,346,8.0,12.0,57,0.00,,---,0.00,206.00,VWS V14.00,2013-01-22 14:37:00,
2013-01-22 09:38:00,47.7,33.2,30.27,NW,326,9.0,12.0,57,0.00,,---,0.00,209.00,VWS V14.00,2013-01-22 14:38:00,
2013-01-22 09:39:00,47.7,33.2,30.27,NW,323,8.0,12.0,57,0.00,,---,0.00,207.00,VWS V14.00,2013-01-22 14:39:00,
2013-01-22 09:40:00,47.8,32.9,30.27,NW,318,6.0,12.0,56,0.00,,---,0.00,207.00,VWS V14.00,2013-01-22 14:40:00,
2013-01-22 09:41:00,47.8,33.3,30.27,NNW,343,6.0,12.0,57,0.00,,---,0.00,202.00,VWS V14.00,2013-01-22 14:41:00,
2013-01-22 09:42:00,47.7,32.3,30.27,NNW,342,7.0,12.0,55,0.00,,---,0.00,209.00,VWS V14.00,2013-01-22 14:42:00,
2013-01-22 09:43:00,47.8,32.9,30.27,NW,326,10.0,12.0,56,0.00,,---,0.00,209.00,VWS V14.00,2013-01-22 14:43:00,
2013-01-22 09:44:00,47.8,33.3,30.27,NNW,333,7.0,12.0,57,0.00,,---,0.00,214.00,VWS V14.00,2013-01-22 14:44:00,
2013-01-22 09:45:00,47.9,33.8,30.28,NNW,328,9.0,12.0,58,0.00,,---,0.00,227.00,VWS V14.00,2013-01-22 14:45:00,
2013-01-22 09:46:00,47.9,33.0,30.27,NW,322,9.0,12.0,56,0.00,,---,0.00,241.00,VWS V14.00,2013-01-22 14:46:00,
2013-01-22 09:47:00,47.9,33.4,30.27,NNW,345,8.0,12.0,57,0.00,,---,0.00,246.00,VWS V14.00,2013-01-22 14:47:00,
2013-01-22 09:48:00,47.9,33.4,30.27,NNW,330,6.0,12.0,57,0.00,,---,0.00,246.00,VWS V14.00,2013-01-22 14:48:00,
2013-01-22 09:49:00,48.1,33.2,30.28,NW,324,10.0,12.0,56,0.00,,---,0.00,248.00,VWS V14.00,2013-01-22 14:49:00,
2013-01-22 09:50:00,48.1,33.6,30.27,NNW,339,12.0,14.0,57,0.00,,---,0.00,281.00,VWS V14.00,2013-01-22 14:50:00,
2013-01-22 09:51:00,48.2,33.3,30.28,North,351,10.0,14.0,56,0.00,,---,0.00,264.00,VWS V14.00,2013-01-22 14:51:00,
2013-01-22 09:52:00,48.3,33.3,30.28,NNW,337,8.0,14.0,56,0.00,,---,0.00,257.00,VWS V14.00,2013-01-22 14:52:00,
2013-01-22 09:53:00,48.3,32.4,30.27,NNW,333,11.0,14.0,54,0.00,,---,0.00,281.00,VWS V14.00,2013-01-22 14:53:00,
2013-01-22 09:54:00,48.3,33.3,30.28,NNW,335,11.0,14.0,56,0.00,,---,0.00,257.00,VWS V14.00,2013-01-22 14:54:00,
2013-01-22 09:55:00,48.3,32.0,30.28,NNW,346,9.0,14.0,53,0.00,,---,0.00,271.00,VWS V14.00,2013-01-22 14:55:00,
2013-01-22 09:56:00,48.3,32.4,30.28,NNW,341,9.0,14.0,54,0.00,,---,0.00,290.00,VWS V14.00,2013-01-22 14:56:00,
2013-01-22 09:57:00,48.3,32.0,30.28,North,350,9.0,14.0,53,0.00,,---,0.00,281.00,VWS V14.00,2013-01-22 14:57:00,
2013-01-22 09:58:00,48.4,32.5,30.28,NW,325,8.0,14.0,54,0.00,,---,0.00,297.00,VWS V14.00,2013-01-22 14:58:00,
2013-01-22 09:59:00,48.4,33.0,30.28,NNW,343,9.0,14.0,55,0.00,,---,0.00,287.00,VWS V14.00,2013-01-22 14:59:00,
2013-01-22 10:00:00,48.4,32.1,30.28,NNW,339,8.0,14.0,53,0.00,,---,0.00,304.00,VWS V14.00,2013-01-22 15:00:00,
2013-01-22 10:01:00,48.5,31.7,30.27,NNW,331,12.0,12.0,52,0.00,,---,0.00,348.00,VWS V14.00,2013-01-22 15:01:00,
2013-01-22 10:02:00,48.6,32.3,30.27,NNW,341,11.0,14.0,53,0.00,,---,0.00,313.00,VWS V14.00,2013-01-22 15:02:00,
2013-01-22 10:03:00,48.6,32.3,30.28,NNW,335,11.0,14.0,53,0.00,,---,0.00,281.00,VWS V14.00,2013-01-22 15:03:00,
2013-01-22 10:04:00,48.7,31.4,30.28,NNW,328,9.0,14.0,51,0.00,,---,0.00,274.00,VWS V14.00,2013-01-22 15:04:00,
2013-01-22 10:05:00,48.7,31.4,30.28,NNW,339,8.0,14.0,51,0.00,,---,0.00,309.00,VWS V14.00,2013-01-22 15:05:00,
2013-01-22 10:06:00,48.7,32.3,30.28,North,359,6.0,14.0,53,0.00,,---,0.00,288.00,VWS V14.00,2013-01-22 15:06:00,
2013-01-22 10:07:00,48.8,32.4,30.28,NNW,337,7.0,14.0,53,0.00,,---,0.00,313.00,VWS V14.00,2013-01-22 15:07:00,
2013-01-22 10:08:00,48.9,33.0,30.28,NW,322,8.0,14.0,54,0.00,,---,0.00,327.00,VWS V14.00,2013-01-22 15:08:00,
2013-01-22 10:09:00,48.9,31.6,30.28,NNW,330,9.0,14.0,51,0.00,,---,0.00,292.00,VWS V14.00,2013-01-22 15:09:00,
2013-01-22 10:10:00,49.0,32.6,30.28,North,360,8.0,14.0,53,0.00,,---,0.00,332.00,VWS V14.00,2013-01-22 15:10:00,
2013-01-22 10:11:00,49.0,31.7,30.28,NNW,343,8.0,14.0,51,0.00,,---,0.00,327.00,VWS V14.00,2013-01-22 15:11:00,
2013-01-22 10:12:00,49.1,32.2,30.28,NNW,339,7.0,14.0,52,0.00,,---,0.00,355.00,VWS V14.00,2013-01-22 15:12:00,
2013-01-22 10:13:00,49.2,31.9,30.28,NNW,341,12.0,15.0,51,0.00,,---,0.00,350.00,VWS V14.00,2013-01-22 15:13:00,
2013-01-22 10:14:00,49.4,32.0,30.28,North,351,7.0,15.0,51,0.00,,---,0.00,334.00,VWS V14.00,2013-01-22 15:14:00,
2013-01-22 10:15:00,49.5,31.6,30.28,NNE,12,11.0,15.0,50,0.00,,---,0.00,341.00,VWS V14.00,2013-01-22 15:15:00,
2013-01-22 10:16:00,49.5,31.6,30.28,NNW,328,9.0,15.0,50,0.00,,---,0.00,323.00,VWS V14.00,2013-01-22 15:16:00,
2013-01-22 10:17:00,49.6,32.7,30.28,NNW,333,7.0,15.0,52,0.00,,---,0.00,294.00,VWS V14.00,2013-01-22 15:17:00,
2013-01-22 10:18:00,49.7,31.8,30.28,NNW,335,10.0,15.0,50,0.00,,---,0.00,315.00,VWS V14.00,2013-01-22 15:18:00,
2013-01-22 10:19:00,49.7,32.8,30.28,NNW,330,10.0,15.0,52,0.00,,---,0.00,297.00,VWS V14.00,2013-01-22 15:19:00,
2013-01-22 10:20:00,49.8,30.9,30.28,NNW,340,8.0,15.0,48,0.00,,---,0.00,352.00,VWS V14.00,2013-01-22 15:20:00,
2013-01-22 10:21:00,49.8,31.4,30.28,NNW,329,9.0,15.0,49,0.00,,---,0.00,360.00,VWS V14.00,2013-01-22 15:21:00,
2013-01-22 10:22:00,49.8,31.4,30.28,NNW,331,8.0,15.0,49,0.00,,---,0.00,320.00,VWS V14.00,2013-01-22 15:22:00,
2013-01-22 10:23:00,49.9,32.5,30.28,NNW,334,7.0,15.0,51,0.00,,---,0.00,350.00,VWS V14.00,2013-01-22 15:23:00,
2013-01-22 10:24:00,50.0,33.6,30.28,NNW,339,3.0,15.0,53,0.00,,---,0.00,357.00,VWS V14.00,2013-01-22 15:24:00,
2013-01-22 10:25:00,50.1,32.2,30.28,NNW,341,5.0,15.0,50,0.00,,---,0.00,330.00,VWS V14.00,2013-01-22 15:25:00,
2013-01-22 10:26:00,50.2,31.8,30.28,NNW,340,8.0,15.0,49,0.00,,---,0.00,309.00,VWS V14.00,2013-01-22 15:26:00,
2013-01-22 10:27:00,50.2,31.3,30.28,North,3,8.0,15.0,48,0.00,,---,0.00,327.00,VWS V14.00,2013-01-22 15:27:00,
2013-01-22 10:28:00,50.3,31.9,30.28,North,355,8.0,15.0,49,0.00,,---,0.00,304.00,VWS V14.00,2013-01-22 15:28:00,
2013-01-22 10:29:00,50.4,32.0,30.28,NNW,345,6.0,15.0,49,0.00,,---,0.00,338.00,VWS V14.00,2013-01-22 15:29:00,
2013-01-22 10:30:00,50.5,32.1,30.28,NNW,333,7.0,15.0,49,0.00,,---,0.00,374.00,VWS V14.00,2013-01-22 15:30:00,
2013-01-22 10:31:00,50.6,32.7,30.28,NNE,17,11.0,12.0,50,0.00,,---,0.00,367.00,VWS V14.00,2013-01-22 15:31:00,
2013-01-22 10:32:00,50.7,31.2,30.28,NW,325,8.0,12.0,47,0.00,,---,0.00,301.00,VWS V14.00,2013-01-22 15:32:00,
2013-01-22 10:33:00,50.8,32.8,30.28,NW,324,11.0,12.0,50,0.00,,---,0.00,301.00,VWS V14.00,2013-01-22 15:33:00,
2013-01-22 10:34:00,50.9,31.9,30.28,North,351,9.0,13.0,48,0.00,,---,0.00,343.00,VWS V14.00,2013-01-22 15:34:00,
2013-01-22 10:35:00,50.9,31.4,30.28,North,5,12.0,13.0,47,0.00,,---,0.00,381.00,VWS V14.00,2013-01-22 15:35:00,
2013-01-22 10:36:00,50.9,30.3,30.28,NNW,335,7.0,13.0,45,0.00,,---,0.00,436.00,VWS V14.00,2013-01-22 15:36:00,
2013-01-22 10:37:00,51.0,31.5,30.28,North,349,13.0,14.0,47,0.00,,---,0.00,448.00,VWS V14.00,2013-01-22 15:37:00,
2013-01-22 10:38:00,51.0,31.5,30.28,North,357,6.0,14.0,47,0.00,,---,0.00,445.00,VWS V14.00,2013-01-22 15:38:00,
2013-01-22 10:39:00,51.1,31.6,30.28,North,354,8.0,14.0,47,0.00,,---,0.00,452.00,VWS V14.00,2013-01-22 15:39:00,
2013-01-22 10:40:00,51.2,30.6,30.28,NNW,341,8.0,14.0,45,0.00,,---,0.00,475.00,VWS V14.00,2013-01-22 15:40:00,
2013-01-22 10:41:00,51.2,31.1,30.28,NNW,329,10.0,14.0,46,0.00,,---,0.00,457.00,VWS V14.00,2013-01-22 15:41:00,
2013-01-22 10:42:00,51.3,31.2,30.28,NW,322,7.0,15.0,46,0.00,,---,0.00,439.00,VWS V14.00,2013-01-22 15:42:00,
2013-01-22 10:43:00,51.3,30.7,30.28,NNW,347,8.0,15.0,45,0.00,,---,0.00,406.00,VWS V14.00,2013-01-22 15:43:00,
2013-01-22 10:44:00,51.3,30.1,30.28,North,7,12.0,15.0,44,0.00,,---,0.00,396.00,VWS V14.00,2013-01-22 15:44:00,
2013-01-22 10:45:00,51.3,30.7,30.28,North,8,12.0,15.0,45,0.00,,---,0.00,313.00,VWS V14.00,2013-01-22 15:45:00,
2013-01-22 10:46:00,51.4,30.2,30.28,NNW,328,14.0,15.0,44,0.00,,---,0.00,327.00,VWS V14.00,2013-01-22 15:46:00,
2013-01-22 10:47:00,51.4,30.8,30.28,North,355,11.0,18.0,45,0.00,,---,0.00,315.00,VWS V14.00,2013-01-22 15:47:00,
2013-01-22 10:48:00,51.5,29.8,30.28,North,349,10.0,18.0,43,0.00,,---,0.00,279.00,VWS V14.00,2013-01-22 15:48:00,
2013-01-22 10:49:00,51.5,29.8,30.28,NNW,348,7.0,18.0,43,0.00,,---,0.00,311.00,VWS V14.00,2013-01-22 15:49:00,
2013-01-22 10:50:00,51.5,30.9,30.28,North,352,7.0,18.0,45,0.00,,---,0.00,399.00,VWS V14.00,2013-01-22 15:50:00,
2013-01-22 10:51:00,51.6,33.1,30.28,NNE,12,7.0,18.0,49,0.00,,---,0.00,399.00,VWS V14.00,2013-01-22 15:51:00,
2013-01-22 10:52:00,51.7,30.5,30.28,North,356,7.0,18.0,44,0.00,,---,0.00,364.00,VWS V14.00,2013-01-22 15:52:00,
2013-01-22 10:53:00,51.8,31.1,30.28,NNW,341,7.0,18.0,45,0.00,,---,0.00,418.00,VWS V14.00,2013-01-22 15:53:00,
2013-01-22 10:54:00,51.8,31.7,30.28,North,349,7.0,18.0,46,0.00,,---,0.00,478.00,VWS V14.00,2013-01-22 15:54:00,
2013-01-22 10:55:00,51.8,31.1,30.28,NNW,343,7.0,18.0,45,0.00,,---,0.00,478.00,VWS V14.00,2013-01-22 15:55:00,
2013-01-22 10:56:00,51.9,33.4,30.28,NNW,342,10.0,18.0,49,0.00,,---,0.00,469.00,VWS V14.00,2013-01-22 15:56:00,
2013-01-22 10:57:00,51.9,30.1,30.28,NNW,334,10.0,18.0,43,0.00,,---,0.00,478.00,VWS V14.00,2013-01-22 15:57:00,
2013-01-22 10:58:00,51.9,30.7,30.28,NNW,332,7.0,18.0,44,0.00,,---,0.00,387.00,VWS V14.00,2013-01-22 15:58:00,
2013-01-22 10:59:00,51.9,31.8,30.28,NNW,345,8.0,18.0,46,0.00,,---,0.00,392.00,VWS V14.00,2013-01-22 15:59:00,
2013-01-22 11:00:00,51.9,29.0,30.28,NNW,346,7.0,18.0,41,0.00,,---,0.00,345.00,VWS V14.00,2013-01-22 16:00:00,
2013-01-22 11:01:00,52.0,32.4,30.28,NW,324,11.0,11.0,47,0.00,,---,0.00,415.00,VWS V14.00,2013-01-22 16:01:00,
2013-01-22 11:02:00,52.1,30.9,30.28,NNW,348,8.0,11.0,44,0.00,,---,0.00,436.00,VWS V14.00,2013-01-22 16:02:00,
2013-01-22 11:03:00,52.1,30.9,30.28,NNW,337,7.0,11.0,44,0.00,,---,0.00,401.00,VWS V14.00,2013-01-22 16:03:00,
2013-01-22 11:04:00,52.1,32.0,30.28,NNW,345,7.0,11.0,46,0.00,,---,0.00,392.00,VWS V14.00,2013-01-22 16:04:00,
2013-01-22 11:05:00,52.2,31.0,30.28,North,6,8.0,11.0,44,0.00,,---,0.00,397.00,VWS V14.00,2013-01-22 16:05:00,
2013-01-22 11:06:00,52.2,31.5,30.28,North,353,10.0,11.0,45,0.00,,---,0.00,411.00,VWS V14.00,2013-01-22 16:06:00,
2013-01-22 11:07:00,52.2,29.8,30.28,NNW,330,7.0,11.0,42,0.00,,---,0.00,359.00,VWS V14.00,2013-01-22 16:07:00,
2013-01-22 11:08:00,52.3,31.6,30.28,NW,320,6.0,11.0,45,0.00,,---,0.00,316.00,VWS V14.00,2013-01-22 16:08:00,
2013-01-22 11:09:00,52.3,30.5,30.28,NW,319,4.0,11.0,43,0.00,,---,0.00,415.00,VWS V14.00,2013-01-22 16:09:00,
2013-01-22 11:10:00,52.4,31.7,30.28,NNW,329,9.0,11.0,45,0.00,,---,0.00,422.00,VWS V14.00,2013-01-22 16:10:00,
2013-01-22 11:11:00,52.4,31.7,30.28,NW,318,10.0,11.0,45,0.00,,---,0.00,436.00,VWS V14.00,2013-01-22 16:11:00,
2013-01-22 11:12:00,52.5,32.9,30.28,NW,313,9.0,12.0,47,0.00,,---,0.00,413.00,VWS V14.00,2013-01-22 16:12:00,
2013-01-22 11:13:00,52.6,31.9,30.28,NNW,328,12.0,15.0,45,0.00,,---,0.00,378.00,VWS V14.00,2013-01-22 16:13:00,
2013-01-22 11:14:00,52.6,30.8,30.28,NNW,343,10.0,15.0,43,0.00,,---,0.00,378.00,VWS V14.00,2013-01-22 16:14:00,
2013-01-22 11:15:00,52.6,29.6,30.28,NNW,337,5.0,15.0,41,0.00,,---,0.00,357.00,VWS V14.00,2013-01-22 16:15:00,
2013-01-22 11:16:00,52.6,30.8,30.28,NNW,328,10.0,15.0,43,0.00,,---,0.00,401.00,VWS V14.00,2013-01-22 16:16:00,
2013-01-22 11:17:00,52.7,32.0,30.28,NW,318,7.0,15.0,45,0.00,,---,0.00,424.00,VWS V14.00,2013-01-22 16:17:00,
2013-01-22 11:18:00,52.7,30.9,30.28,NNW,341,7.0,15.0,43,0.00,,---,0.00,422.00,VWS V14.00,2013-01-22 16:18:00,
2013-01-22 11:19:00,52.7,30.9,30.28,NNW,333,5.0,15.0,43,0.00,,---,0.00,410.00,VWS V14.00,2013-01-22 16:19:00,
2013-01-22 11:20:00,52.8,31.5,30.28,NNW,331,9.0,15.0,44,0.00,,---,0.00,388.00,VWS V14.00,2013-01-22 16:20:00,
2013-01-22 11:21:00,52.7,30.3,30.28,NW,318,5.0,15.0,42,0.00,,---,0.00,373.00,VWS V14.00,2013-01-22 16:21:00,
2013-01-22 11:22:00,52.8,31.5,30.28,NW,319,8.0,15.0,44,0.00,,---,0.00,373.00,VWS V14.00,2013-01-22 16:22:00,
2013-01-22 11:23:00,52.8,30.4,30.28,NNW,328,9.0,15.0,42,0.00,,---,0.00,397.00,VWS V14.00,2013-01-22 16:23:00,
2013-01-22 11:24:00,52.9,31.6,30.28,NNW,345,7.0,15.0,44,0.00,,---,0.00,385.00,VWS V14.00,2013-01-22 16:24:00,
2013-01-22 11:25:00,53.0,30.5,30.28,NNW,345,8.0,15.0,42,0.00,,---,0.00,362.00,VWS V14.00,2013-01-22 16:25:00,
2013-01-22 11:26:00,53.1,30.6,30.28,North,360,7.0,15.0,42,0.00,,---,0.00,385.00,VWS V14.00,2013-01-22 16:26:00,
2013-01-22 11:27:00,53.2,30.1,30.28,NNW,339,8.0,15.0,41,0.00,,---,0.00,392.00,VWS V14.00,2013-01-22 16:27:00,
2013-01-22 11:28:00,53.3,30.8,30.28,NW,320,8.0,15.0,42,0.00,,---,0.00,359.00,VWS V14.00,2013-01-22 16:28:00,
2013-01-22 11:29:00,53.4,30.9,30.28,NW,322,8.0,15.0,42,0.00,,---,0.00,394.00,VWS V14.00,2013-01-22 16:29:00,
2013-01-22 11:30:00,53.5,29.8,30.27,NW,321,8.0,15.0,40,0.00,,---,0.00,399.00,VWS V14.00,2013-01-22 16:30:00,
2013-01-22 11:31:00,53.5,29.8,30.28,NW,318,8.0,9.0,40,0.00,,---,0.00,369.00,VWS V14.00,2013-01-22 16:31:00,
2013-01-22 11:32:00,53.5,31.0,30.28,NNW,328,8.0,11.0,42,0.00,,---,0.00,329.00,VWS V14.00,2013-01-22 16:32:00,
2013-01-22 11:33:00,53.6,30.5,30.28,NNW,330,10.0,11.0,41,0.00,,---,0.00,350.00,VWS V14.00,2013-01-22 16:33:00,
2013-01-22 11:34:00,53.6,31.1,30.28,NW,308,8.0,12.0,42,0.00,,---,0.00,338.00,VWS V14.00,2013-01-22 16:34:00,
2013-01-22 11:35:00,53.6,30.5,30.28,NW,314,12.0,14.0,41,0.00,,---,0.00,350.00,VWS V14.00,2013-01-22 16:35:00,
2013-01-22 11:36:00,53.6,29.9,30.27,NNW,330,13.0,14.0,40,0.00,,---,0.00,330.00,VWS V14.00,2013-01-22 16:36:00,
2013-01-22 11:37:00,53.7,30.6,30.27,NW,325,12.0,14.0,41,0.00,,---,0.00,352.00,VWS V14.00,2013-01-22 16:37:00,
2013-01-22 11:38:00,53.7,30.6,30.27,NNW,331,12.0,14.0,41,0.00,,---,0.00,348.00,VWS V14.00,2013-01-22 16:38:00,
2013-01-22 11:39:00,53.7,30.0,30.27,NNW,328,10.0,14.0,40,0.00,,---,0.00,350.00,VWS V14.00,2013-01-22 16:39:00,
2013-01-22 11:40:00,53.8,29.4,30.27,NNW,328,8.0,14.0,39,0.00,,---,0.00,366.00,VWS V14.00,2013-01-22 16:40:00,
2013-01-22 11:41:00,53.8,30.7,30.27,NNW,334,7.0,14.0,41,0.00,,---,0.00,381.00,VWS V14.00,2013-01-22 16:41:00,
2013-01-22 11:42:00,53.8,30.1,30.27,NNW,333,14.0,14.0,40,0.00,,---,0.00,360.00,VWS V14.00,2013-01-22 16:42:00,
2013-01-22 11:43:00,53.9,29.5,30.27,NNW,338,11.0,15.0,39,0.00,,---,0.00,385.00,VWS V14.00,2013-01-22 16:43:00,
2013-01-22 11:44:00,54.0,29.6,30.27,NNW,334,14.0,15.0,39,0.00,,---,0.00,396.00,VWS V14.00,2013-01-22 16:44:00,
2013-01-22 11:45:00,54.0,30.2,30.27,NNW,347,9.0,15.0,40,0.00,,---,0.00,422.00,VWS V14.00,2013-01-22 16:45:00,
2013-01-22 11:46:00,54.1,29.1,30.27,NNW,335,9.0,15.0,38,0.00,,---,0.00,415.00,VWS V14.00,2013-01-22 16:46:00,
2013-01-22 11:47:00,54.1,29.1,30.27,NNW,337,9.0,15.0,38,0.00,,---,0.00,378.00,VWS V14.00,2013-01-22 16:47:00,
2013-01-22 11:48:00,54.1,29.1,30.27,NNW,343,11.0,15.0,38,0.00,,---,0.00,371.00,VWS V14.00,2013-01-22 16:48:00,
2013-01-22 11:49:00,54.2,28.5,30.27,NNW,330,11.0,15.0,37,0.00,,---,0.00,330.00,VWS V14.00,2013-01-22 16:49:00,
2013-01-22 11:50:00,54.2,29.8,30.27,NW,325,13.0,15.0,39,0.00,,---,0.00,332.00,VWS V14.00,2013-01-22 16:50:00,
2013-01-22 11:51:00,54.2,29.8,30.27,NNW,347,9.0,15.0,39,0.00,,---,0.00,401.00,VWS V14.00,2013-01-22 16:51:00,
2013-01-22 11:52:00,54.2,28.5,30.27,NNW,343,9.0,15.0,37,0.00,,---,0.00,385.00,VWS V14.00,2013-01-22 16:52:00,
2013-01-22 11:53:00,54.3,31.1,30.27,NNW,331,8.0,15.0,41,0.00,,---,0.00,390.00,VWS V14.00,2013-01-22 16:53:00,
2013-01-22 11:54:00,54.4,32.4,30.26,NNW,331,10.0,15.0,43,0.00,,---,0.00,381.00,VWS V14.00,2013-01-22 16:54:00,
2013-01-22 11:55:00,54.5,32.5,30.26,NW,323,7.0,15.0,43,0.00,,---,0.00,450.00,VWS V14.00,2013-01-22 16:55:00,
2013-01-22 11:56:00,54.5,30.7,30.26,NW,310,7.0,15.0,40,0.00,,---,0.00,432.00,VWS V14.00,2013-01-22 16:56:00,
2013-01-22 11:57:00,54.6,31.4,30.26,NW,310,7.0,15.0,41,0.00,,---,0.00,466.00,VWS V14.00,2013-01-22 16:57:00,
2013-01-22 11:58:00,54.6,30.2,30.26,NW,320,9.0,15.0,39,0.00,,---,0.00,487.00,VWS V14.00,2013-01-22 16:58:00,
2013-01-22 11:59:00,54.6,29.5,30.26,NW,324,7.0,15.0,38,0.00,,---,0.00,497.00,VWS V14.00,2013-01-22 16:59:00,
2013-01-22 12:00:00,54.6,29.5,30.26,NW,306,5.0,15.0,38,0.00,,---,0.00,522.00,VWS V14.00,2013-01-22 17:00:00,
2013-01-22 12:01:00,54.7,31.5,30.26,NW,318,9.0,10.0,41,0.00,,---,0.00,494.00,VWS V14.00,2013-01-22 17:01:00,
2013-01-22 12:02:00,54.8,30.3,30.26,NW,325,8.0,10.0,39,0.00,,---,0.00,504.00,VWS V14.00,2013-01-22 17:02:00,
2013-01-22 12:03:00,54.8,31.0,30.26,NW,324,6.0,10.0,40,0.00,,---,0.00,512.00,VWS V14.00,2013-01-22 17:03:00,
2013-01-22 12:04:00,54.8,31.0,30.26,NW,324,10.0,11.0,40,0.00,,---,0.00,492.00,VWS V14.00,2013-01-22 17:04:00,
2013-01-22 12:05:00,54.8,29.7,30.26,NNW,328,7.0,11.0,38,0.00,,---,0.00,508.00,VWS V14.00,2013-01-22 17:05:00,
2013-01-22 12:06:00,54.8,29.0,30.26,NNW,328,4.0,11.0,37,0.00,,---,0.00,504.00,VWS V14.00,2013-01-22 17:06:00,
2013-01-22 12:07:00,54.8,30.3,30.26,NNW,340,9.0,11.0,39,0.00,,---,0.00,483.00,VWS V14.00,2013-01-22 17:07:00,
2013-01-22 12:08:00,54.8,29.7,30.26,NNW,341,7.0,11.0,38,0.00,,---,0.00,487.00,VWS V14.00,2013-01-22 17:08:00,
2013-01-22 12:09:00,54.9,29.1,30.26,NNW,333,11.0,11.0,37,0.00,,---,0.00,468.00,VWS V14.00,2013-01-22 17:09:00,
2013-01-22 12:10:00,54.9,32.3,30.26,NNW,338,7.0,11.0,42,0.00,,---,0.00,466.00,VWS V14.00,2013-01-22 17:10:00,
2013-01-22 12:11:00,54.9,29.8,30.26,NW,317,7.0,11.0,38,0.00,,---,0.00,455.00,VWS V14.00,2013-01-22 17:11:00,
2013-01-22 12:12:00,54.9,29.8,30.26,NNW,336,9.0,11.0,38,0.00,,---,0.00,452.00,VWS V14.00,2013-01-22 17:12:00,
2013-01-22 12:13:00,55.0,30.5,30.25,NNW,330,13.0,13.0,39,0.00,,---,0.00,494.00,VWS V14.00,2013-01-22 17:13:00,
2013-01-22 12:14:00,55.0,30.5,30.26,NW,321,10.0,15.0,39,0.00,,---,0.00,490.00,VWS V14.00,2013-01-22 17:14:00,
2013-01-22 12:15:00,55.1,30.6,30.26,NW,313,9.0,15.0,39,0.00,,---,0.00,512.00,VWS V14.00,2013-01-22 17:15:00,
2013-01-22 12:16:00,55.1,29.3,30.25,NNW,329,10.0,15.0,37,0.00,,---,0.00,519.00,VWS V14.00,2013-01-22 17:16:00,
2013-01-22 12:17:00,55.1,30.6,30.25,NW,314,6.0,15.0,39,0.00,,---,0.00,559.00,VWS V14.00,2013-01-22 17:17:00,
2013-01-22 12:18:00,55.2,30.1,30.25,NNW,328,8.0,15.0,38,0.00,,---,0.00,543.00,VWS V14.00,2013-01-22 17:18:00,
2013-01-22 12:19:00,55.3,29.5,30.25,NNW,330,11.0,16.0,37,0.00,,---,0.00,564.00,VWS V14.00,2013-01-22 17:19:00,
2013-01-22 12:20:00,55.3,28.8,30.25,NW,314,10.0,16.0,36,0.00,,---,0.00,591.00,VWS V14.00,2013-01-22 17:20:00,
2013-01-22 12:21:00,55.4,28.2,30.25,NW,323,8.0,16.0,35,0.00,,---,0.00,568.00,VWS V14.00,2013-01-22 17:21:00,
2013-01-22 12:22:00,55.4,28.2,30.25,NNW,336,8.0,16.0,35,0.00,,---,0.00,570.00,VWS V14.00,2013-01-22 17:22:00,
2013-01-22 12:23:00,55.4,28.9,30.25,NW,314,11.0,17.0,36,0.00,,---,0.00,599.00,VWS V14.00,2013-01-22 17:23:00,
2013-01-22 12:24:00,55.4,28.9,30.25,NW,314,7.0,17.0,36,0.00,,---,0.00,552.00,VWS V14.00,2013-01-22 17:24:00,
2013-01-22 12:25:00,55.4,30.2,30.25,NNW,335,16.0,17.0,38,0.00,,---,0.00,603.00,VWS V14.00,2013-01-22 17:25:00,
2013-01-22 12:26:00,55.5,29.7,30.25,NNW,333,10.0,17.0,37,0.00,,---,0.00,603.00,VWS V14.00,2013-01-22 17:26:00,
2013-01-22 12:27:00,55.4,30.2,30.25,NNW,337,11.0,17.0,38,0.00,,---,0.00,554.00,VWS V14.00,2013-01-22 17:27:00,
2013-01-22 12:28:00,55.3,28.8,30.25,NW,319,9.0,17.0,36,0.00,,---,0.00,499.00,VWS V14.00,2013-01-22 17:28:00,
2013-01-22 12:29:00,55.3,29.5,30.25,NW,318,11.0,17.0,37,0.00,,---,0.00,480.00,VWS V14.00,2013-01-22 17:29:00,
2013-01-22 12:30:00,55.3,28.8,30.25,NW,321,8.0,17.0,36,0.00,,---,0.00,492.00,VWS V14.00,2013-01-22 17:30:00,
2013-01-22 12:31:00,55.3,28.8,30.24,WNW,297,8.0,10.0,36,0.00,,---,0.00,526.00,VWS V14.00,2013-01-22 17:31:00,
2013-01-22 12:32:00,55.2,28.0,30.24,NW,321,5.0,10.0,35,0.00,,---,0.00,478.00,VWS V14.00,2013-01-22 17:32:00,
2013-01-22 12:33:00,55.3,28.8,30.24,NNW,330,6.0,11.0,36,0.00,,---,0.00,464.00,VWS V14.00,2013-01-22 17:33:00,
2013-01-22 12:34:00,55.4,29.6,30.24,WNW,288,5.0,11.0,37,0.00,,---,0.00,512.00,VWS V14.00,2013-01-22 17:34:00,
2013-01-22 12:35:00,55.4,28.2,30.24,NW,312,5.0,11.0,35,0.00,,---,0.00,503.00,VWS V14.00,2013-01-22 17:35:00,
2013-01-22 12:36:00,55.5,29.7,30.24,NNW,337,8.0,11.0,37,0.00,,---,0.00,522.00,VWS V14.00,2013-01-22 17:36:00,
2013-01-22 12:37:00,55.6,31.7,30.24,NNW,328,6.0,11.0,40,0.00,,---,0.00,540.00,VWS V14.00,2013-01-22 17:37:00,
2013-01-22 12:38:00,55.6,29.8,30.24,NNW,327,9.0,11.0,37,0.00,,---,0.00,571.00,VWS V14.00,2013-01-22 17:38:00,
2013-01-22 12:39:00,55.7,30.5,30.24,NNW,331,12.0,12.0,38,0.00,,---,0.00,552.00,VWS V14.00,2013-01-22 17:39:00,
2013-01-22 12:40:00,55.7,29.9,30.24,NNW,334,13.0,13.0,37,0.00,,---,0.00,557.00,VWS V14.00,2013-01-22 17:40:00,
2013-01-22 13:00:00,59.1,28.5,30.21,WNW,300,5.0,15.0,31,0.00,,---,0.00,490.00,VWS V14.00,2013-01-22 18:00:00,
2013-01-22 13:30:00,60.2,31.0,30.21,NW,322,7.0,15.0,33,0.00,,---,0.00,452.00,VWS V14.00,2013-01-22 18:30:00,
2013-01-22 14:00:00,60.7,30.7,30.21,NW,304,6.0,15.0,32,0.00,,---,0.00,318.00,VWS V14.00,2013-01-22 19:00:00,
2013-01-22 14:30:00,60.9,29.3,30.21,WNW,296,8.0,14.0,30,0.00,,---,0.00,364.00,VWS V14.00,2013-01-22 19:30:00,
2013-01-22 15:00:00,60.2,28.7,30.23,NNW,328,10.0,16.0,30,0.00,,---,0.00,195.00,VWS V14.00,2013-01-22 20:00:00,
2013-01-22 15:30:00,60.4,30.4,30.23,NW,316,9.0,13.0,32,0.00,,---,0.00,218.00,VWS V14.00,2013-01-22 20:30:00,
2013-01-22 16:00:00,59.5,28.9,30.24,NW,314,7.0,13.0,31,0.00,,---,0.00,51.00,VWS V14.00,2013-01-22 21:00:00,
2013-01-22 16:30:00,58.6,29.6,30.25,NW,312,4.0,11.0,33,0.00,,---,0.00,11.00,VWS V14.00,2013-01-22 21:30:00,
2013-01-22 16:31:00,60.4,30.4,30.23,NW,308,7.0,11.0,32,0.00,,---,0.00,192.00,VWS V14.00,2013-01-22 21:31:00,
2013-01-22 16:32:00,60.4,30.4,30.23,NW,308,6.0,11.0,32,0.00,,---,0.00,188.00,VWS V14.00,2013-01-22 21:32:00,
2013-01-22 16:33:00,60.4,30.4,30.23,WNW,291,7.0,13.0,32,0.00,,---,0.00,185.00,VWS V14.00,2013-01-22 21:33:00,
2013-01-22 16:34:00,60.4,28.0,30.23,WNW,299,11.0,13.0,29,0.00,,---,0.00,135.00,VWS V14.00,2013-01-22 21:34:00,
2013-01-22 16:35:00,60.3,28.8,30.23,NW,312,8.0,13.0,30,0.00,,---,0.00,98.00,VWS V14.00,2013-01-22 21:35:00,
2013-01-22 16:36:00,60.3,28.8,30.23,West,274,8.0,13.0,30,0.00,,---,0.00,97.00,VWS V14.00,2013-01-22 21:36:00,
2013-01-22 16:37:00,60.2,28.7,30.23,WNW,283,9.0,13.0,30,0.00,,---,0.00,93.00,VWS V14.00,2013-01-22 21:37:00,
2013-01-22 16:38:00,60.2,27.9,30.23,WNW,288,7.0,13.0,29,0.00,,---,0.00,86.00,VWS V14.00,2013-01-22 21:38:00,
2013-01-22 16:39:00,60.1,28.6,30.23,WNW,299,5.0,13.0,30,0.00,,---,0.00,86.00,VWS V14.00,2013-01-22 21:39:00,
2013-01-22 16:40:00,60.0,28.5,30.23,WNW,292,9.0,13.0,30,0.00,,---,0.00,81.00,VWS V14.00,2013-01-22 21:40:00,
2013-01-22 16:41:00,60.0,29.3,30.24,NW,314,7.0,13.0,31,0.00,,---,0.00,79.00,VWS V14.00,2013-01-22 21:41:00,
2013-01-22 16:42:00,60.0,28.5,30.24,WNW,299,5.0,13.0,30,0.00,,---,0.00,77.00,VWS V14.00,2013-01-22 21:42:00,
2013-01-22 16:43:00,60.0,29.3,30.24,NW,304,5.0,13.0,31,0.00,,---,0.00,76.00,VWS V14.00,2013-01-22 21:43:00,
2013-01-22 16:44:00,60.0,30.1,30.24,NW,310,7.0,13.0,32,0.00,,---,0.00,76.00,VWS V14.00,2013-01-22 21:44:00,
2013-01-22 16:45:00,60.0,29.3,30.24,WNW,299,5.0,13.0,31,0.00,,---,0.00,79.00,VWS V14.00,2013-01-22 21:45:00,
2013-01-22 16:46:00,59.9,29.2,30.24,WNW,300,5.0,13.0,31,0.00,,---,0.00,83.00,VWS V14.00,2013-01-22 21:46:00,
2013-01-22 16:47:00,59.9,29.2,30.24,WNW,294,7.0,13.0,31,0.00,,---,0.00,83.00,VWS V14.00,2013-01-22 21:47:00,
2013-01-22 16:48:00,59.8,29.1,30.24,NW,315,9.0,13.0,31,0.00,,---,0.00,79.00,VWS V14.00,2013-01-22 21:48:00,
2013-01-22 16:49:00,59.8,27.5,30.24,NW,324,6.0,13.0,29,0.00,,---,0.00,74.00,VWS V14.00,2013-01-22 21:49:00,
2013-01-22 16:50:00,59.8,28.3,30.24,WNW,289,5.0,13.0,30,0.00,,---,0.00,72.00,VWS V14.00,2013-01-22 21:50:00,
2013-01-22 16:51:00,59.7,29.8,30.24,NW,306,7.0,13.0,32,0.00,,---,0.00,70.00,VWS V14.00,2013-01-22 21:51:00,
2013-01-22 16:52:00,59.7,29.0,30.24,WNW,303,4.0,13.0,31,0.00,,---,0.00,69.00,VWS V14.00,2013-01-22 21:52:00,
2013-01-22 16:53:00,59.7,29.0,30.24,WNW,289,7.0,13.0,31,0.00,,---,0.00,67.00,VWS V14.00,2013-01-22 21:53:00,
2013-01-22 16:54:00,59.6,30.5,30.24,WNW,296,4.0,13.0,33,0.00,,---,0.00,65.00,VWS V14.00,2013-01-22 21:54:00,
2013-01-22 16:55:00,59.6,28.1,30.24,WNW,301,5.0,13.0,30,0.00,,---,0.00,63.00,VWS V14.00,2013-01-22 21:55:00,
2013-01-22 16:56:00,59.5,28.1,30.24,WNW,294,5.0,13.0,30,0.00,,---,0.00,62.00,VWS V14.00,2013-01-22 21:56:00,
2013-01-22 16:57:00,59.5,28.1,30.24,WNW,294,7.0,13.0,30,0.00,,---,0.00,60.00,VWS V14.00,2013-01-22 21:57:00,
2013-01-22 16:58:00,59.5,28.1,30.24,WNW,292,10.0,13.0,30,0.00,,---,0.00,58.00,VWS V14.00,2013-01-22 21:58:00,
2013-01-22 16:59:00,59.5,28.9,30.24,NW,308,6.0,13.0,31,0.00,,---,0.00,54.00,VWS V14.00,2013-01-22 21:59:00,
2013-01-22 17:00:00,59.5,28.9,30.24,NW,314,7.0,13.0,31,0.00,,---,0.00,51.00,VWS V14.00,2013-01-22 22:00:00,
2013-01-22 17:01:00,59.5,28.9,30.24,WNW,298,5.0,9.0,31,0.00,,---,0.00,49.00,VWS V14.00,2013-01-22 22:01:00,
2013-01-22 17:02:00,59.4,28.8,30.24,NW,312,4.0,9.0,31,0.00,,---,0.00,47.00,VWS V14.00,2013-01-22 22:02:00,
2013-01-22 17:03:00,59.4,29.6,30.24,NW,312,2.0,9.0,32,0.00,,---,0.00,47.00,VWS V14.00,2013-01-22 22:03:00,
2013-01-22 17:04:00,59.4,28.8,30.24,NW,312,3.0,9.0,31,0.00,,---,0.00,46.00,VWS V14.00,2013-01-22 22:04:00,
2013-01-22 17:05:00,59.4,28.8,30.24,NW,310,3.0,9.0,31,0.00,,---,0.00,44.00,VWS V14.00,2013-01-22 22:05:00,
2013-01-22 17:06:00,59.3,28.7,30.24,NW,311,6.0,9.0,31,0.00,,---,0.00,40.00,VWS V14.00,2013-01-22 22:06:00,
2013-01-22 17:07:00,59.3,28.7,30.24,NW,310,3.0,9.0,31,0.00,,---,0.00,39.00,VWS V14.00,2013-01-22 22:07:00,
2013-01-22 17:08:00,59.3,29.5,30.24,NW,309,4.0,9.0,32,0.00,,---,0.00,37.00,VWS V14.00,2013-01-22 22:08:00,
2013-01-22 17:09:00,59.3,29.5,30.24,NW,308,3.0,9.0,32,0.00,,---,0.00,37.00,VWS V14.00,2013-01-22 22:09:00,
2013-01-22 17:10:00,59.2,30.1,30.24,NW,308,2.0,9.0,33,0.00,,---,0.00,35.00,VWS V14.00,2013-01-22 22:10:00,
2013-01-22 17:11:00,59.2,29.4,30.24,NW,304,6.0,9.0,32,0.00,,---,0.00,33.00,VWS V14.00,2013-01-22 22:11:00,
2013-01-22 17:12:00,59.2,30.1,30.24,NW,304,4.0,9.0,33,0.00,,---,0.00,32.00,VWS V14.00,2013-01-22 22:12:00,
2013-01-22 17:13:00,59.1,30.8,30.24,NW,304,4.0,9.0,34,0.00,,---,0.00,32.00,VWS V14.00,2013-01-22 22:13:00,
2013-01-22 17:14:00,59.1,30.0,30.24,NW,304,7.0,9.0,33,0.00,,---,0.00,30.00,VWS V14.00,2013-01-22 22:14:00,
2013-01-22 17:15:00,59.1,30.0,30.24,WNW,301,3.0,9.0,33,0.00,,---,0.00,28.00,VWS V14.00,2013-01-22 22:15:00,
2013-01-22 17:16:00,59.1,30.8,30.24,WNW,301,5.0,9.0,34,0.00,,---,0.00,28.00,VWS V14.00,2013-01-22 22:16:00,
2013-01-22 17:17:00,59.0,29.2,30.24,WNW,297,2.0,9.0,32,0.00,,---,0.00,26.00,VWS V14.00,2013-01-22 22:17:00,
2013-01-22 17:18:00,59.0,30.7,30.24,WNW,298,4.0,9.0,34,0.00,,---,0.00,25.00,VWS V14.00,2013-01-22 22:18:00,
2013-01-22 17:19:00,58.9,29.9,30.24,WNW,297,4.0,9.0,33,0.00,,---,0.00,23.00,VWS V14.00,2013-01-22 22:19:00,
2013-01-22 17:20:00,58.9,29.9,30.24,WNW,298,3.0,9.0,33,0.00,,---,0.00,23.00,VWS V14.00,2013-01-22 22:20:00,
2013-01-22 17:21:00,58.9,30.6,30.25,WNW,301,5.0,9.0,34,0.00,,---,0.00,21.00,VWS V14.00,2013-01-22 22:21:00,
2013-01-22 17:22:00,58.9,30.6,30.24,WNW,303,4.0,9.0,34,0.00,,---,0.00,21.00,VWS V14.00,2013-01-22 22:22:00,
2013-01-22 17:23:00,58.8,29.8,30.24,NW,308,6.0,9.0,33,0.00,,---,0.00,19.00,VWS V14.00,2013-01-22 22:23:00,
2013-01-22 17:24:00,58.8,29.8,30.25,NNW,327,9.0,10.0,33,0.00,,---,0.00,18.00,VWS V14.00,2013-01-22 22:24:00,
2013-01-22 17:25:00,58.7,28.9,30.25,NW,308,6.0,11.0,32,0.00,,---,0.00,16.00,VWS V14.00,2013-01-22 22:25:00,
2013-01-22 17:26:00,58.7,29.7,30.25,WNW,301,5.0,11.0,33,0.00,,---,0.00,16.00,VWS V14.00,2013-01-22 22:26:00,
2013-01-22 17:27:00,58.7,30.4,30.24,NW,314,5.0,11.0,34,0.00,,---,0.00,14.00,VWS V14.00,2013-01-22 22:27:00,
2013-01-22 17:28:00,58.7,30.4,30.25,WNW,298,5.0,11.0,34,0.00,,---,0.00,12.00,VWS V14.00,2013-01-22 22:28:00,
2013-01-22 17:29:00,58.7,29.7,30.25,NW,307,6.0,11.0,33,0.00,,---,0.00,12.00,VWS V14.00,2013-01-22 22:29:00,
2013-01-22 17:30:00,58.6,29.6,30.25,NW,312,4.0,11.0,33,0.00,,---,0.00,11.00,VWS V14.00,2013-01-22 22:30:00,
2013-01-22 17:31:00,58.6,30.3,30.24,NW,314,5.0,6.0,34,0.00,,---,0.00,9.00,VWS V14.00,2013-01-22 22:31:00,
2013-01-22 17:32:00,58.6,29.6,30.25,WNW,300,4.0,7.0,33,0.00,,---,0.00,9.00,VWS V14.00,2013-01-22 22:32:00,
2013-01-22 17:33:00,58.5,29.5,30.25,NW,316,6.0,9.0,33,0.00,,---,0.00,7.00,VWS V14.00,2013-01-22 22:33:00,
2013-01-22 17:34:00,58.5,29.5,30.25,NW,315,3.0,9.0,33,0.00,,---,0.00,7.00,VWS V14.00,2013-01-22 22:34:00,
2013-01-22 17:35:00,58.5,28.8,30.25,NW,315,3.0,9.0,32,0.00,,---,0.00,7.00,VWS V14.00,2013-01-22 22:35:00,
2013-01-22 17:36:00,58.4,28.7,30.25,NW,315,4.0,9.0,32,0.00,,---,0.00,5.00,VWS V14.00,2013-01-22 22:36:00,
2013-01-22 17:37:00,58.4,30.2,30.25,NW,313,4.0,9.0,34,0.00,,---,0.00,5.00,VWS V14.00,2013-01-22 22:37:00,
2013-01-22 17:38:00,58.4,28.7,30.25,WNW,296,4.0,9.0,32,0.00,,---,0.00,0.00,VWS V14.00,2013-01-22 22:38:00,
2013-01-22 17:39:00,58.3,30.8,30.25,WNW,296,4.0,9.0,35,0.00,,---,0.00,0.00,VWS V14.00,2013-01-22 22:39:00,
2013-01-22 17:40:00,58.3,30.8,30.25,WNW,296,2.0,9.0,35,0.00,,---,0.00,0.00,VWS V14.00,2013-01-22 22:40:00,
2013-01-22 17:41:00,58.3,30.1,30.25,WNW,303,4.0,9.0,34,0.00,,---,0.00,0.00,VWS V14.00,2013-01-22 22:41:00,
2013-01-22 17:42:00,58.2,30.0,30.25,NW,308,4.0,9.0,34,0.00,,---,0.00,0.00,VWS V14.00,2013-01-22 22:42:00,
2013-01-22 17:43:00,58.2,30.0,30.25,NW,308,4.0,9.0,34,0.00,,---,0.00,0.00,VWS V14.00,2013-01-22 22:43:00,
2013-01-22 17:44:00,58.1,29.9,30.25,NW,308,3.0,9.0,34,0.00,,---,0.00,0.00,VWS V14.00,2013-01-22 22:44:00,
2013-01-22 17:45:00,58.1,29.2,30.25,NW,308,2.0,9.0,33,0.00,,---,0.00,0.00,VWS V14.00,2013-01-22 22:45:00,
2013-01-22 17:46:00,58.1,30.6,30.25,NW,308,2.0,9.0,35,0.00,,---,0.00,0.00,VWS V14.00,2013-01-22 22:46:00,
2013-01-22 17:47:00,58.0,30.5,30.25,NW,308,3.0,9.0,35,0.00,,---,0.00,0.00,VWS V14.00,2013-01-22 22:47:00,
2013-01-22 17:48:00,58.0,29.1,30.25,NW,308,5.0,9.0,33,0.00,,---,0.00,0.00,VWS V14.00,2013-01-22 22:48:00,
2013-01-22 17:49:00,57.9,29.0,30.25,NW,306,5.0,9.0,33,0.00,,---,0.00,0.00,VWS V14.00,2013-01-22 22:49:00,
2013-01-22 17:50:00,57.9,29.7,30.25,NW,315,4.0,9.0,34,0.00,,---,0.00,0.00,VWS V14.00,2013-01-22 22:50:00,
2013-01-22 17:51:00,57.8,29.6,30.25,NW,315,3.0,9.0,34,0.00,,---,0.00,0.00,VWS V14.00,2013-01-22 22:51:00,
2013-01-22 17:52:00,57.8,30.4,30.25,NW,314,3.0,9.0,35,0.00,,---,0.00,0.00,VWS V14.00,2013-01-22 22:52:00,
2013-01-22 17:53:00,57.8,30.4,30.25,NW,314,3.0,9.0,35,0.00,,---,0.00,0.00,VWS V14.00,2013-01-22 22:53:00,
2013-01-22 17:54:00,57.8,30.4,30.25,NW,312,4.0,9.0,35,0.00,,---,0.00,0.00,VWS V14.00,2013-01-22 22:54:00,
2013-01-22 17:55:00,57.8,29.6,30.25,NW,312,4.0,9.0,34,0.00,,---,0.00,0.00,VWS V14.00,2013-01-22 22:55:00,
2013-01-22 17:56:00,57.7,29.5,30.25,NW,312,3.0,9.0,34,0.00,,---,0.00,0.00,VWS V14.00,2013-01-22 22:56:00,
2013-01-22 17:57:00,57.7,30.3,30.26,NW,312,3.0,9.0,35,0.00,,---,0.00,0.00,VWS V14.00,2013-01-22 22:57:00,
2013-01-22 17:58:00,57.7,29.5,30.25,NW,305,4.0,9.0,34,0.00,,---,0.00,0.00,VWS V14.00,2013-01-22 22:58:00,
2013-01-22 17:59:00,57.7,29.5,30.25,NW,305,4.0,9.0,34,0.00,,---,0.00,0.00,VWS V14.00,2013-01-22 22:59:00,
2013-01-22 18:00:00,57.6,29.5,30.25,NW,305,4.0,9.0,34,0.00,,---,0.00,0.00,VWS V14.00,2013-01-22 23:00:00,
2013-01-22 18:01:00,57.6,29.5,30.25,NW,306,3.0,4.0,34,0.00,,---,0.00,0.00,VWS V14.00,2013-01-22 23:01:00,
2013-01-22 18:02:00,57.6,30.2,30.25,NW,306,3.0,4.0,35,0.00,,---,0.00,0.00,VWS V14.00,2013-01-22 23:02:00,
2013-01-22 18:03:00,57.5,31.5,30.25,NW,305,4.0,4.0,37,0.00,,---,0.00,0.00,VWS V14.00,2013-01-22 23:03:00,
2013-01-22 18:04:00,57.5,30.1,30.26,NW,304,3.0,5.0,35,0.00,,---,0.00,0.00,VWS V14.00,2013-01-22 23:04:00,
2013-01-22 18:05:00,57.5,30.1,30.26,NW,304,3.0,5.0,35,0.00,,---,0.00,0.00,VWS V14.00,2013-01-22 23:05:00,
2013-01-22 18:06:00,57.4,30.7,30.25,NW,304,3.0,6.0,36,0.00,,---,0.00,0.00,VWS V14.00,2013-01-22 23:06:00,
2013-01-22 18:07:00,57.4,29.3,30.25,WNW,303,4.0,6.0,34,0.00,,---,0.00,0.00,VWS V14.00,2013-01-22 23:07:00,
2013-01-22 18:08:00,57.3,29.2,30.26,WNW,303,2.0,6.0,34,0.00,,---,0.00,0.00,VWS V14.00,2013-01-22 23:08:00,
2013-01-22 18:09:00,57.3,29.9,30.26,WNW,303,2.0,6.0,35,0.00,,---,0.00,0.00,VWS V14.00,2013-01-22 23:09:00,
2013-01-22 18:10:00,57.3,31.3,30.26,WNW,303,3.0,6.0,37,0.00,,---,0.00,0.00,VWS V14.00,2013-01-22 23:10:00,
2013-01-22 18:11:00,57.2,30.5,30.26,WNW,303,3.0,6.0,36,0.00,,---,0.00,0.00,VWS V14.00,2013-01-22 23:11:00,
2013-01-22 18:12:00,57.2,31.2,30.26,WNW,303,2.0,6.0,37,0.00,,---,0.00,0.00,VWS V14.00,2013-01-22 23:12:00,
2013-01-22 18:13:00,57.2,31.2,30.26,WNW,303,4.0,6.0,37,0.00,,---,0.00,0.00,VWS V14.00,2013-01-22 23:13:00,
2013-01-22 18:14:00,57.1,30.4,30.26,WNW,303,4.0,7.0,36,0.00,,---,0.00,0.00,VWS V14.00,2013-01-22 23:14:00,
2013-01-22 18:15:00,57.1,30.4,30.26,WNW,297,2.0,7.0,36,0.00,,---,0.00,0.00,VWS V14.00,2013-01-22 23:15:00,
2013-01-22 18:16:00,57.1,30.4,30.26,WNW,297,2.0,7.0,36,0.00,,---,0.00,0.00,VWS V14.00,2013-01-22 23:16:00,
2013-01-22 18:17:00,57.0,30.3,30.26,WNW,297,3.0,7.0,36,0.00,,---,0.00,0.00,VWS V14.00,2013-01-22 23:17:00,
2013-01-22 18:18:00,57.0,30.3,30.26,WNW,296,3.0,7.0,36,0.00,,---,0.00,0.00,VWS V14.00,2013-01-22 23:18:00,
2013-01-22 18:19:00,56.9,30.2,30.26,WNW,297,2.0,7.0,36,0.00,,---,0.00,0.00,VWS V14.00,2013-01-22 23:19:00,
2013-01-22 18:20:00,56.9,30.2,30.25,WNW,297,2.0,7.0,36,0.00,,---,0.00,0.00,VWS V14.00,2013-01-22 23:20:00,
2013-01-22 18:21:00,56.9,31.6,30.26,WNW,297,2.0,7.0,38,0.00,,---,0.00,0.00,VWS V14.00,2013-01-22 23:21:00,
2013-01-22 18:22:00,56.9,32.2,30.26,WNW,297,3.0,7.0,39,0.00,,---,0.00,0.00,VWS V14.00,2013-01-22 23:22:00,
2013-01-22 18:23:00,56.8,31.5,30.26,WNW,297,2.0,7.0,38,0.00,,---,0.00,0.00,VWS V14.00,2013-01-22 23:23:00,
2013-01-22 18:24:00,56.8,30.8,30.25,WNW,297,3.0,7.0,37,0.00,,---,0.00,0.00,VWS V14.00,2013-01-22 23:24:00,
2013-01-22 18:25:00,56.7,31.4,30.25,WNW,297,2.0,7.0,38,0.00,,---,0.00,0.00,VWS V14.00,2013-01-22 23:25:00,
2013-01-22 18:26:00,56.7,32.0,30.25,WNW,297,2.0,7.0,39,0.00,,---,0.00,0.00,VWS V14.00,2013-01-22 23:26:00,
2013-01-22 18:27:00,56.6,31.3,30.25,WNW,297,1.0,7.0,38,0.00,,---,0.00,0.00,VWS V14.00,2013-01-22 23:27:00,
2013-01-22 18:28:00,56.6,30.6,30.25,WNW,297,2.0,7.0,37,0.00,,---,0.00,0.00,VWS V14.00,2013-01-22 23:28:00,
2013-01-22 18:29:00,56.6,30.6,30.25,WNW,297,3.0,7.0,37,0.00,,---,0.00,0.00,VWS V14.00,2013-01-22 23:29:00,
2013-01-22 18:30:00,56.5,30.6,30.25,WNW,297,3.0,7.0,37,0.00,,---,0.00,0.00,VWS V14.00,2013-01-22 23:30:00,
2013-01-22 18:31:00,56.4,31.1,30.25,WNW,297,2.0,3.0,38,0.00,,---,0.00,0.00,VWS V14.00,2013-01-22 23:31:00,
2013-01-22 18:32:00,56.4,31.1,30.25,WNW,297,2.0,4.0,38,0.00,,---,0.00,0.00,VWS V14.00,2013-01-22 23:32:00,
2013-01-22 18:33:00,56.3,31.0,30.25,WNW,297,1.0,4.0,38,0.00,,---,0.00,0.00,VWS V14.00,2013-01-22 23:33:00,
2013-01-22 18:34:00,56.3,31.7,30.25,WNW,297,2.0,4.0,39,0.00,,---,0.00,0.00,VWS V14.00,2013-01-22 23:34:00,
2013-01-22 18:35:00,56.3,32.3,30.25,WNW,297,2.0,4.0,40,0.00,,---,0.00,0.00,VWS V14.00,2013-01-22 23:35:00,
2013-01-22 18:36:00,56.2,31.6,30.26,WNW,297,3.0,4.0,39,0.00,,---,0.00,0.00,VWS V14.00,2013-01-22 23:36:00,
2013-01-22 18:37:00,56.2,31.0,30.26,WNW,297,2.0,4.0,38,0.00,,---,0.00,0.00,VWS V14.00,2013-01-22 23:37:00,
2013-01-22 18:38:00,56.1,30.9,30.25,WNW,297,3.0,4.0,38,0.00,,---,0.00,0.00,VWS V14.00,2013-01-22 23:38:00,
2013-01-22 18:39:00,56.1,30.9,30.26,WNW,297,2.0,4.0,38,0.00,,---,0.00,0.00,VWS V14.00,2013-01-22 23:39:00,
2013-01-22 18:40:00,56.0,30.8,30.25,WNW,297,2.0,4.0,38,0.00,,---,0.00,0.00,VWS V14.00,2013-01-22 23:40:00,
2013-01-22 18:41:00,56.0,30.8,30.26,WNW,297,2.0,4.0,38,0.00,,---,0.00,0.00,VWS V14.00,2013-01-22 23:41:00,
2013-01-22 18:42:00,55.9,32.0,30.26,WNW,297,2.0,4.0,40,0.00,,---,0.00,0.00,VWS V14.00,2013-01-22 23:42:00,
2013-01-22 18:43:00,55.9,31.3,30.26,WNW,297,0.0,4.0,39,0.00,,---,0.00,0.00,VWS V14.00,2013-01-22 23:43:00,
2013-01-22 18:44:00,55.8,30.6,30.26,WNW,297,2.0,4.0,38,0.00,,---,0.00,0.00,VWS V14.00,2013-01-22 23:44:00,
2013-01-22 18:45:00,55.8,29.9,30.26,WNW,297,1.0,4.0,37,0.00,,---,0.00,0.00,VWS V14.00,2013-01-22 23:45:00,
2013-01-22 18:46:00,55.8,31.2,30.26,WNW,297,0.0,4.0,39,0.00,,---,0.00,0.00,VWS V14.00,2013-01-22 23:46:00,
2013-01-22 18:47:00,55.8,31.9,30.26,WNW,297,0.0,4.0,40,0.00,,---,0.00,0.00,VWS V14.00,2013-01-22 23:47:00,
2013-01-22 18:48:00,55.7,31.1,30.26,WNW,297,0.0,4.0,39,0.00,,---,0.00,0.00,VWS V14.00,2013-01-22 23:48:00,
2013-01-22 18:49:00,55.7,31.8,30.26,WNW,297,0.0,4.0,40,0.00,,---,0.00,0.00,VWS V14.00,2013-01-22 23:49:00,
2013-01-22 18:50:00,55.7,31.1,30.26,WNW,297,0.0,4.0,39,0.00,,---,0.00,0.00,VWS V14.00,2013-01-22 23:50:00,
2013-01-22 18:51:00,55.7,31.1,30.26,WNW,297,2.0,4.0,39,0.00,,---,0.00,0.00,VWS V14.00,2013-01-22 23:51:00,
2013-01-22 18:52:00,55.6,31.7,30.26,WNW,297,0.0,4.0,40,0.00,,---,0.00,0.00,VWS V14.00,2013-01-22 23:52:00,
2013-01-22 18:53:00,55.6,32.3,30.26,WNW,297,1.0,4.0,41,0.00,,---,0.00,0.00,VWS V14.00,2013-01-22 23:53:00,
2013-01-22 18:54:00,55.5,31.6,30.26,WNW,297,0.0,4.0,40,0.00,,---,0.00,0.00,VWS V14.00,2013-01-22 23:54:00,
2013-01-22 18:55:00,55.5,31.6,30.26,WNW,297,0.0,4.0,40,0.00,,---,0.00,0.00,VWS V14.00,2013-01-22 23:55:00,
2013-01-22 18:56:00,55.5,31.0,30.26,WNW,297,0.0,4.0,39,0.00,,---,0.00,0.00,VWS V14.00,2013-01-22 23:56:00,
2013-01-22 18:57:00,55.5,31.6,30.26,WNW,297,0.0,4.0,40,0.00,,---,0.00,0.00,VWS V14.00,2013-01-22 23:57:00,
2013-01-22 18:58:00,55.4,32.1,30.26,WNW,297,0.0,4.0,41,0.00,,---,0.00,0.00,VWS V14.00,2013-01-22 23:58:00,
2013-01-22 18:59:00,55.4,31.5,30.26,WNW,297,0.0,4.0,40,0.00,,---,0.00,0.00,VWS V14.00,2013-01-22 23:59:00,
2013-01-22 19:00:00,55.4,32.7,30.26,WNW,297,0.0,4.0,42,0.00,,---,0.00,0.00,VWS V14.00,2013-01-23 00:00:00,
2013-01-22 19:01:00,55.3,31.4,30.26,WNW,297,1.0,3.0,40,0.00,,---,0.00,0.00,VWS V14.00,2013-01-23 00:01:00,
2013-01-22 19:02:00,55.3,32.0,30.26,WNW,297,0.0,3.0,41,0.00,,---,0.00,0.00,VWS V14.00,2013-01-23 00:02:00,
2013-01-22 19:03:00,55.3,31.4,30.26,WNW,297,0.0,3.0,40,0.00,,---,0.00,0.00,VWS V14.00,2013-01-23 00:03:00,
2013-01-22 19:04:00,55.3,31.4,30.26,WNW,297,0.0,3.0,40,0.00,,---,0.00,0.00,VWS V14.00,2013-01-23 00:04:00,
2013-01-22 19:05:00,55.2,31.9,30.26,WNW,297,0.0,3.0,41,0.00,,---,0.00,0.00,VWS V14.00,2013-01-23 00:05:00,
2013-01-22 19:06:00,55.2,31.9,30.26,WNW,297,0.0,3.0,41,0.00,,---,0.00,0.00,VWS V14.00,2013-01-23 00:06:00,
2013-01-22 19:07:00,55.2,31.3,30.26,WNW,297,1.0,3.0,40,0.00,,---,0.00,0.00,VWS V14.00,2013-01-23 00:07:00,
2013-01-22 19:08:00,55.1,31.8,30.26,WNW,297,1.0,3.0,41,0.00,,---,0.00,0.00,VWS V14.00,2013-01-23 00:08:00,
2013-01-22 19:09:00,55.1,31.2,30.26,WNW,297,0.0,3.0,40,0.00,,---,0.00,0.00,VWS V14.00,2013-01-23 00:09:00,
2013-01-22 19:10:00,55.1,30.6,30.26,WNW,297,1.0,3.0,39,0.00,,---,0.00,0.00,VWS V14.00,2013-01-23 00:10:00,
2013-01-22 19:11:00,55.1,31.8,30.26,WNW,297,1.0,3.0,41,0.00,,---,0.00,0.00,VWS V14.00,2013-01-23 00:11:00,
2013-01-22 19:12:00,55.0,31.1,30.26,WNW,297,0.0,3.0,40,0.00,,---,0.00,0.00,VWS V14.00,2013-01-23 00:12:00,
2013-01-22 19:13:00,55.0,31.1,30.26,WNW,297,0.0,3.0,40,0.00,,---,0.00,0.00,VWS V14.00,2013-01-23 00:13:00,
2013-01-22 19:14:00,55.0,32.3,30.26,WNW,297,0.0,3.0,42,0.00,,---,0.00,0.00,VWS V14.00,2013-01-23 00:14:00,
2013-01-22 19:15:00,55.0,32.3,30.26,WNW,297,0.0,3.0,42,0.00,,---,0.00,0.00,VWS V14.00,2013-01-23 00:15:00,
2013-01-22 19:16:00,54.9,32.3,30.26,WNW,297,0.0,3.0,42,0.00,,---,0.00,0.00,VWS V14.00,2013-01-23 00:16:00,
2013-01-22 19:17:00,54.9,32.3,30.26,WNW,297,0.0,3.0,42,0.00,,---,0.00,0.00,VWS V14.00,2013-01-23 00:17:00,
2013-01-22 19:18:00,54.8,33.9,30.26,WNW,297,0.0,3.0,45,0.00,,---,0.00,0.00,VWS V14.00,2013-01-23 00:18:00,
2013-01-22 19:19:00,54.8,32.2,30.26,WNW,297,0.0,3.0,42,0.00,,---,0.00,0.00,VWS V14.00,2013-01-23 00:19:00,
2013-01-22 19:20:00,54.8,33.3,30.26,WNW,297,0.0,3.0,44,0.00,,---,0.00,0.00,VWS V14.00,2013-01-23 00:20:00,
2013-01-22 19:21:00,54.7,32.1,30.26,WNW,297,0.0,3.0,42,0.00,,---,0.00,0.00,VWS V14.00,2013-01-23 00:21:00,
2013-01-22 19:22:00,54.7,32.1,30.26,WNW,297,0.0,3.0,42,0.00,,---,0.00,0.00,VWS V14.00,2013-01-23 00:22:00,
2013-01-22 19:23:00,54.6,32.0,30.26,WNW,297,1.0,3.0,42,0.00,,---,0.00,0.00,VWS V14.00,2013-01-23 00:23:00,
2013-01-22 19:24:00,54.6,32.6,30.26,WNW,297,0.0,3.0,43,0.00,,---,0.00,0.00,VWS V14.00,2013-01-23 00:24:00,
2013-01-22 19:25:00,54.6,32.0,30.26,WNW,297,0.0,3.0,42,0.00,,---,0.00,0.00,VWS V14.00,2013-01-23 00:25:00,
2013-01-22 19:26:00,54.6,33.1,30.26,WNW,297,0.0,3.0,44,0.00,,---,0.00,0.00,VWS V14.00,2013-01-23 00:26:00,
2013-01-22 19:27:00,54.6,34.8,30.26,WNW,297,0.0,3.0,47,0.00,,---,0.00,0.00,VWS V14.00,2013-01-23 00:27:00,
2013-01-22 19:28:00,54.6,33.7,30.26,WNW,297,0.0,3.0,45,0.00,,---,0.00,0.00,VWS V14.00,2013-01-23 00:28:00,
2013-01-22 19:29:00,54.5,34.7,30.26,WNW,297,0.0,3.0,47,0.00,,---,0.00,0.00,VWS V14.00,2013-01-23 00:29:00,
2013-01-22 19:30:00,54.5,33.0,30.26,WNW,297,0.0,3.0,44,0.00,,---,0.00,0.00,VWS V14.00,2013-01-23 00:30:00,
2013-01-22 19:31:00,54.5,32.5,30.26,WNW,297,0.0,0.0,43,0.00,,---,0.00,0.00,VWS V14.00,2013-01-23 00:31:00,
2013-01-22 19:32:00,54.4,33.0,30.26,WNW,297,0.0,0.0,44,0.00,,---,0.00,0.00,VWS V14.00,2013-01-23 00:32:00,
2013-01-22 19:33:00,54.4,33.0,30.26,WNW,297,0.0,0.0,44,0.00,,---,0.00,0.00,VWS V14.00,2013-01-23 00:33:00,
2013-01-22 19:34:00,54.4,32.4,30.26,WNW,297,0.0,0.0,43,0.00,,---,0.00,0.00,VWS V14.00,2013-01-23 00:34:00,
2013-01-22 19:35:00,54.3,32.3,30.26,WNW,297,0.0,0.0,43,0.00,,---,0.00,0.00,VWS V14.00,2013-01-23 00:35:00,
2013-01-22 19:36:00,54.3,31.1,30.26,WNW,297,0.0,0.0,41,0.00,,---,0.00,0.00,VWS V14.00,2013-01-23 00:36:00,
2013-01-22 19:37:00,54.3,30.5,30.26,WNW,297,0.0,0.0,40,0.00,,---,0.00,0.00,VWS V14.00,2013-01-23 00:37:00,
2013-01-22 19:38:00,54.2,30.4,30.26,WNW,297,1.0,2.0,40,0.00,,---,0.00,0.00,VWS V14.00,2013-01-23 00:38:00,
2013-01-22 19:39:00,54.2,31.6,30.26,WNW,297,0.0,2.0,42,0.00,,---,0.00,0.00,VWS V14.00,2013-01-23 00:39:00,
2013-01-22 19:40:00,54.2,31.6,30.27,WNW,297,0.0,2.0,42,0.00,,---,0.00,0.00,VWS V14.00,2013-01-23 00:40:00,
2013-01-22 19:41:00,54.2,31.6,30.26,WNW,297,0.0,2.0,42,0.00,,---,0.00,0.00,VWS V14.00,2013-01-23 00:41:00,
2013-01-22 19:42:00,54.2,33.9,30.26,WNW,297,0.0,2.0,46,0.00,,---,0.00,0.00,VWS V14.00,2013-01-23 00:42:00,
2013-01-22 19:43:00,54.1,33.2,30.26,WNW,297,0.0,2.0,45,0.00,,---,0.00,0.00,VWS V14.00,2013-01-23 00:43:00,
2013-01-22 19:44:00,54.1,33.8,30.26,WNW,297,0.0,2.0,46,0.00,,---,0.00,0.00,VWS V14.00,2013-01-23 00:44:00,
2013-01-22 19:45:00,54.0,34.8,30.26,WNW,297,0.0,2.0,48,0.00,,---,0.00,0.00,VWS V14.00,2013-01-23 00:45:00,
2013-01-22 19:46:00,53.9,34.7,30.26,WNW,297,0.0,2.0,48,0.00,,---,0.00,0.00,VWS V14.00,2013-01-23 00:46:00,
2013-01-22 19:47:00,53.8,35.1,30.26,WNW,297,0.0,2.0,49,0.00,,---,0.00,0.00,VWS V14.00,2013-01-23 00:47:00,
2013-01-22 19:48:00,53.6,34.9,30.26,WNW,297,0.0,2.0,49,0.00,,---,0.00,0.00,VWS V14.00,2013-01-23 00:48:00,
2013-01-22 19:49:00,53.5,34.3,30.26,WNW,297,0.0,2.0,48,0.00,,---,0.00,0.00,VWS V14.00,2013-01-23 00:49:00,
2013-01-22 19:50:00,53.2,34.5,30.27,WNW,297,0.0,2.0,49,0.00,,---,0.00,0.00,VWS V14.00,2013-01-23 00:50:00,
2013-01-22 19:51:00,53.1,35.0,30.27,WNW,297,0.0,2.0,50,0.00,,---,0.00,0.00,VWS V14.00,2013-01-23 00:51:00,
2013-01-22 19:52:00,53.0,34.9,30.27,WNW,297,0.0,2.0,50,0.00,,---,0.00,0.00,VWS V14.00,2013-01-23 00:52:00,
2013-01-22 19:53:00,52.8,34.7,30.27,WNW,297,0.0,2.0,50,0.00,,---,0.00,0.00,VWS V14.00,2013-01-23 00:53:00,
2013-01-22 19:54:00,52.7,35.1,30.27,WNW,297,0.0,2.0,51,0.00,,---,0.00,0.00,VWS V14.00,2013-01-23 00:54:00,
2013-01-22 19:55:00,52.6,35.5,30.27,WNW,297,0.0,2.0,52,0.00,,---,0.00,0.00,VWS V14.00,2013-01-23 00:55:00,
2013-01-22 19:56:00,52.5,35.9,30.26,WNW,297,0.0,2.0,53,0.00,,---,0.00,0.00,VWS V14.00,2013-01-23 00:56:00,
2013-01-22 19:57:00,52.4,35.8,30.27,WNW,297,0.0,2.0,53,0.00,,---,0.00,0.00,VWS V14.00,2013-01-23 00:57:00,
2013-01-22 19:58:00,52.3,36.2,30.27,WNW,297,0.0,2.0,54,0.00,,---,0.00,0.00,VWS V14.00,2013-01-23 00:58:00,
2013-01-22 19:59:00,52.3,36.2,30.27,WNW,297,0.0,2.0,54,0.00,,---,0.00,0.00,VWS V14.00,2013-01-23 00:59:00,
2013-01-22 20:00:00,52.1,36.0,30.27,WNW,297,0.0,2.0,54,0.00,,---,0.00,0.00,VWS V14.00,2013-01-23 01:00:00,
2013-01-22 20:01:00,52.0,36.3,30.27,WNW,297,0.0,0.0,55,0.00,,---,0.00,0.00,VWS V14.00,2013-01-23 01:01:00,
2013-01-22 20:02:00,51.9,36.3,30.27,WNW,297,0.0,0.0,55,0.00,,---,0.00,0.00,VWS V14.00,2013-01-23 01:02:00,
2013-01-22 20:03:00,51.9,36.7,30.27,WNW,297,0.0,0.0,56,0.00,,---,0.00,0.00,VWS V14.00,2013-01-23 01:03:00,
2013-01-22 20:04:00,51.8,35.7,30.27,WNW,297,0.0,0.0,54,0.00,,---,0.00,0.00,VWS V14.00,2013-01-23 01:04:00,
2013-01-22 20:05:00,51.8,34.3,30.27,WNW,297,1.0,2.0,51,0.00,,---,0.00,0.00,VWS V14.00,2013-01-23 01:05:00,
2013-01-22 20:06:00,51.9,33.4,30.27,WNW,297,2.0,2.0,49,0.00,,---,0.00,0.00,VWS V14.00,2013-01-23 01:06:00,
2013-01-22 20:07:00,51.9,33.9,30.27,WNW,297,1.0,2.0,50,0.00,,---,0.00,0.00,VWS V14.00,2013-01-23 01:07:00,
2013-01-22 20:08:00,52.0,32.9,30.27,WNW,297,2.0,2.0,48,0.00,,---,0.00,0.00,VWS V14.00,2013-01-23 01:08:00,
2013-01-22 20:09:00,52.0,32.4,30.27,WNW,297,2.0,2.0,47,0.00,,---,0.00,0.00,VWS V14.00,2013-01-23 01:09:00,
2013-01-22 20:10:00,52.1,33.5,30.27,WNW,297,2.0,2.0,49,0.00,,---,0.00,0.00,VWS V14.00,2013-01-23 01:10:00,
2013-01-22 20:11:00,52.2,34.6,30.27,WNW,297,0.0,2.0,51,0.00,,---,0.00,0.00,VWS V14.00,2013-01-23 01:11:00,
2013-01-22 20:12:00,52.2,34.1,30.27,WNW,297,0.0,2.0,50,0.00,,---,0.00,0.00,VWS V14.00,2013-01-23 01:12:00,
2013-01-22 20:13:00,52.2,34.6,30.27,WNW,297,2.0,2.0,51,0.00,,---,0.00,0.00,VWS V14.00,2013-01-23 01:13:00,
2013-01-22 20:14:00,52.2,33.6,30.27,WNW,297,2.0,3.0,49,0.00,,---,0.00,0.00,VWS V14.00,2013-01-23 01:14:00,
2013-01-22 20:15:00,52.3,34.7,30.27,WNW,297,2.0,3.0,51,0.00,,---,0.00,0.00,VWS V14.00,2013-01-23 01:15:00,
2013-01-22 20:16:00,52.3,32.7,30.27,WNW,297,1.0,3.0,47,0.00,,---,0.00,0.00,VWS V14.00,2013-01-23 01:16:00,
2013-01-22 20:17:00,52.3,33.7,30.27,WNW,297,1.0,3.0,49,0.00,,---,0.00,0.00,VWS V14.00,2013-01-23 01:17:00,
2013-01-22 20:18:00,52.3,34.7,30.27,WNW,297,0.0,3.0,51,0.00,,---,0.00,0.00,VWS V14.00,2013-01-23 01:18:00,
2013-01-22 20:19:00,52.3,34.7,30.27,WNW,297,0.0,3.0,51,0.00,,---,0.00,0.00,VWS V14.00,2013-01-23 01:19:00,
2013-01-22 20:20:00,52.3,34.7,30.27,WNW,297,0.0,3.0,51,0.00,,---,0.00,0.00,VWS V14.00,2013-01-23 01:20:00,
2013-01-22 20:21:00,52.3,33.2,30.27,WNW,297,0.0,3.0,48,0.00,,---,0.00,0.00,VWS V14.00,2013-01-23 01:21:00,
2013-01-22 20:22:00,52.3,34.7,30.28,WNW,297,0.0,3.0,51,0.00,,---,0.00,0.00,VWS V14.00,2013-01-23 01:22:00,
2013-01-22 20:23:00,52.3,33.7,30.27,WNW,297,0.0,3.0,49,0.00,,---,0.00,0.00,VWS V14.00,2013-01-23 01:23:00,
2013-01-22 20:24:00,52.3,33.2,30.27,WNW,297,0.0,3.0,48,0.00,,---,0.00,0.00,VWS V14.00,2013-01-23 01:24:00,
2013-01-22 20:25:00,52.3,34.7,30.27,WNW,297,0.0,3.0,51,0.00,,---,0.00,0.00,VWS V14.00,2013-01-23 01:25:00,
2013-01-22 20:26:00,52.3,33.7,30.27,WNW,297,0.0,3.0,49,0.00,,---,0.00,0.00,VWS V14.00,2013-01-23 01:26:00,
2013-01-22 20:27:00,52.3,34.2,30.27,WNW,297,0.0,3.0,50,0.00,,---,0.00,0.00,VWS V14.00,2013-01-23 01:27:00,
2013-01-22 20:28:00,52.3,34.2,30.27,WNW,297,0.0,3.0,50,0.00,,---,0.00,0.00,VWS V14.00,2013-01-23 01:28:00,
2013-01-22 20:29:00,52.3,33.7,30.27,WNW,297,0.0,3.0,49,0.00,,---,0.00,0.00,VWS V14.00,2013-01-23 01:29:00,
2013-01-22 20:30:00,52.3,33.7,30.27,WNW,297,0.0,3.0,49,0.00,,---,0.00,0.00,VWS V14.00,2013-01-23 01:30:00,
2013-01-22 20:31:00,52.3,33.2,30.27,WNW,297,0.0,0.0,48,0.00,,---,0.00,0.00,VWS V14.00,2013-01-23 01:31:00,
2013-01-22 20:32:00,52.3,33.2,30.27,WNW,297,0.0,1.0,48,0.00,,---,0.00,0.00,VWS V14.00,2013-01-23 01:32:00,
2013-01-22 20:33:00,52.2,34.1,30.27,WNW,297,2.0,3.0,50,0.00,,---,0.00,0.00,VWS V14.00,2013-01-23 01:33:00,
2013-01-22 20:34:00,52.2,33.6,30.27,WNW,297,0.0,3.0,49,0.00,,---,0.00,0.00,VWS V14.00,2013-01-23 01:34:00,
2013-01-22 20:35:00,52.2,33.1,30.27,WNW,297,2.0,3.0,48,0.00,,---,0.00,0.00,VWS V14.00,2013-01-23 01:35:00,
2013-01-22 20:36:00,52.2,33.6,30.27,WNW,297,0.0,3.0,49,0.00,,---,0.00,0.00,VWS V14.00,2013-01-23 01:36:00,
2013-01-22 20:37:00,52.2,33.1,30.27,WNW,297,1.0,3.0,48,0.00,,---,0.00,0.00,VWS V14.00,2013-01-23 01:37:00,
2013-01-22 20:38:00,52.2,33.1,30.27,WNW,297,2.0,3.0,48,0.00,,---,0.00,0.00,VWS V14.00,2013-01-23 01:38:00,
2013-01-22 20:39:00,52.2,33.1,30.27,WNW,297,2.0,3.0,48,0.00,,---,0.00,0.00,VWS V14.00,2013-01-23 01:39:00,
2013-01-22 20:40:00,52.1,33.5,30.27,WNW,297,1.0,3.0,49,0.00,,---,0.00,0.00,VWS V14.00,2013-01-23 01:40:00,
2013-01-22 20:41:00,52.1,34.0,30.27,WNW,297,0.0,3.0,50,0.00,,---,0.00,0.00,VWS V14.00,2013-01-23 01:41:00,
2013-01-22 20:42:00,52.1,33.5,30.27,WNW,297,0.0,3.0,49,0.00,,---,0.00,0.00,VWS V14.00,2013-01-23 01:42:00,
2013-01-22 20:43:00,52.1,34.0,30.27,WNW,297,0.0,3.0,50,0.00,,---,0.00,0.00,VWS V14.00,2013-01-23 01:43:00,
2013-01-22 20:44:00,52.1,34.0,30.27,WNW,297,0.0,3.0,50,0.00,,---,0.00,0.00,VWS V14.00,2013-01-23 01:44:00,
2013-01-22 20:45:00,52.1,34.5,30.27,WNW,297,0.0,3.0,51,0.00,,---,0.00,0.00,VWS V14.00,2013-01-23 01:45:00,
2013-01-22 20:46:00,52.0,34.0,30.27,WNW,297,1.0,3.0,50,0.00,,---,0.00,0.00,VWS V14.00,2013-01-23 01:46:00,
2013-01-22 20:47:00,51.9,33.9,30.27,WNW,297,0.0,3.0,50,0.00,,---,0.00,0.00,VWS V14.00,2013-01-23 01:47:00,
2013-01-22 20:48:00,51.9,34.4,30.27,WNW,297,1.0,3.0,51,0.00,,---,0.00,0.00,VWS V14.00,2013-01-23 01:48:00,
2013-01-22 20:49:00,51.8,33.8,30.27,WNW,297,2.0,3.0,50,0.00,,---,0.00,0.00,VWS V14.00,2013-01-23 01:49:00,
2013-01-22 20:50:00,51.8,34.8,30.27,WNW,297,1.0,3.0,52,0.00,,---,0.00,0.00,VWS V14.00,2013-01-23 01:50:00,
2013-01-22 20:51:00,51.7,34.2,30.27,WNW,297,0.0,3.0,51,0.00,,---,0.00,0.00,VWS V14.00,2013-01-23 01:51:00,
2013-01-22 20:52:00,51.7,34.7,30.27,WNW,297,0.0,3.0,52,0.00,,---,0.00,0.00,VWS V14.00,2013-01-23 01:52:00,
2013-01-22 20:53:00,51.6,34.1,30.27,WNW,297,0.0,3.0,51,0.00,,---,0.00,0.00,VWS V14.00,2013-01-23 01:53:00,
2013-01-22 20:54:00,51.6,34.1,30.27,WNW,297,0.0,3.0,51,0.00,,---,0.00,0.00,VWS V14.00,2013-01-23 01:54:00,
2013-01-22 20:55:00,51.6,34.1,30.27,WNW,297,0.0,3.0,51,0.00,,---,0.00,0.00,VWS V14.00,2013-01-23 01:55:00,
2013-01-22 20:56:00,51.5,34.0,30.27,WNW,297,0.0,3.0,51,0.00,,---,0.00,0.00,VWS V14.00,2013-01-23 01:56:00,
2013-01-22 20:57:00,51.5,34.5,30.27,WNW,297,0.0,3.0,52,0.00,,---,0.00,0.00,VWS V14.00,2013-01-23 01:57:00,
2013-01-22 20:58:00,51.5,35.0,30.27,WNW,297,0.0,3.0,53,0.00,,---,0.00,0.00,VWS V14.00,2013-01-23 01:58:00,
2013-01-22 20:59:00,51.5,35.0,30.27,WNW,297,0.0,3.0,53,0.00,,---,0.00,0.00,VWS V14.00,2013-01-23 01:59:00,
2013-01-22 21:00:00,51.5,34.5,30.27,WNW,297,0.0,3.0,52,0.00,,---,0.00,0.00,VWS V14.00,2013-01-23 02:00:00,
2013-01-22 21:01:00,51.4,33.9,30.27,WNW,297,0.0,0.0,51,0.00,,---,0.00,0.00,VWS V14.00,2013-01-23 02:01:00,
2013-01-22 21:02:00,51.4,34.4,30.27,WNW,297,0.0,0.0,52,0.00,,---,0.00,0.00,VWS V14.00,2013-01-23 02:02:00,
2013-01-22 21:03:00,51.4,33.9,30.27,WNW,297,0.0,0.0,51,0.00,,---,0.00,0.00,VWS V14.00,2013-01-23 02:03:00,
2013-01-22 21:04:00,51.4,34.4,30.27,WNW,297,0.0,0.0,52,0.00,,---,0.00,0.00,VWS V14.00,2013-01-23 02:04:00,
2013-01-22 21:05:00,51.3,34.8,30.27,WNW,297,0.0,0.0,53,0.00,,---,0.00,0.00,VWS V14.00,2013-01-23 02:05:00,
2013-01-22 21:06:00,51.3,34.3,30.27,WNW,297,0.0,1.0,52,0.00,,---,0.00,0.00,VWS V14.00,2013-01-23 02:06:00,
2013-01-22 21:07:00,51.3,35.2,30.27,WNW,297,1.0,2.0,54,0.00,,---,0.00,0.00,VWS V14.00,2013-01-23 02:07:00,
2013-01-22 21:08:00,51.3,34.8,30.27,WNW,297,0.0,2.0,53,0.00,,---,0.00,0.00,VWS V14.00,2013-01-23 02:08:00,
2013-01-22 21:09:00,51.2,35.1,30.27,WNW,297,0.0,2.0,54,0.00,,---,0.00,0.00,VWS V14.00,2013-01-23 02:09:00,
2013-01-22 21:10:00,51.2,34.2,30.27,WNW,297,0.0,2.0,52,0.00,,---,0.00,0.00,VWS V14.00,2013-01-23 02:10:00,
2013-01-22 21:11:00,51.1,35.0,30.27,WNW,297,0.0,2.0,54,0.00,,---,0.00,0.00,VWS V14.00,2013-01-23 02:11:00,
2013-01-22 21:12:00,51.1,34.1,30.28,WNW,297,0.0,2.0,52,0.00,,---,0.00,0.00,VWS V14.00,2013-01-23 02:12:00,
2013-01-22 21:13:00,51.1,33.6,30.27,WNW,297,1.0,2.0,51,0.00,,---,0.00,0.00,VWS V14.00,2013-01-23 02:13:00,
2013-01-22 21:14:00,51.0,34.0,30.27,WNW,297,2.0,3.0,52,0.00,,---,0.00,0.00,VWS V14.00,2013-01-23 02:14:00,
2013-01-22 21:15:00,51.0,34.5,30.27,WNW,297,1.0,3.0,53,0.00,,---,0.00,0.00,VWS V14.00,2013-01-23 02:15:00,
2013-01-22 21:16:00,51.0,34.5,30.28,WNW,297,1.0,3.0,53,0.00,,---,0.00,0.00,VWS V14.00,2013-01-23 02:16:00,
2013-01-22 21:17:00,51.0,34.5,30.28,WNW,297,0.0,3.0,53,0.00,,---,0.00,0.00,VWS V14.00,2013-01-23 02:17:00,
2013-01-22 21:18:00,51.0,35.0,30.28,WNW,297,0.0,3.0,54,0.00,,---,0.00,0.00,VWS V14.00,2013-01-23 02:18:00,
2013-01-22 21:19:00,50.9,34.4,30.28,WNW,297,0.0,3.0,53,0.00,,---,0.00,0.00,VWS V14.00,2013-01-23 02:19:00,
2013-01-22 21:20:00,50.9,34.9,30.28,WNW,297,0.0,3.0,54,0.00,,---,0.00,0.00,VWS V14.00,2013-01-23 02:20:00,
2013-01-22 21:21:00,50.9,34.9,30.28,WNW,297,0.0,3.0,54,0.00,,---,0.00,0.00,VWS V14.00,2013-01-23 02:21:00,
2013-01-22 21:22:00,50.9,34.9,30.28,WNW,297,0.0,3.0,54,0.00,,---,0.00,0.00,VWS V14.00,2013-01-23 02:22:00,
2013-01-22 21:23:00,50.8,34.8,30.28,WNW,297,0.0,3.0,54,0.00,,---,0.00,0.00,VWS V14.00,2013-01-23 02:23:00,
2013-01-22 21:24:00,50.8,35.7,30.28,WNW,297,0.0,3.0,56,0.00,,---,0.00,0.00,VWS V14.00,2013-01-23 02:24:00,
2013-01-22 21:25:00,50.8,35.2,30.28,WNW,297,0.0,3.0,55,0.00,,---,0.00,0.00,VWS V14.00,2013-01-23 02:25:00,
2013-01-22 21:26:00,50.8,35.2,30.28,WNW,297,0.0,3.0,55,0.00,,---,0.00,0.00,VWS V14.00,2013-01-23 02:26:00,
2013-01-22 21:27:00,50.7,35.6,30.28,WNW,297,0.0,3.0,56,0.00,,---,0.00,0.00,VWS V14.00,2013-01-23 02:27:00,
2013-01-22 21:28:00,50.7,35.1,30.27,WNW,297,0.0,3.0,55,0.00,,---,0.00,0.00,VWS V14.00,2013-01-23 02:28:00,
2013-01-22 21:29:00,50.6,35.5,30.27,WNW,297,0.0,3.0,56,0.00,,---,0.00,0.00,VWS V14.00,2013-01-23 02:29:00,
2013-01-22 21:30:00,50.6,35.5,30.27,WNW,297,0.0,3.0,56,0.00,,---,0.00,0.00,VWS V14.00,2013-01-23 02:30:00,
2013-01-22 21:31:00,50.6,35.5,30.27,WNW,297,0.0,0.0,56,0.00,,---,0.00,0.00,VWS V14.00,2013-01-23 02:31:00,
2013-01-22 21:32:00,50.6,35.5,30.27,WNW,297,0.0,0.0,56,0.00,,---,0.00,0.00,VWS V14.00,2013-01-23 02:32:00,
2013-01-22 21:33:00,50.5,35.8,30.27,WNW,297,0.0,0.0,57,0.00,,---,0.00,0.00,VWS V14.00,2013-01-23 02:33:00,
2013-01-22 21:34:00,50.5,35.0,30.27,WNW,297,0.0,0.0,55,0.00,,---,0.00,0.00,VWS V14.00,2013-01-23 02:34:00,
2013-01-22 21:35:00,50.5,35.8,30.27,WNW,297,0.0,0.0,57,0.00,,---,0.00,0.00,VWS V14.00,2013-01-23 02:35:00,
2013-01-22 21:36:00,50.5,35.0,30.27,WNW,297,0.0,0.0,55,0.00,,---,0.00,0.00,VWS V14.00,2013-01-23 02:36:00,
2013-01-22 21:37:00,50.4,35.3,30.27,WNW,297,0.0,0.0,56,0.00,,---,0.00,0.00,VWS V14.00,2013-01-23 02:37:00,
2013-01-22 21:38:00,50.4,34.9,30.27,WNW,297,0.0,0.0,55,0.00,,---,0.00,0.00,VWS V14.00,2013-01-23 02:38:00,
2013-01-22 21:39:00,50.4,34.9,30.27,WNW,297,0.0,0.0,55,0.00,,---,0.00,0.00,VWS V14.00,2013-01-23 02:39:00,
2013-01-22 21:40:00,50.4,34.9,30.27,WNW,297,0.0,0.0,55,0.00,,---,0.00,0.00,VWS V14.00,2013-01-23 02:40:00,
2013-01-22 21:41:00,50.3,34.8,30.28,WNW,297,0.0,0.0,55,0.00,,---,0.00,0.00,VWS V14.00,2013-01-23 02:41:00,
2013-01-22 21:42:00,50.3,35.2,30.28,WNW,297,0.0,0.0,56,0.00,,---,0.00,0.00,VWS V14.00,2013-01-23 02:42:00,
2013-01-22 21:43:00,50.3,35.2,30.28,WNW,297,0.0,0.0,56,0.00,,---,0.00,0.00,VWS V14.00,2013-01-23 02:43:00,
2013-01-22 21:44:00,50.3,35.2,30.28,WNW,297,0.0,0.0,56,0.00,,---,0.00,0.00,VWS V14.00,2013-01-23 02:44:00,
2013-01-22 21:45:00,50.3,35.7,30.28,WNW,297,0.0,0.0,57,0.00,,---,0.00,0.00,VWS V14.00,2013-01-23 02:45:00,
2013-01-22 21:46:00,50.2,35.1,30.28,WNW,297,0.0,0.0,56,0.00,,---,0.00,0.00,VWS V14.00,2013-01-23 02:46:00,
2013-01-22 21:47:00,50.2,35.6,30.28,WNW,297,0.0,1.0,57,0.00,,---,0.00,0.00,VWS V14.00,2013-01-23 02:47:00,
2013-01-22 21:48:00,50.1,35.5,30.28,WNW,297,0.0,1.0,57,0.00,,---,0.00,0.00,VWS V14.00,2013-01-23 02:48:00,
2013-01-22 21:49:00,50.1,35.5,30.28,WNW,297,1.0,2.0,57,0.00,,---,0.00,0.00,VWS V14.00,2013-01-23 02:49:00,
2013-01-22 21:50:00,50.0,36.2,30.28,WNW,297,1.0,2.0,59,0.00,,---,0.00,0.00,VWS V14.00,2013-01-23 02:50:00,
2013-01-22 21:51:00,50.0,35.8,30.28,WNW,297,0.0,2.0,58,0.00,,---,0.00,0.00,VWS V14.00,2013-01-23 02:51:00,
2013-01-22 21:52:00,49.9,35.7,30.28,WNW,297,2.0,2.0,58,0.00,,---,0.00,0.00,VWS V14.00,2013-01-23 02:52:00,
2013-01-22 21:53:00,49.9,35.3,30.28,WNW,297,0.0,2.0,57,0.00,,---,0.00,0.00,VWS V14.00,2013-01-23 02:53:00,
2013-01-22 21:54:00,49.9,35.7,30.28,WNW,297,0.0,2.0,58,0.00,,---,0.00,0.00,VWS V14.00,2013-01-23 02:54:00,
2013-01-22 21:55:00,49.9,35.3,30.28,WNW,297,0.0,2.0,57,0.00,,---,0.00,0.00,VWS V14.00,2013-01-23 02:55:00,
2013-01-22 21:56:00,49.8,34.8,30.28,WNW,297,0.0,2.0,56,0.00,,---,0.00,0.00,VWS V14.00,2013-01-23 02:56:00,
2013-01-22 21:57:00,49.8,35.2,30.28,WNW,297,0.0,2.0,57,0.00,,---,0.00,0.00,VWS V14.00,2013-01-23 02:57:00,
2013-01-22 21:58:00,49.8,34.8,30.28,WNW,297,0.0,2.0,56,0.00,,---,0.00,0.00,VWS V14.00,2013-01-23 02:58:00,
2013-01-22 21:59:00,49.8,33.8,30.29,WNW,297,2.0,2.0,54,0.00,,---,0.00,0.00,VWS V14.00,2013-01-23 02:59:00,
2013-01-22 22:00:00,49.8,34.3,30.28,WNW,297,2.0,3.0,55,0.00,,---,0.00,0.00,VWS V14.00,2013-01-23 03:00:00,
2013-01-22 22:01:00,49.8,33.8,30.28,WNW,297,1.0,3.0,54,0.00,,---,0.00,0.00,VWS V14.00,2013-01-23 03:01:00,
2013-01-22 22:02:00,49.8,34.3,30.28,WNW,297,2.0,3.0,55,0.00,,---,0.00,0.00,VWS V14.00,2013-01-23 03:02:00,
2013-01-22 22:03:00,49.7,34.2,30.28,WNW,297,1.0,3.0,55,0.00,,---,0.00,0.00,VWS V14.00,2013-01-23 03:03:00,
2013-01-22 22:04:00,49.7,34.2,30.28,WNW,297,0.0,3.0,55,0.00,,---,0.00,0.00,VWS V14.00,2013-01-23 03:04:00,
2013-01-22 22:05:00,49.7,33.8,30.28,WNW,297,2.0,3.0,54,0.00,,---,0.00,0.00,VWS V14.00,2013-01-23 03:05:00,
2013-01-22 22:06:00,49.6,33.2,30.29,WNW,297,4.0,4.0,53,0.00,,---,0.00,0.00,VWS V14.00,2013-01-23 03:06:00,
2013-01-22 22:07:00,49.6,33.7,30.29,WNW,297,3.0,4.0,54,0.00,,---,0.00,0.00,VWS V14.00,2013-01-23 03:07:00,
2013-01-22 22:08:00,49.6,33.7,30.29,WNW,297,2.0,4.0,54,0.00,,---,0.00,0.00,VWS V14.00,2013-01-23 03:08:00,
2013-01-22 22:09:00,49.5,33.1,30.29,WNW,297,0.0,4.0,53,0.00,,---,0.00,0.00,VWS V14.00,2013-01-23 03:09:00,
2013-01-22 22:10:00,49.5,33.1,30.29,WNW,297,0.0,4.0,53,0.00,,---,0.00,0.00,VWS V14.00,2013-01-23 03:10:00,
2013-01-22 22:11:00,49.5,34.0,30.29,WNW,297,0.0,4.0,55,0.00,,---,0.00,0.00,VWS V14.00,2013-01-23 03:11:00,
2013-01-22 22:12:00,49.5,34.0,30.29,WNW,297,2.0,4.0,55,0.00,,---,0.00,0.00,VWS V14.00,2013-01-23 03:12:00,
2013-01-22 22:13:00,49.5,34.0,30.29,WNW,297,1.0,4.0,55,0.00,,---,0.00,0.00,VWS V14.00,2013-01-23 03:13:00,
2013-01-22 22:14:00,49.4,33.9,30.29,WNW,297,3.0,4.0,55,0.00,,---,0.00,0.00,VWS V14.00,2013-01-23 03:14:00,
2013-01-22 22:15:00,49.4,33.9,30.29,WNW,297,0.0,4.0,55,0.00,,---,0.00,0.00,VWS V14.00,2013-01-23 03:15:00,
2013-01-22 22:16:00,49.4,34.8,30.29,WNW,297,1.0,4.0,57,0.00,,---,0.00,0.00,VWS V14.00,2013-01-23 03:16:00,
2013-01-22 22:17:00,49.3,33.4,30.29,WNW,297,0.0,4.0,54,0.00,,---,0.00,0.00,VWS V14.00,2013-01-23 03:17:00,
2013-01-22 22:18:00,49.3,33.4,30.29,WNW,297,1.0,4.0,54,0.00,,---,0.00,0.00,VWS V14.00,2013-01-23 03:18:00,
2013-01-22 22:19:00,49.2,33.7,30.29,WNW,297,1.0,4.0,55,0.00,,---,0.00,0.00,VWS V14.00,2013-01-23 03:19:00,
2013-01-22 22:20:00,49.2,33.3,30.29,WNW,297,3.0,4.0,54,0.00,,---,0.00,0.00,VWS V14.00,2013-01-23 03:20:00,
2013-01-22 22:21:00,49.1,33.2,30.29,WNW,297,2.0,4.0,54,0.00,,---,0.00,0.00,VWS V14.00,2013-01-23 03:21:00,
2013-01-22 22:22:00,49.1,33.2,30.29,WNW,297,2.0,4.0,54,0.00,,---,0.00,0.00,VWS V14.00,2013-01-23 03:22:00,
2013-01-22 22:23:00,49.0,33.1,30.29,WNW,297,2.0,4.0,54,0.00,,---,0.00,0.00,VWS V14.00,2013-01-23 03:23:00,
2013-01-22 22:24:00,49.0,33.1,30.29,WNW,297,2.0,4.0,54,0.00,,---,0.00,0.00,VWS V14.00,2013-01-23 03:24:00,
2013-01-22 22:25:00,48.9,33.0,30.29,WNW,297,2.0,4.0,54,0.00,,---,0.00,0.00,VWS V14.00,2013-01-23 03:25:00,
2013-01-22 22:26:00,48.9,33.0,30.29,WNW,297,2.0,4.0,54,0.00,,---,0.00,0.00,VWS V14.00,2013-01-23 03:26:00,
2013-01-22 22:27:00,48.8,32.9,30.29,WNW,297,2.0,4.0,54,0.00,,---,0.00,0.00,VWS V14.00,2013-01-23 03:27:00,
2013-01-22 22:28:00,48.8,32.9,30.29,WNW,297,1.0,4.0,54,0.00,,---,0.00,0.00,VWS V14.00,2013-01-23 03:28:00,
2013-01-22 22:29:00,48.8,33.4,30.29,WNW,297,0.0,4.0,55,0.00,,---,0.00,0.00,VWS V14.00,2013-01-23 03:29:00,
2013-01-22 22:30:00,48.7,33.3,30.30,WNW,297,0.0,4.0,55,0.00,,---,0.00,0.00,VWS V14.00,2013-01-23 03:30:00,
2013-01-22 22:31:00,48.7,33.3,30.29,WNW,297,0.0,0.0,55,0.00,,---,0.00,0.00,VWS V14.00,2013-01-23 03:31:00,
2013-01-22 22:32:00,48.7,32.8,30.30,WNW,297,3.0,4.0,54,0.00,,---,0.00,0.00,VWS V14.00,2013-01-23 03:32:00,
2013-01-22 22:33:00,48.7,32.3,30.29,WNW,297,0.0,4.0,53,0.00,,---,0.00,0.00,VWS V14.00,2013-01-23 03:33:00,
2013-01-22 22:34:00,48.6,32.7,30.30,WNW,297,2.0,4.0,54,0.00,,---,0.00,0.00,VWS V14.00,2013-01-23 03:34:00,
2013-01-22 22:35:00,48.6,33.2,30.30,WNW,297,1.0,4.0,55,0.00,,---,0.00,0.00,VWS V14.00,2013-01-23 03:35:00,
2013-01-22 22:36:00,48.6,33.2,30.30,WNW,297,0.0,4.0,55,0.00,,---,0.00,0.00,VWS V14.00,2013-01-23 03:36:00,
2013-01-22 22:37:00,48.6,33.2,30.30,WNW,297,4.0,4.0,55,0.00,,---,0.00,0.00,VWS V14.00,2013-01-23 03:37:00,
2013-01-22 22:38:00,48.6,32.7,30.30,WNW,297,2.0,4.0,54,0.00,,---,0.00,0.00,VWS V14.00,2013-01-23 03:38:00,
2013-01-22 22:39:00,48.6,32.7,30.30,WNW,297,1.0,4.0,54,0.00,,---,0.00,0.00,VWS V14.00,2013-01-23 03:39:00,
2013-01-22 22:40:00,48.6,33.6,30.30,WNW,297,3.0,4.0,56,0.00,,---,0.00,0.00,VWS V14.00,2013-01-23 03:40:00,
2013-01-22 22:41:00,48.6,33.2,30.30,WNW,297,3.0,4.0,55,0.00,,---,0.00,0.00,VWS V14.00,2013-01-23 03:41:00,
2013-01-22 22:42:00,48.6,33.2,30.30,WNW,297,1.0,4.0,55,0.00,,---,0.00,0.00,VWS V14.00,2013-01-23 03:42:00,
2013-01-22 22:43:00,48.6,33.2,30.30,WNW,297,3.0,4.0,55,0.00,,---,0.00,0.00,VWS V14.00,2013-01-23 03:43:00,
2013-01-22 22:44:00,48.6,33.2,30.30,WNW,297,0.0,4.0,55,0.00,,---,0.00,0.00,VWS V14.00,2013-01-23 03:44:00,
2013-01-22 22:45:00,48.5,33.1,30.30,WNW,297,3.0,4.0,55,0.00,,---,0.00,0.00,VWS V14.00,2013-01-23 03:45:00,
2013-01-22 22:46:00,48.5,33.5,30.30,WNW,297,3.0,4.0,56,0.00,,---,0.00,0.00,VWS V14.00,2013-01-23 03:46:00,
2013-01-22 22:47:00,48.5,33.5,30.30,WNW,297,1.0,4.0,56,0.00,,---,0.00,0.00,VWS V14.00,2013-01-23 03:47:00,
2013-01-22 22:48:00,48.5,33.1,30.30,WNW,297,7.0,7.0,55,0.00,,---,0.00,0.00,VWS V14.00,2013-01-23 03:48:00,
2013-01-22 22:49:00,48.5,33.1,30.30,NW,316,3.0,7.0,55,0.00,,---,0.00,0.00,VWS V14.00,2013-01-23 03:49:00,
2013-01-22 22:50:00,48.5,33.5,30.30,NW,316,1.0,7.0,56,0.00,,---,0.00,0.00,VWS V14.00,2013-01-23 03:50:00,
2013-01-22 22:51:00,48.5,33.5,30.30,NW,316,1.0,7.0,56,0.00,,---,0.00,0.00,VWS V14.00,2013-01-23 03:51:00,
2013-01-22 22:52:00,48.5,34.0,30.30,NW,316,3.0,7.0,57,0.00,,---,0.00,0.00,VWS V14.00,2013-01-23 03:52:00,
2013-01-22 22:53:00,48.5,33.1,30.30,NW,316,2.0,7.0,55,0.00,,---,0.00,0.00,VWS V14.00,2013-01-23 03:53:00,
2013-01-22 22:54:00,48.4,33.9,30.30,NW,315,3.0,7.0,57,0.00,,---,0.00,0.00,VWS V14.00,2013-01-23 03:54:00,
2013-01-22 22:55:00,48.4,33.9,30.30,NW,315,2.0,7.0,57,0.00,,---,0.00,0.00,VWS V14.00,2013-01-23 03:55:00,
2013-01-22 22:56:00,48.3,33.8,30.30,NW,315,3.0,7.0,57,0.00,,---,0.00,0.00,VWS V14.00,2013-01-23 03:56:00,
2013-01-22 22:57:00,48.3,33.8,30.30,NW,315,3.0,7.0,57,0.00,,---,0.00,0.00,VWS V14.00,2013-01-23 03:57:00,
2013-01-22 22:58:00,48.3,33.8,30.30,NW,315,2.0,7.0,57,0.00,,---,0.00,0.00,VWS V14.00,2013-01-23 03:58:00,
2013-01-22 22:59:00,48.3,33.8,30.30,NW,315,2.0,7.0,57,0.00,,---,0.00,0.00,VWS V14.00,2013-01-23 03:59:00,
2013-01-22 23:00:00,48.2,33.3,30.30,NW,314,3.0,7.0,56,0.00,,---,0.00,0.00,VWS V14.00,2013-01-23 04:00:00,
2013-01-22 23:01:00,48.2,33.3,30.30,NW,314,2.0,3.0,56,0.00,,---,0.00,0.00,VWS V14.00,2013-01-23 04:01:00,
2013-01-22 23:02:00,48.2,34.6,30.30,NW,315,3.0,3.0,59,0.00,,---,0.00,0.00,VWS V14.00,2013-01-23 04:02:00,
2013-01-22 23:03:00,48.1,33.2,30.30,NW,315,1.0,3.0,56,0.00,,---,0.00,0.00,VWS V14.00,2013-01-23 04:03:00,
2013-01-22 23:04:00,48.1,33.2,30.30,NW,314,2.0,3.0,56,0.00,,---,0.00,0.00,VWS V14.00,2013-01-23 04:04:00,
2013-01-22 23:05:00,48.1,33.2,30.30,NW,315,3.0,5.0,56,0.00,,---,0.00,0.00,VWS V14.00,2013-01-23 04:05:00,
2013-01-22 23:06:00,48.1,33.2,30.30,NW,315,2.0,5.0,56,0.00,,---,0.00,0.00,VWS V14.00,2013-01-23 04:06:00,
2013-01-22 23:07:00,48.0,33.5,30.30,NW,315,2.0,5.0,57,0.00,,---,0.00,0.00,VWS V14.00,2013-01-23 04:07:00,
2013-01-22 23:08:00,48.0,33.1,30.30,NW,315,3.0,5.0,56,0.00,,---,0.00,0.00,VWS V14.00,2013-01-23 04:08:00,
2013-01-22 23:09:00,48.0,33.5,30.30,NW,315,4.0,5.0,57,0.00,,---,0.00,0.00,VWS V14.00,2013-01-23 04:09:00,
2013-01-22 23:10:00,48.0,33.5,30.30,NW,315,4.0,5.0,57,0.00,,---,0.00,0.00,VWS V14.00,2013-01-23 04:10:00,
2013-01-22 23:11:00,47.9,33.4,30.30,NW,315,2.0,5.0,57,0.00,,---,0.00,0.00,VWS V14.00,2013-01-23 04:11:00,
2013-01-22 23:12:00,47.9,33.8,30.30,NW,315,4.0,5.0,58,0.00,,---,0.00,0.00,VWS V14.00,2013-01-23 04:12:00,
2013-01-22 23:13:00,47.9,33.4,30.30,NW,312,3.0,5.0,57,0.00,,---,0.00,0.00,VWS V14.00,2013-01-23 04:13:00,
2013-01-22 23:14:00,47.9,33.4,30.30,NW,312,4.0,5.0,57,0.00,,---,0.00,0.00,VWS V14.00,2013-01-23 04:14:00,
2013-01-22 23:15:00,47.8,33.3,30.30,NW,314,5.0,7.0,57,0.00,,---,0.00,0.00,VWS V14.00,2013-01-23 04:15:00,
2013-01-22 23:16:00,47.8,33.3,30.30,NW,314,2.0,7.0,57,0.00,,---,0.00,0.00,VWS V14.00,2013-01-23 04:16:00,
2013-01-22 23:17:00,47.8,33.8,30.30,NW,314,4.0,7.0,58,0.00,,---,0.00,0.00,VWS V14.00,2013-01-23 04:17:00,
2013-01-22 23:18:00,47.8,33.3,30.30,NW,314,3.0,7.0,57,0.00,,---,0.00,0.00,VWS V14.00,2013-01-23 04:18:00,
2013-01-22 23:19:00,47.8,32.9,30.30,NW,314,4.0,7.0,56,0.00,,---,0.00,0.00,VWS V14.00,2013-01-23 04:19:00,
2013-01-22 23:20:00,47.8,33.3,30.30,NW,314,3.0,7.0,57,0.00,,---,0.00,0.00,VWS V14.00,2013-01-23 04:20:00,
2013-01-22 23:21:00,47.7,33.2,30.31,NW,314,4.0,7.0,57,0.00,,---,0.00,0.00,VWS V14.00,2013-01-23 04:21:00,
2013-01-22 23:22:00,47.7,32.8,30.30,NW,314,4.0,7.0,56,0.00,,---,0.00,0.00,VWS V14.00,2013-01-23 04:22:00,
2013-01-22 23:23:00,47.6,32.7,30.30,NW,314,0.0,7.0,56,0.00,,---,0.00,0.00,VWS V14.00,2013-01-23 04:23:00,
2013-01-22 23:24:00,47.6,32.7,30.30,NW,314,4.0,7.0,56,0.00,,---,0.00,0.00,VWS V14.00,2013-01-23 04:24:00,
2013-01-22 23:25:00,47.6,33.1,30.30,NW,314,3.0,7.0,57,0.00,,---,0.00,0.00,VWS V14.00,2013-01-23 04:25:00,
2013-01-22 23:26:00,47.5,33.0,30.30,NW,314,2.0,7.0,57,0.00,,---,0.00,0.00,VWS V14.00,2013-01-23 04:26:00,
2013-01-22 23:27:00,47.5,33.0,30.30,NW,314,2.0,7.0,57,0.00,,---,0.00,0.00,VWS V14.00,2013-01-23 04:27:00,
2013-01-22 23:28:00,47.5,33.0,30.30,NW,314,2.0,7.0,57,0.00,,---,0.00,0.00,VWS V14.00,2013-01-23 04:28:00,
2013-01-22 23:29:00,47.5,33.9,30.30,NW,314,3.0,7.0,59,0.00,,---,0.00,0.00,VWS V14.00,2013-01-23 04:29:00,
2013-01-22 23:30:00,47.4,33.8,30.30,NW,314,3.0,7.0,59,0.00,,---,0.00,0.00,VWS V14.00,2013-01-23 04:30:00,
2013-01-22 23:31:00,47.4,33.4,30.30,NW,314,2.0,5.0,58,0.00,,---,0.00,0.00,VWS V14.00,2013-01-23 04:31:00,
2013-01-22 23:32:00,47.4,33.4,30.30,NW,314,1.0,5.0,58,0.00,,---,0.00,0.00,VWS V14.00,2013-01-23 04:32:00,
2013-01-22 23:33:00,47.4,33.8,30.30,NW,314,3.0,5.0,59,0.00,,---,0.00,0.00,VWS V14.00,2013-01-23 04:33:00,
2013-01-22 23:34:00,47.4,33.4,30.30,NW,314,2.0,5.0,58,0.00,,---,0.00,0.00,VWS V14.00,2013-01-23 04:34:00,
2013-01-22 23:35:00,47.4,33.4,30.30,NW,314,2.0,5.0,58,0.00,,---,0.00,0.00,VWS V14.00,2013-01-23 04:35:00,
2013-01-22 23:36:00,47.3,33.7,30.30,NW,314,3.0,5.0,59,0.00,,---,0.00,0.00,VWS V14.00,2013-01-23 04:36:00,
2013-01-22 23:37:00,47.3,33.3,30.30,NW,314,4.0,5.0,58,0.00,,---,0.00,0.00,VWS V14.00,2013-01-23 04:37:00,
2013-01-22 23:38:00,47.3,33.7,30.30,NW,314,2.0,5.0,59,0.00,,---,0.00,0.00,VWS V14.00,2013-01-23 04:38:00,
2013-01-22 23:39:00,47.2,33.2,30.30,NW,314,3.0,5.0,58,0.00,,---,0.00,0.00,VWS V14.00,2013-01-23 04:39:00,
2013-01-22 23:40:00,47.2,33.2,30.30,NW,314,3.0,5.0,58,0.00,,---,0.00,0.00,VWS V14.00,2013-01-23 04:40:00,
2013-01-22 23:41:00,47.2,33.6,30.30,NW,314,2.0,5.0,59,0.00,,---,0.00,0.00,VWS V14.00,2013-01-23 04:41:00,
2013-01-22 23:42:00,47.2,33.2,30.30,NW,314,0.0,5.0,58,0.00,,---,0.00,0.00,VWS V14.00,2013-01-23 04:42:00,
2013-01-22 23:43:00,47.2,33.2,30.30,NW,314,5.0,5.0,58,0.00,,---,0.00,0.00,VWS V14.00,2013-01-23 04:43:00,
2013-01-22 23:44:00,47.1,32.7,30.31,NW,314,4.0,6.0,57,0.00,,---,0.00,0.00,VWS V14.00,2013-01-23 04:44:00,
2013-01-22 23:45:00,47.0,32.6,30.31,NW,312,5.0,6.0,57,0.00,,---,0.00,0.00,VWS V14.00,2013-01-23 04:45:00,
2013-01-22 23:46:00,47.0,32.6,30.31,NW,312,4.0,6.0,57,0.00,,---,0.00,0.00,VWS V14.00,2013-01-23 04:46:00,
2013-01-22 23:47:00,47.0,32.1,30.30,NW,312,1.0,6.0,56,0.00,,---,0.00,0.00,VWS V14.00,2013-01-23 04:47:00,
2013-01-22 23:48:00,47.0,32.1,30.30,NW,307,4.0,6.0,56,0.00,,---,0.00,0.00,VWS V14.00,2013-01-23 04:48:00,
2013-01-22 23:49:00,47.0,32.1,30.30,NW,306,4.0,6.0,56,0.00,,---,0.00,0.00,VWS V14.00,2013-01-23 04:49:00,
2013-01-22 23:50:00,46.9,32.0,30.30,NW,307,4.0,6.0,56,0.00,,---,0.00,0.00,VWS V14.00,2013-01-23 04:50:00,
2013-01-22 23:51:00,46.9,31.6,30.30,NW,306,2.0,6.0,55,0.00,,---,0.00,0.00,VWS V14.00,2013-01-23 04:51:00,
2013-01-22 23:52:00,46.9,32.0,30.30,NW,306,3.0,6.0,56,0.00,,---,0.00,0.00,VWS V14.00,2013-01-23 04:52:00,
2013-01-22 23:53:00,46.8,32.0,30.30,NW,305,2.0,6.0,56,0.00,,---,0.00,0.00,VWS V14.00,2013-01-23 04:53:00,
2013-01-22 23:54:00,46.8,32.4,30.30,NW,307,5.0,6.0,57,0.00,,---,0.00,0.00,VWS V14.00,2013-01-23 04:54:00,
2013-01-22 23:55:00,46.8,32.0,30.30,NW,305,3.0,6.0,56,0.00,,---,0.00,0.00,VWS V14.00,2013-01-23 04:55:00,
2013-01-22 23:56:00,46.7,31.9,30.31,NW,305,3.0,6.0,56,0.00,,---,0.00,0.00,VWS V14.00,2013-01-23 04:56:00,
2013-01-22 23:57:00,46.7,31.9,30.30,NW,304,3.0,6.0,56,0.00,,---,0.00,0.00,VWS V14.00,2013-01-23 04:57:00,
2013-01-22 23:58:00,46.6,31.8,30.30,NW,304,3.0,6.0,56,0.00,,---,0.00,0.00,VWS V14.00,2013-01-23 04:58:00,
2013-01-22 23:59:00,46.6,31.8,30.30,NW,304,4.0,6.0,56,0.00,,---,0.00,0.00,VWS V14.00,2013-01-23 04:59:00,